[[{"header":{"parameterUnit":"m.s-1","parameterCategory":1,"la1":30.6,"la2":29.2853,"lo1":-89.7004,"lo2":-87.6739,"dy":0.0162,"dx":0.0183,"nx":112,"ny":82,"refTime":"2023-11-07T06:00:00:Z","depth":0,"parameterNumber":2,"parameterNumberName":"U-component_of_WINDS"},"data":[0.0,0.0,0.0,0.0,0.0,0.0,0.0,0.0,0.0,0.0,0.0,0.0,0.0,0.0,0.0,0.0,0.0,0.0,0.0,0.0,0.0,0.0,0.0,0.0,0.0,0.0,0.0,0.0,0.0,0.0,0.0,0.0,0.0,0.0,0.0,0.0,0.0,0.0,0.0,0.0,0.0,0.0,0.0,0.0,0.0,0.0,0.0,0.0,0.0,0.0,0.0,0.0,0.0,0.0,0.0,0.0,0.0,0.0,0.0,0.0,0.0,0.0,0.0,0.0,0.0,0.0,0.0,0.0,0.0,0.0,0.0,0.0,0.0,0.0,0.0,0.0,0.0,0.0,0.0,0.0,0.0,0.0,0.0,0.0,0.0,0.0,0.0,0.0,0.0,0.0,3.572,3.5672,3.5572,3.5504,3.5504,3.5504,3.5504,3.5504,0.0,0.0,0.0,0.0,0.0,0.0,0.0,0.0,0.0,0.0,0.0,0.0,0.0,0.0,0.0,0.0,0.0,0.0,0.0,0.0,0.0,0.0,0.0,0.0,0.0,0.0,0.0,0.0,0.0,0.0,0.0,0.0,0.0,0.0,0.0,0.0,0.0,0.0,0.0,0.0,0.0,0.0,0.0,0.0,0.0,0.0,0.0,0.0,0.0,0.0,0.0,0.0,0.0,0.0,0.0,0.0,0.0,0.0,0.0,0.0,0.0,0.0,0.0,0.0,0.0,0.0,0.0,0.0,0.0,0.0,0.0,0.0,0.0,0.0,0.0,0.0,0.0,0.0,0.0,0.0,0.0,0.0,0.0,0.0,0.0,0.0,0.0,0.0,0.0,0.0,0.0,0.0,0.0,0.0,0.0,0.0,0.0,0.0,0.0,0.0,0.0,0.0,0.0,0.0,3.5861,3.5554,3.5504,3.5504,3.5504,3.5504,3.5504,3.5504,0.0,0.0,0.0,0.0,0.0,0.0,0.0,0.0,0.0,0.0,0.0,0.0,0.0,0.0,0.0,0.0,0.0,0.0,0.0,0.0,0.0,0.0,0.0,0.0,0.0,0.0,0.0,0.0,0.0,0.0,0.0,0.0,0.0,0.0,0.0,0.0,0.0,0.0,0.0,0.0,0.0,0.0,0.0,0.0,0.0,0.0,0.0,0.0,0.0,0.0,0.0,0.0,0.0,0.0,0.0,0.0,0.0,0.0,0.0,0.0,0.0,0.0,0.0,0.0,0.0,0.0,0.0,0.0,0.0,0.0,0.0,0.0,0.0,0.0,0.0,0.0,0.0,0.0,0.0,0.0,0.0,0.0,0.0,0.0,0.0,0.0,0.0,0.0,0.0,0.0,0.0,0.0,0.0,0.0,0.0,0.0,0.0,0.0,0.0,0.0,0.0,0.0,0.0,3.5765,3.5667,3.5521,3.5504,3.5504,3.5504,3.5504,3.5504,3.5504,3.5504,0.0,0.0,0.0,0.0,0.0,0.0,0.0,0.0,0.0,0.0,0.0,0.0,0.0,0.0,0.0,0.0,0.0,0.0,0.0,0.0,0.0,0.0,0.0,0.0,0.0,0.0,0.0,0.0,0.0,0.0,0.0,0.0,0.0,0.0,0.0,0.0,0.0,0.0,0.0,0.0,0.0,0.0,0.0,0.0,0.0,0.0,0.0,0.0,0.0,0.0,0.0,0.0,0.0,0.0,0.0,0.0,0.0,0.0,0.0,0.0,0.0,0.0,0.0,0.0,0.0,0.0,0.0,0.0,0.0,0.0,0.0,0.0,0.0,0.0,0.0,0.0,0.0,0.0,0.0,0.0,0.0,0.0,0.0,0.0,0.0,0.0,0.0,0.0,0.0,0.0,0.0,0.0,0.0,0.0,0.0,0.0,0.0,0.0,0.0,0.0,0.0,0.0,3.5521,3.5504,3.5504,3.5504,3.5504,3.5504,3.5504,3.5504,3.5504,3.5504,0.0,0.0,0.0,0.0,0.0,0.0,0.0,0.0,0.0,0.0,0.0,0.0,0.0,0.0,0.0,0.0,0.0,0.0,0.0,0.0,0.0,0.0,0.0,0.0,0.0,0.0,0.0,0.0,0.0,0.0,0.0,0.0,0.0,0.0,0.0,0.0,0.0,0.0,0.0,0.0,0.0,0.0,0.0,0.0,0.0,0.0,0.0,0.0,0.0,0.0,0.0,0.0,0.0,0.0,0.0,0.0,0.0,0.0,0.0,0.0,0.0,0.0,0.0,0.0,0.0,0.0,0.0,0.0,0.0,0.0,0.0,0.0,0.0,0.0,0.0,0.0,0.0,0.0,0.0,0.0,0.0,0.0,0.0,0.0,0.0,0.0,0.0,0.0,0.0,0.0,0.0,0.0,0.0,0.0,0.0,0.0,0.0,0.0,0.0,0.0,0.0,0.0,3.5572,3.5504,3.5504,3.5504,3.5504,3.5504,3.5504,3.5504,3.5504,3.5504,0.0,0.0,0.0,0.0,0.0,0.0,0.0,0.0,0.0,0.0,0.0,0.0,0.0,0.0,0.0,0.0,0.0,0.0,0.0,0.0,0.0,0.0,0.0,0.0,0.0,0.0,0.0,0.0,0.0,0.0,0.0,0.0,0.0,0.0,0.0,0.0,0.0,0.0,0.0,0.0,0.0,0.0,0.0,0.0,0.0,0.0,0.0,0.0,0.0,0.0,0.0,0.0,0.0,0.0,0.0,0.0,0.0,0.0,0.0,0.0,0.0,0.0,0.0,0.0,0.0,0.0,0.0,0.0,0.0,0.0,0.0,0.0,0.0,0.0,0.0,0.0,0.0,0.0,0.0,0.0,0.0,0.0,0.0,0.0,0.0,0.0,0.0,0.0,0.0,0.0,0.0,0.0,0.0,0.0,0.0,0.0,0.0,0.0,0.0,0.0,0.0,0.0,3.5522,3.5504,0.0,3.5504,3.5504,3.5504,3.5504,3.5504,3.5504,0.0,0.0,0.0,0.0,0.0,0.0,0.0,0.0,0.0,0.0,0.0,0.0,0.0,0.0,0.0,0.0,0.0,0.0,0.0,0.0,0.0,0.0,0.0,0.0,0.0,0.0,0.0,0.0,0.0,0.0,0.0,0.0,0.0,0.0,0.0,0.0,0.0,0.0,0.0,0.0,0.0,0.0,0.0,0.0,0.0,0.0,0.0,0.0,0.0,0.0,0.0,0.0,0.0,0.0,0.0,0.0,0.0,0.0,0.0,0.0,0.0,0.0,0.0,0.0,0.0,0.0,0.0,0.0,0.0,0.0,0.0,0.0,0.0,0.0,0.0,0.0,0.0,0.0,0.0,0.0,0.0,0.0,0.0,0.0,0.0,0.0,0.0,0.0,0.0,0.0,0.0,0.0,0.0,0.0,0.0,0.0,0.0,0.0,0.0,0.0,0.0,0.0,3.5504,3.5504,3.5504,0.0,3.5504,3.5504,3.5504,3.5504,3.5504,3.5504,0.0,0.0,0.0,0.0,0.0,0.0,0.0,0.0,0.0,0.0,0.0,0.0,0.0,0.0,0.0,0.0,0.0,0.0,0.0,0.0,0.0,0.0,0.0,0.0,0.0,0.0,0.0,0.0,0.0,0.0,0.0,0.0,0.0,0.0,0.0,0.0,0.0,0.0,0.0,0.0,0.0,0.0,0.0,0.0,0.0,0.0,0.0,0.0,0.0,0.0,0.0,0.0,0.0,0.0,0.0,0.0,0.0,0.0,0.0,0.0,0.0,0.0,0.0,0.0,0.0,0.0,0.0,0.0,0.0,0.0,0.0,0.0,0.0,0.0,0.0,0.0,0.0,0.0,0.0,0.0,0.0,0.0,0.0,0.0,0.0,0.0,0.0,0.0,0.0,0.0,0.0,0.0,0.0,0.0,0.0,0.0,0.0,0.0,0.0,0.0,0.0,0.0,3.5504,3.5519,3.5519,3.5504,3.5519,3.5519,3.5504,3.5504,3.5504,0.0,0.0,0.0,0.0,0.0,0.0,0.0,0.0,0.0,0.0,0.0,0.0,0.0,0.0,0.0,0.0,0.0,0.0,0.0,0.0,0.0,0.0,0.0,0.0,0.0,0.0,0.0,0.0,0.0,0.0,0.0,0.0,0.0,0.0,0.0,0.0,0.0,0.0,0.0,0.0,0.0,0.0,0.0,0.0,0.0,0.0,0.0,0.0,0.0,0.0,0.0,0.0,0.0,0.0,0.0,0.0,0.0,0.0,0.0,0.0,0.0,0.0,0.0,0.0,0.0,0.0,0.0,0.0,0.0,0.0,0.0,0.0,0.0,0.0,0.0,0.0,0.0,0.0,0.0,0.0,0.0,0.0,0.0,0.0,0.0,0.0,0.0,0.0,0.0,0.0,0.0,0.0,0.0,0.0,0.0,0.0,0.0,0.0,0.0,0.0,0.0,0.0,0.0,3.5504,3.5908,3.6013,3.5549,3.5923,3.6013,3.5549,3.5359,3.5343,3.5488,0.0,0.0,0.0,0.0,0.0,0.0,0.0,0.0,0.0,0.0,0.0,0.0,0.0,0.0,0.0,0.0,0.0,0.0,0.0,0.0,0.0,0.0,0.0,0.0,0.0,0.0,0.0,0.0,0.0,0.0,0.0,0.0,0.0,0.0,0.0,0.0,0.0,0.0,0.0,0.0,0.0,0.0,0.0,0.0,0.0,0.0,0.0,0.0,0.0,0.0,0.0,0.0,0.0,0.0,0.0,0.0,0.0,0.0,0.0,0.0,0.0,0.0,0.0,0.0,0.0,0.0,0.0,0.0,0.0,0.0,0.0,0.0,0.0,0.0,0.0,0.0,0.0,0.0,0.0,0.0,0.0,0.0,0.0,0.0,0.0,0.0,0.0,0.0,0.0,0.0,0.0,0.0,0.0,0.0,0.0,0.0,0.0,0.0,0.0,0.0,0.0,0.0,3.5863,3.6254,3.6432,3.6282,3.6626,3.6701,3.6281,3.5863,3.5647,3.5778,0.0,0.0,0.0,0.0,0.0,0.0,0.0,0.0,0.0,0.0,0.0,0.0,0.0,0.0,0.0,0.0,0.0,0.0,0.0,0.0,0.0,0.0,0.0,0.0,0.0,0.0,0.0,0.0,0.0,0.0,0.0,0.0,0.0,0.0,0.0,0.0,0.0,0.0,0.0,0.0,0.0,0.0,0.0,0.0,0.0,0.0,0.0,0.0,0.0,0.0,0.0,0.0,0.0,0.0,0.0,0.0,0.0,0.0,0.0,0.0,0.0,0.0,0.0,0.0,0.0,0.0,0.0,0.0,0.0,0.0,0.0,0.0,0.0,0.0,0.0,0.0,0.0,0.0,0.0,0.0,0.0,0.0,0.0,0.0,0.0,0.0,0.0,0.0,0.0,0.0,0.0,0.0,0.0,0.0,0.0,0.0,0.0,0.0,0.0,0.0,0.0,0.0,3.6434,3.6613,3.6851,3.736,3.7464,3.7462,3.7385,3.6694,3.6266,3.6266,0.0,0.0,0.0,0.0,0.0,0.0,0.0,0.0,0.0,0.0,0.0,0.0,0.0,0.0,0.0,0.0,0.0,0.0,0.0,0.0,0.0,0.0,0.0,0.0,0.0,0.0,0.0,0.0,0.0,0.0,0.0,0.0,0.0,0.0,0.0,0.0,0.0,0.0,0.0,0.0,0.0,0.0,0.0,0.0,0.0,0.0,0.0,0.0,0.0,0.0,0.0,0.0,0.0,0.0,0.0,0.0,0.0,0.0,0.0,0.0,3.9547,0.0,0.0,0.0,0.0,0.0,0.0,0.0,0.0,0.0,0.0,0.0,0.0,0.0,0.0,0.0,0.0,0.0,0.0,0.0,0.0,0.0,0.0,0.0,0.0,0.0,0.0,0.0,0.0,0.0,0.0,0.0,0.0,0.0,0.0,0.0,0.0,0.0,0.0,0.0,0.0,0.0,3.6493,3.736,3.7838,3.7449,3.7868,3.7903,3.7223,3.6902,3.6741,3.6677,3.578,0.0,0.0,0.0,0.0,0.0,0.0,0.0,0.0,0.0,0.0,0.0,0.0,0.0,0.0,0.0,0.0,0.0,0.0,0.0,0.0,0.0,0.0,0.0,0.0,0.0,0.0,0.0,0.0,0.0,0.0,0.0,0.0,0.0,0.0,0.0,0.0,0.0,0.0,0.0,0.0,0.0,0.0,0.0,0.0,0.0,0.0,0.0,0.0,0.0,0.0,0.0,0.0,0.0,0.0,0.0,0.0,0.0,0.0,0.0,0.0,3.9121,0.0,0.0,0.0,0.0,0.0,0.0,0.0,0.0,0.0,0.0,0.0,0.0,0.0,0.0,0.0,0.0,0.0,0.0,0.0,0.0,0.0,0.0,0.0,0.0,0.0,0.0,0.0,0.0,0.0,0.0,0.0,0.0,0.0,0.0,0.0,0.0,0.0,0.0,0.0,0.0,3.7332,3.7988,3.8377,3.8359,3.8658,3.8662,3.8106,3.765,3.7331,3.7195,3.633,0.0,0.0,0.0,0.0,0.0,0.0,0.0,0.0,0.0,0.0,0.0,0.0,0.0,0.0,0.0,0.0,0.0,0.0,0.0,0.0,0.0,0.0,0.0,0.0,0.0,0.0,0.0,0.0,0.0,0.0,0.0,0.0,0.0,0.0,0.0,0.0,0.0,0.0,0.0,0.0,0.0,0.0,0.0,0.0,0.0,0.0,0.0,0.0,0.0,0.0,0.0,0.0,0.0,4.1394,4.1461,4.1593,4.1461,4.1404,4.1354,4.0048,3.9232,3.8879,3.9443,0.0,0.0,0.0,0.0,0.0,0.0,0.0,0.0,0.0,0.0,0.0,0.0,0.0,0.0,0.0,0.0,0.0,0.0,0.0,0.0,0.0,0.0,0.0,0.0,3.5059,3.5228,3.5531,0.0,0.0,0.0,0.0,0.0,0.0,0.0,0.0,0.0,0.0,0.0,3.8205,3.8461,3.8745,3.9346,3.9355,3.9265,3.9068,3.8412,3.7922,3.7722,3.6787,3.5926,0.0,0.0,0.0,0.0,0.0,0.0,0.0,0.0,0.0,0.0,0.0,0.0,0.0,0.0,0.0,0.0,0.0,0.0,0.0,0.0,0.0,0.0,0.0,0.0,0.0,0.0,0.0,0.0,0.0,0.0,0.0,0.0,3.6336,3.5813,0.0,0.0,0.0,0.0,0.0,0.0,0.0,0.0,0.0,0.0,0.0,0.0,0.0,3.9744,4.0394,4.0491,4.0818,4.1394,4.1394,4.1742,4.2338,4.1692,4.1424,4.1443,4.06,0.0,4.0998,4.1085,0.0,0.0,0.0,0.0,0.0,0.0,0.0,0.0,0.0,0.0,0.0,0.0,0.0,0.0,0.0,0.0,0.0,0.0,0.0,0.0,0.0,0.0,3.3933,3.3708,3.41,3.4722,0.0,3.6086,3.6749,3.7448,3.7116,0.0,0.0,0.0,0.0,0.0,0.0,0.0,3.8127,3.865,3.9106,3.9373,3.9247,3.9068,3.887,3.8576,3.8343,3.8142,3.6797,3.5991,3.5878,3.4418,0.0,0.0,0.0,0.0,0.0,0.0,0.0,0.0,0.0,0.0,0.0,0.0,0.0,0.0,0.0,0.0,0.0,0.0,0.0,0.0,0.0,0.0,0.0,0.0,0.0,0.0,0.0,0.0,0.0,3.6085,3.5797,3.5537,3.5989,3.6476,0.0,0.0,0.0,0.0,0.0,0.0,0.0,0.0,0.0,3.9918,4.0317,4.0879,4.1571,4.162,4.1966,4.2653,4.2653,4.2818,4.3102,4.2785,4.2655,4.2635,4.1929,4.1738,4.1809,4.0558,3.984,3.9547,0.0,0.0,0.0,0.0,3.7101,3.647,3.6026,3.5906,3.5884,3.5448,0.0,0.0,0.0,0.0,0.0,0.0,0.0,0.0,0.0,0.0,3.4086,3.3399,3.3454,3.3894,3.4731,3.5485,3.6331,0.0,3.7496,3.7311,3.7131,0.0,0.0,0.0,0.0,3.835,3.8629,3.8926,3.9123,3.9228,3.905,3.8852,3.8649,3.8553,3.8404,3.8202,3.7589,3.6797,3.5821,3.4841,3.3528,0.0,0.0,0.0,0.0,0.0,0.0,0.0,0.0,0.0,0.0,0.0,0.0,0.0,0.0,0.0,0.0,0.0,0.0,0.0,0.0,0.0,0.0,0.0,0.0,0.0,0.0,0.0,0.0,3.5504,3.5504,3.5504,3.5785,3.6167,0.0,0.0,0.0,0.0,0.0,0.0,3.9039,3.9912,4.0409,4.0431,4.1114,4.1822,4.2519,4.2753,4.3123,4.3598,4.3795,4.3779,4.3598,4.3598,4.3507,4.3327,4.282,4.2285,4.1659,4.0179,3.9271,3.8827,3.8939,3.8614,3.8044,3.7812,3.7306,3.6726,3.6582,3.6599,3.6567,3.5979,3.5752,3.5494,3.4168,0.0,0.0,0.0,0.0,3.4675,3.4031,3.4073,3.4087,3.3304,3.3102,3.3411,3.4475,3.5217,3.601,0.0,3.7656,3.7819,3.7509,0.0,0.0,0.0,0.0,3.8558,3.8884,3.8995,3.905,3.9086,3.8925,3.8741,3.859,3.8478,3.8366,3.8202,3.7981,3.7193,3.5655,3.5028,3.3822,3.1945,0.0,0.0,0.0,0.0,0.0,0.0,0.0,0.0,0.0,0.0,0.0,0.0,0.0,0.0,0.0,0.0,0.0,0.0,0.0,0.0,0.0,0.0,0.0,0.0,0.0,0.0,0.0,0.0,0.0,3.5504,3.6568,0.0,0.0,0.0,0.0,3.8434,3.8934,3.9022,3.8462,3.9686,4.0426,4.0492,4.1148,4.1853,4.2599,4.3297,4.3629,4.3613,4.4307,4.4274,4.3598,4.3598,4.325,4.2648,4.2617,4.1722,4.0357,4.0866,4.0955,4.0694,4.0021,3.9388,3.8732,3.7828,3.7134,3.6582,3.6387,3.6333,3.6319,3.6272,3.5838,3.5126,3.4036,3.384,0.0,0.0,3.4113,3.3626,3.4201,3.3776,3.3176,3.3124,3.3102,3.3556,3.5183,3.5715,3.6094,0.0,3.7601,3.8238,3.8409,0.0,3.8446,3.8457,3.849,3.8505,3.8534,3.8705,3.8889,3.9086,3.8925,3.8797,3.8797,3.8445,3.8202,3.8202,3.7433,3.6537,3.5635,3.4849,3.364,3.1924,3.1878,0.0,0.0,0.0,0.0,0.0,0.0,0.0,0.0,0.0,0.0,0.0,0.0,0.0,0.0,0.0,0.0,0.0,0.0,0.0,0.0,0.0,0.0,0.0,0.0,0.0,0.0,0.0,0.0,3.6133,3.6889,0.0,3.7399,3.7798,3.8182,3.8385,3.8605,3.8823,3.9038,3.9937,4.0658,4.1078,4.1305,4.1989,4.3173,4.3477,4.3844,4.425,4.5034,4.5268,4.5004,4.4472,4.4042,4.3637,4.2685,4.1813,4.103,4.078,4.0159,3.9326,3.8925,3.8652,3.8402,3.8058,3.7817,3.7627,3.7553,3.752,3.737,3.6421,3.533,3.4289,3.3681,3.3202,3.2968,3.3522,3.3452,3.3271,3.3496,3.3326,3.3102,3.3102,3.3102,3.3261,3.3848,3.489,3.5775,3.6029,3.7309,3.8422,3.8478,3.8497,3.8497,3.8497,3.8612,3.8649,3.8516,3.8571,3.8631,3.8701,3.8538,3.8412,3.8412,3.8277,3.8202,3.8202,3.7395,3.6498,3.5648,3.4664,3.3534,3.2256,3.205,3.1757,0.0,0.0,0.0,0.0,0.0,0.0,0.0,0.0,0.0,0.0,0.0,0.0,0.0,0.0,0.0,0.0,0.0,0.0,0.0,0.0,0.0,0.0,0.0,0.0,0.0,0.0,3.6583,3.6776,3.736,3.7749,3.7749,3.7943,3.8272,3.8706,3.8736,3.9035,3.969,4.0428,4.1091,4.1717,4.1983,4.2674,4.3854,4.4161,4.4534,4.5016,4.5792,4.5903,4.5386,4.4838,4.4344,4.3872,4.2898,4.2102,4.1464,4.0967,3.996,3.872,3.8593,3.8405,3.8202,3.8202,3.8202,3.8202,3.8202,3.8202,3.7998,3.6722,3.5463,3.4367,3.3882,3.3149,3.2591,3.2989,3.3102,3.314,3.3329,3.3379,3.3416,3.3605,3.3633,3.3817,3.4418,3.5258,3.6069,3.6704,3.7658,3.8404,3.8404,3.8404,3.8404,3.8404,3.8519,3.8557,3.8422,3.846,3.8497,3.8497,3.8385,3.8296,3.8296,3.824,3.8071,3.7791,3.7208,3.6393,3.5237,3.4498,3.3505,3.2151,3.1801,3.1492,3.1193,0.0,0.0,0.0,0.0,0.0,0.0,0.0,0.0,0.0,0.0,0.0,0.0,0.0,0.0,0.0,0.0,0.0,0.0,0.0,0.0,0.0,0.0,0.0,3.6523,3.6553,3.6793,3.736,3.8018,3.8422,3.8422,3.9017,3.9406,3.9436,3.9436,3.972,4.0397,4.1063,4.1715,4.2385,4.3085,4.3816,4.4541,4.5318,4.5717,4.5801,4.6577,4.6158,4.4706,4.4673,4.414,4.3257,4.3222,4.2546,4.1524,4.1524,4.0618,3.9262,3.9218,3.8797,3.8202,3.8202,3.8202,3.8202,3.8202,3.8202,3.8056,3.7169,3.632,3.5447,3.4641,3.3793,3.3128,3.3128,3.314,3.3278,3.3784,3.3944,3.4082,3.4577,3.4748,3.5248,3.7,3.6943,3.7091,3.8807,3.8662,3.8217,3.8202,3.8202,3.8202,3.8202,3.8188,0.0,3.8202,3.8352,3.8482,3.8478,3.8478,3.8478,3.8478,3.8296,3.7829,3.6956,3.6864,3.6116,3.4481,3.4356,3.3482,3.1647,3.1131,3.064,3.0192,0.0,0.0,0.0,0.0,0.0,0.0,0.0,0.0,0.0,0.0,0.0,0.0,0.0,0.0,0.0,0.0,0.0,0.0,0.0,0.0,0.0,0.0,3.715,3.715,3.7569,3.7945,3.8125,3.8721,3.914,3.914,3.9287,3.9601,4.0098,4.0127,4.0412,4.1089,4.1291,4.1723,4.2368,4.261,4.3012,4.3658,4.5015,4.5711,4.5746,4.7061,4.7489,4.7046,4.6211,4.5347,4.4455,4.3628,4.2765,4.1931,4.1931,4.139,4.0481,3.9567,3.8797,3.8202,3.8202,3.8202,3.8202,3.8202,3.8202,3.8056,3.7169,3.632,3.5447,3.4641,3.4063,3.3671,3.3671,3.396,3.4276,3.4439,3.4997,3.5362,3.4833,3.5789,3.6751,3.6513,3.7395,3.8249,3.8261,3.861,3.8768,3.8289,3.8202,3.8202,3.8202,3.7839,0.0,3.8144,3.7862,3.7797,3.8234,3.8277,3.8277,3.8277,3.8221,3.7829,3.6956,3.632,3.548,3.4426,3.3462,3.254,3.1697,3.0825,3.0336,0.0,0.0,0.0,0.0,0.0,0.0,0.0,0.0,0.0,0.0,0.0,0.0,0.0,0.0,0.0,0.0,0.0,0.0,0.0,0.0,0.0,0.0,3.7823,3.8018,3.8586,3.8751,3.8916,3.92,3.9828,4.0247,4.0247,4.0247,4.0397,4.0786,4.0816,4.1119,4.1777,4.1807,4.2107,4.2765,4.2776,4.3117,4.3791,4.4737,4.5517,4.6165,4.7067,4.7421,4.7269,4.6601,4.5556,4.4243,4.3589,4.2835,4.2092,4.2092,4.17,0.0,0.0,0.0,0.0,0.0,3.8202,3.8202,3.8202,3.8202,3.8152,3.7935,3.702,3.594,3.5713,3.4995,3.4248,3.4248,3.4452,3.4753,3.4992,3.575,3.6391,3.6067,3.7166,3.8209,3.8022,3.8649,3.9244,3.9247,3.9427,0.0,3.8739,3.8391,3.8202,3.8202,3.7897,3.781,3.8159,3.7897,3.7723,3.7825,3.8057,3.8101,3.7839,3.7723,0.0,0.0,0.0,3.4656,3.3725,3.265,0.0,0.0,0.0,2.9772,2.9567,0.0,0.0,0.0,2.7284,2.7088,0.0,0.0,0.0,0.0,0.0,0.0,0.0,0.0,0.0,0.0,0.0,0.0,0.0,0.0,0.0,0.0,3.8634,3.9065,4.0337,4.0068,3.9933,4.0442,4.1044,4.1403,4.1403,4.1403,4.1433,4.1508,4.1508,4.1792,4.247,0.0,0.0,0.0,0.0,4.3649,4.4373,4.4453,4.5206,4.6551,4.6638,4.6515,4.6197,4.6143,4.5098,4.3309,4.3284,4.2815,4.2092,4.2092,4.17,4.1033,4.0365,3.977,3.9233,3.8638,3.8405,3.8405,3.8405,0.0,0.0,3.9117,3.8156,3.6879,3.741,3.6341,3.4959,3.4959,3.4919,3.5027,3.5596,3.6499,3.737,3.7837,3.8756,3.9724,4.0439,4.0259,4.0185,4.0964,4.0612,4.0017,3.9407,3.8754,3.8289,3.8217,3.8144,3.813,3.8188,3.8144,3.7926,3.7462,0.0,0.0,3.7462,3.7096,3.6517,3.5655,3.4752,3.3768,3.2723,3.2028,3.1767,3.1959,3.0212,2.9128,2.8704,2.7644,2.6647,2.581,2.6695,2.6845,0.0,0.0,0.0,0.0,0.0,0.0,0.0,0.0,0.0,0.0,0.0,0.0,0.0,0.0,0.0,3.9795,4.0008,4.0292,4.1089,4.1553,4.1658,4.1254,4.1328,4.1403,4.1403,4.1403,4.1613,4.2171,4.2216,4.2481,4.3085,4.313,4.319,4.329,4.329,4.3369,4.3532,4.4182,4.4662,4.4946,0.0,0.0,4.547,4.5206,4.4498,4.3441,4.3185,4.2688,4.2092,4.2092,4.17,4.1033,4.0365,4.0031,3.99,3.977,3.9726,3.9726,3.9726,3.9726,3.9755,3.9886,3.9247,3.8467,3.8558,3.7636,0.0,3.6556,3.6325,3.6267,3.7121,3.8056,3.8795,3.8894,4.0266,4.1367,4.0745,4.1148,4.1524,4.1186,4.1004,4.0699,4.0046,3.9407,3.8826,3.8275,3.7796,3.7651,3.8144,3.7781,3.7622,3.7984,3.813,3.8159,3.8043,3.7324,3.6517,3.5655,3.4183,3.309,3.2475,3.2311,3.2081,3.1749,2.984,2.879,2.8704,2.7255,2.6448,2.626,2.6473,2.6497,0.0,0.0,0.0,0.0,0.0,0.0,0.0,0.0,0.0,0.0,0.0,3.7565,0.0,0.0,3.9235,4.0111,4.0532,4.1017,4.1792,4.2186,4.2276,4.1946,4.2162,4.2357,4.2357,4.2357,4.2491,4.2821,4.2851,4.2985,4.3275,4.329,4.316,4.2865,4.2851,4.2686,4.2357,4.275,4.3136,4.3513,4.4241,4.458,4.4549,4.4735,4.4228,4.3235,4.3066,4.2662,4.2092,4.2092,4.1903,4.157,4.1221,4.0684,4.0104,4.0104,4.0104,4.0104,4.0104,4.0104,4.0162,4.0481,4.002,3.9345,3.9662,3.864,3.74,3.74,3.7256,3.7106,3.7106,3.8496,3.9768,3.9307,4.0702,4.1953,4.1458,4.1752,4.199,4.1671,4.1599,4.1381,4.0713,4.035,3.9929,3.9247,3.8884,3.8812,3.9117,3.8884,3.8696,3.8696,3.8971,3.8712,3.7644,3.6373,3.5271,3.4408,3.3556,3.2887,3.241,3.24,3.1937,3.0958,2.9475,2.8567,2.8306,2.7015,2.6444,2.6497,2.671,2.6807,0.0,0.0,0.0,0.0,0.0,0.0,0.0,0.0,3.6962,3.7775,3.7892,3.8098,3.887,3.9412,3.9892,4.0336,4.0859,4.151,4.2345,4.2493,4.2532,4.2532,4.2976,4.329,4.329,4.329,4.329,4.329,4.319,4.313,4.313,4.301,4.2716,4.2231,4.2216,4.1961,4.1403,4.1403,4.1678,4.2242,4.2771,4.3087,4.3183,4.3837,4.3583,4.2643,4.277,4.2541,4.2092,4.2092,4.2092,4.2092,4.2092,4.1439,4.0481,4.0481,4.0481,4.0481,4.0481,4.0481,4.0583,4.112,4.0775,4.0265,4.0732,3.9694,3.8328,3.8328,3.8206,3.7933,3.7358,3.8894,4.0453,3.9905,4.0958,4.2092,4.2092,4.2092,4.2092,4.2092,4.2092,4.1932,4.1381,4.1279,4.1018,4.022,4.0104,4.0104,4.0104,4.0104,3.99,3.9421,3.9813,3.9262,3.7174,3.5579,3.4292,3.333,3.3253,3.2999,3.2422,3.2213,3.1516,3.0238,2.9027,2.8226,2.79,2.6978,2.6627,2.683,2.7115,2.719,3.4397,3.482,3.529,3.5325,3.5787,3.6395,0.0,0.0,3.7448,3.8263,3.8269,3.8473,3.9488,3.9608,3.9977,4.1298,4.1588,4.1868,4.2577,4.2812,4.2917,4.2917,4.3145,4.329,4.329,4.329,4.329,4.329,4.2791,4.2515,4.2515,4.1942,4.1583,4.1508,4.1508,4.1478,4.1403,4.1403,4.1346,4.1251,4.1326,4.1184,4.0905,4.1504,4.162,4.1357,4.1954,4.2154,4.2092,4.2092,4.2092,4.2092,4.2092,4.2005,4.1874,4.1874,4.1874,4.1874,4.1874,4.1874,4.1889,4.1961,4.1914,4.1846,4.1918,4.117,4.0289,4.0289,3.9681,3.921,3.9942,4.0353,4.0809,4.1591,4.1933,4.2092,4.2092,4.2092,4.2092,4.2092,4.2092,4.2078,4.199,4.199,4.1555,4.0292,4.0104,4.0104,4.0104,4.0104,4.0075,4.0002,4.006,3.9347,3.7494,3.6401,3.5244,3.39,3.3809,3.3399,3.2434,3.1548,3.079,3.0215,2.8355,2.7547,2.79,2.7252,2.7142,2.7572,2.7433,2.7193,3.4881,3.5203,3.5479,0.0,3.6402,3.6968,3.7244,3.7578,3.7916,3.8252,3.8578,3.8927,3.9375,3.9994,4.0665,0.0,4.184,4.2252,4.2638,4.2769,4.2875,4.2996,4.3076,4.3155,4.329,4.2985,4.2776,4.2776,4.2182,4.1826,4.1826,4.1553,4.1224,4.0834,4.0834,4.0621,4.0247,4.0509,4.0606,4.0526,4.1153,4.1293,4.1041,4.169,4.1861,4.17,4.1976,4.2092,4.2092,4.2092,4.2092,4.2092,4.2092,4.2092,4.2092,4.2092,4.2092,4.2092,4.2092,4.2092,4.2092,4.2092,4.2092,4.2092,4.2092,4.1395,4.0603,4.0603,4.031,3.9986,3.9834,4.0617,4.1437,4.1275,4.1675,4.2092,4.2092,4.2092,4.2092,4.2092,4.2092,4.2092,4.2092,4.2092,4.1903,4.1337,4.1265,4.1265,4.1265,4.1265,4.1033,4.0448,3.9611,3.8572,3.727,3.5971,3.499,3.4387,3.4073,3.3598,3.2889,3.2161,3.1122,2.9692,2.8847,2.8209,2.7772,2.7527,2.7555,2.7815,2.7722,2.7408,3.5276,3.5668,3.6028,3.6475,3.707,3.7549,3.7549,3.7897,3.8202,3.8202,3.8739,3.9247,3.9421,4.035,4.1209,4.1545,4.2003,4.2372,4.25,4.2627,4.2749,4.2895,4.2872,4.2962,4.3275,4.2765,4.2321,4.2141,4.1493,4.1209,4.1388,4.1224,4.0999,4.0681,4.0864,4.0674,4.0122,4.0627,4.0821,4.0721,4.1479,4.1776,4.1613,4.226,4.2592,4.2615,4.2615,4.2513,4.2339,4.2339,4.2237,4.2092,4.2092,4.2092,4.2092,4.2092,4.2092,4.2092,4.2092,4.2092,4.2092,4.2092,4.2092,4.2092,4.2092,4.1598,4.1043,4.1213,4.1142,4.0908,4.0382,4.1171,4.1912,4.1177,4.1577,4.2092,4.2092,4.2092,4.2092,4.2092,4.2092,4.2092,4.2092,4.2092,4.2092,4.2092,4.2092,4.2092,4.2092,4.1856,4.1311,4.0324,3.9035,3.7971,3.7284,3.595,3.5115,3.4941,3.4507,3.4008,3.3455,3.2715,3.1444,2.9561,2.9259,2.8647,2.7692,2.7692,2.7802,2.8014,2.7933,2.7664,3.5392,3.6304,3.7259,3.7273,3.7723,3.8173,3.8173,3.8188,3.8202,3.8202,3.8739,3.9378,3.9958,4.0641,4.1308,4.1961,4.2113,4.2113,4.2113,4.2453,4.2688,4.2708,4.254,4.2661,0.0,4.2765,4.2126,4.1478,4.0801,4.0711,4.1373,4.0771,4.0711,4.1343,4.2006,4.22,4.1912,4.2584,4.268,4.2225,4.2269,4.2211,4.2113,4.2708,4.3333,4.3935,4.3935,4.3558,4.2963,4.2963,4.2629,4.2092,4.2092,4.2092,4.2092,4.2092,4.2092,4.2092,4.2092,4.2092,4.2092,4.2092,4.2092,4.2092,4.2092,4.2071,4.2167,4.2747,4.25,4.2181,4.274,4.2486,4.2092,4.2071,4.2071,4.2092,4.2092,4.2092,4.2092,4.2092,4.2092,4.2092,4.2092,4.2092,4.2092,4.2092,4.2092,4.2092,4.2092,4.1254,4.0303,3.9329,3.8383,3.7805,3.7782,3.6905,3.6105,3.5508,3.5285,3.4794,3.401,3.2769,3.1473,3.0111,2.9116,2.8325,2.7692,2.7692,2.7907,2.8291,2.8014,2.7879,3.6435,3.6968,3.7404,3.7796,3.8057,3.8202,3.8202,3.8202,3.8202,3.8202,3.9044,3.9857,4.006,4.1004,4.1831,4.2063,4.2092,4.2092,4.2092,4.2222,4.2392,4.2668,4.2637,0.0,0.0,0.0,0.0,4.2051,4.1433,4.1164,4.1388,4.1613,4.1841,4.2066,4.2656,4.2897,4.2674,4.3205,4.3304,4.2965,4.3292,4.339,4.3355,4.3558,4.3776,4.3993,4.3993,4.3863,4.366,4.366,4.3529,4.3355,4.3355,4.3355,4.3355,4.3355,4.3355,4.3239,4.2382,4.2353,4.2687,4.2687,4.2992,4.3355,4.3355,4.3355,4.3398,4.3602,4.3515,4.3297,4.305,4.2847,4.2586,4.2194,4.2092,4.2092,4.2092,4.2092,4.2092,4.2092,4.1556,4.1318,4.1989,4.1556,4.1099,4.1099,4.1099,4.1099,4.1099,4.026,3.9307,3.8373,3.7978,3.7556,3.6919,3.6593,3.6306,3.6117,3.5662,3.5142,3.4551,3.31,3.1739,3.0589,2.949,2.867,2.8112,2.8112,2.8181,2.8291,2.8211,2.8067,3.7012,3.7462,3.7723,3.8101,3.8202,3.8202,3.8202,3.8202,3.8202,3.8202,3.9218,4.0104,4.0104,4.1192,4.2092,4.2092,4.2092,4.2092,4.2092,4.2154,4.2304,4.2561,4.2502,4.248,0.0,0.0,0.0,4.2036,4.1871,4.1852,4.2073,4.2701,4.3145,4.3325,4.3941,4.4121,4.3791,4.4314,4.4467,4.4231,4.4523,4.4676,4.4676,4.4676,4.4676,4.4676,4.4676,4.4531,4.4313,4.4313,4.4182,4.3993,4.3993,4.3993,4.3993,4.3993,4.3993,4.3877,4.305,4.3021,4.3376,4.3376,4.3667,4.3993,4.3993,4.3993,4.4037,4.4276,4.4153,4.3957,4.3718,4.3515,4.3195,4.2571,4.2411,4.2353,4.215,4.2092,4.2092,4.2092,4.1577,4.1339,4.1989,4.1275,4.0482,4.0138,3.9812,3.9593,3.9593,3.9077,3.8351,3.7407,3.7315,3.7059,3.6452,3.6405,3.6405,3.6405,3.5867,3.5398,3.5104,3.3529,3.2179,3.1116,2.9974,2.9029,2.8291,2.8291,2.8291,2.8291,2.8291,2.8211,3.7153,3.7767,3.8202,3.8202,3.8202,3.8202,3.8202,3.8202,3.8202,3.8202,3.9189,4.006,0.0,0.0,4.2049,4.2092,4.2092,4.2092,4.2092,4.2263,4.2392,0.0,0.0,0.0,0.0,0.0,0.0,4.1643,0.0,4.2765,4.3384,4.4042,4.4603,4.5057,4.5699,4.5803,4.5281,4.5881,4.609,4.5903,4.5903,4.5903,4.5903,4.5903,4.5903,4.5903,4.5903,4.5554,4.4959,4.4959,4.4603,4.4095,4.4095,4.4095,4.4095,4.4095,4.4095,4.4095,4.4095,4.4066,4.4059,4.4059,4.4066,4.4095,4.4095,4.4095,4.4233,4.4799,4.4552,4.4211,4.4748,4.448,4.3863,4.3195,4.305,4.2876,4.2281,4.215,4.2136,4.2107,4.2051,4.2009,4.1953,4.1113,4.0138,3.9263,3.8328,3.774,3.7785,3.7763,3.7384,3.6499,3.6405,3.6405,3.6405,3.6405,3.6405,3.6405,3.5919,3.5596,3.5512,3.398,3.2639,3.1524,3.039,2.9313,2.8291,2.8291,2.8291,2.8291,2.8291,2.8291,3.781,3.8086,3.8202,3.8202,3.8202,3.8202,3.8202,3.8202,3.8202,3.8202,3.8855,3.9567,0.0,0.0,0.0,4.202,4.2092,0.0,4.2092,4.2133,0.0,4.2372,0.0,4.2677,4.3638,4.3645,0.0,0.0,4.4003,4.4107,4.4766,4.5418,4.5846,4.5962,4.6438,4.6541,4.6256,4.6062,4.5948,4.5903,4.5903,4.5903,4.5903,4.5903,4.5903,4.5903,4.5903,4.5801,4.5656,4.5656,4.5554,4.5424,4.5424,4.5424,4.5424,4.5424,4.5424,4.5424,4.5424,4.5104,4.4661,4.4661,4.5017,4.5424,4.5424,4.5424,4.5467,4.5612,4.554,4.5351,4.5003,4.4799,4.4501,4.3877,4.3754,4.3558,4.2905,4.276,4.2629,4.2179,4.1479,4.076,4.0057,3.9157,3.8419,3.8183,3.7348,3.7013,3.7717,3.7199,3.6675,3.6428,3.6405,3.6405,3.6405,3.6405,3.6405,3.6405,3.6074,3.5464,3.4446,3.3064,3.1691,3.0364,2.926,2.8575,2.8291,2.8291,2.8291,2.8291,2.8291,2.8291,3.8043,3.8202,3.8202,3.8202,3.8202,3.8202,3.8202,3.8202,3.8202,3.8202,3.8739,0.0,3.9987,4.0641,4.1323,0.0,0.0,0.0,4.2092,4.2092,4.2276,0.0,4.2919,0.0,4.4356,4.4436,4.4807,0.0,4.5388,4.5343,4.5723,4.636,4.6648,4.644,4.6738,4.6756,4.6425,4.6158,4.5993,4.5903,4.5903,4.5903,4.5903,4.5903,4.5903,4.5903,0.0,4.5903,4.5903,4.5903,4.5903,4.5903,4.5903,4.5903,4.5903,4.5903,4.5903,4.5903,4.5903,4.5656,4.5351,4.5351,4.5598,4.5903,4.5903,4.5903,4.5903,4.5903,4.5903,4.5816,4.5438,4.5351,4.5191,4.4567,4.4385,4.4233,4.3573,4.3449,4.3239,4.2615,4.1468,4.0289,3.9351,3.8419,3.7648,3.7245,3.6745,3.6581,3.7129,3.6722,3.6405,3.6405,3.6405,3.6405,3.6405,3.6405,3.6405,3.6405,3.6038,3.5283,3.4042,3.2602,3.1206,2.9922,2.8857,2.8291,2.8291,2.8291,2.8291,2.8291,2.8291,2.8291,3.8057,3.8202,3.8202,3.8202,3.8202,3.8202,3.8202,3.8202,3.8202,3.8202,0.0,3.9378,3.9987,4.0641,4.1323,4.199,0.0,4.2092,4.2092,4.2092,4.2407,4.3263,4.3495,4.3983,4.4988,4.5083,4.542,4.6234,4.6279,4.6279,4.63,4.6839,4.6913,4.6351,4.6468,4.638,4.6034,4.6034,4.5981,4.5903,4.5903,4.5903,4.5903,4.5903,4.5903,4.5903,4.5903,4.5903,4.5903,4.5903,4.5903,4.5903,4.5903,4.5903,4.5903,4.5903,4.5903,4.5903,4.5903,4.5903,4.5903,4.5903,4.5903,4.5903,4.5903,4.5903,4.5903,4.5903,4.5903,4.5903,4.5903,4.5903,4.5758,4.5177,4.5046,4.485,4.4262,4.4073,4.3819,4.326,4.1789,4.036,3.9487,3.8448,3.7415,3.6535,3.6405,3.6405,3.6405,3.6405,3.6405,3.6405,3.6405,3.6405,3.6405,3.6405,3.6381,3.6346,3.574,3.4884,3.3784,3.2224,3.0856,2.9723,2.8777,2.8291,2.8291,2.8291,2.8291,2.8291,2.8291,2.8291,3.8173,3.8202,3.8202,3.8202,3.8202,3.8202,3.8202,3.8202,0.0,0.0,3.8739,3.9378,3.9987,4.0641,4.1323,4.199,4.2092,4.2092,4.2092,4.2092,4.2345,0.0,4.3097,4.3739,4.534,4.5501,0.0,0.0,4.6137,4.6115,4.6279,4.6405,4.5998,4.4973,4.4823,4.4857,4.5119,4.5119,4.5373,4.5903,4.5903,4.5903,4.5903,4.5903,4.5903,4.5903,4.5903,0.0,4.5903,4.5903,4.5903,4.5903,4.5903,4.5903,4.5903,4.5903,4.5903,4.5903,4.5903,4.5903,4.5903,4.5903,4.5903,4.5903,4.5903,4.5903,4.5903,4.5903,4.5903,4.5903,4.5903,4.5903,4.5874,4.5758,4.5729,4.5554,4.4901,4.4364,4.3964,4.3855,4.2247,4.0736,4.0119,3.8514,3.7088,3.6504,3.6405,3.6405,3.6405,3.6405,3.6405,3.6405,3.6405,3.6405,3.6405,3.6405,3.6323,3.6074,3.4945,3.3685,3.2401,3.0974,2.967,2.8601,2.8388,2.8291,2.8291,2.8291,2.8291,2.8291,2.8291,2.8291,3.8202,3.8202,3.8202,3.8202,3.8202,3.8202,3.8202,0.0,0.0,0.0,3.8986,3.9494,4.0437,4.0873,0.0,4.199,4.2092,4.2092,4.2092,4.2092,4.2482,4.3554,4.3798,4.448,0.0,4.5805,4.5743,4.6124,4.5597,4.5382,4.5609,4.5488,4.5276,4.4956,4.4782,4.4696,4.4754,4.5084,4.5296,4.5372,4.5743,4.5903,4.5903,4.5903,4.5903,4.5903,4.5903,4.5903,4.5903,4.5903,4.5903,4.5903,4.5903,4.5903,4.5903,4.5903,4.5903,4.5903,4.5903,4.5903,4.5903,4.5903,4.5903,4.5903,4.5903,4.5903,4.5903,4.5903,4.5903,4.5903,4.5903,4.5903,4.5903,4.5903,4.5903,4.5816,4.5496,4.4517,4.3702,4.3702,4.1782,4.009,3.9821,3.8333,3.7122,3.6859,3.6593,3.6405,3.6405,3.6405,3.6405,3.6405,3.6405,3.6405,3.6405,3.6275,3.6146,3.6015,3.4605,3.3264,3.2047,3.0639,2.9392,2.8318,2.8291,2.8291,2.8291,2.8291,2.8291,2.8291,2.8291,2.8291,3.8202,3.8202,3.8202,3.8202,3.8202,3.8202,3.8202,3.8202,0.0,0.0,3.9305,3.9741,4.0887,4.1221,4.1482,0.0,4.2092,4.2092,4.2092,4.2208,4.2785,0.0,4.4547,0.0,4.6285,4.588,0.0,4.5573,4.4731,4.4364,4.4763,4.4421,4.4374,4.4726,4.4555,4.4442,4.4406,4.4858,4.5061,4.4959,4.5438,4.5772,4.5903,4.5903,4.5903,4.5903,4.5903,4.5903,4.5903,4.5903,4.5903,4.5903,4.5903,4.5903,4.5903,4.5903,4.5903,4.5903,4.5903,4.5903,4.5903,4.5903,4.5903,4.5903,4.5903,4.5903,4.5903,4.5903,4.5903,4.5903,4.5903,4.5903,4.5903,4.5903,4.5903,4.5835,4.5617,4.471,4.3802,4.3366,4.1562,4.0024,3.9677,3.8472,3.7487,3.7248,3.6833,3.6543,3.6394,3.6405,3.6405,3.6405,3.6405,3.6405,3.6405,3.6146,3.5896,3.5584,3.4128,3.2728,3.1589,3.0261,2.9164,2.8318,2.8291,2.8291,2.8291,2.8291,2.8291,2.8291,2.8291,2.8291,3.8202,3.8202,3.8202,3.8202,3.8202,3.8202,3.8202,0.0,3.8391,3.9059,3.9639,4.0234,4.096,4.1599,0.0,0.0,0.0,4.2092,4.2092,4.2571,4.3202,4.395,0.0,0.0,4.563,4.5477,4.5013,4.4246,4.3371,4.3232,4.4044,4.3327,4.2885,4.2946,4.2737,4.3005,4.3779,4.3608,4.4061,4.5172,4.504,4.5322,4.5903,4.5903,4.5903,4.5903,4.5903,4.5903,0.0,4.5903,4.5903,4.5903,4.5903,4.5903,4.5903,4.5903,4.5903,4.5903,4.5903,4.5903,4.5903,4.5903,4.5903,4.5903,4.5903,4.5903,4.5903,4.5903,4.5903,4.5903,4.5903,4.5903,4.5903,4.5903,4.5903,4.564,4.4652,4.5098,4.5115,4.3214,4.2656,4.2006,4.0565,3.943,3.8391,3.7361,3.7173,3.6947,3.6444,3.6405,3.6405,3.6405,3.6405,3.6405,3.6405,3.6146,3.5476,3.4263,3.2903,3.1538,3.0146,2.9032,2.8398,2.8291,2.8291,2.8291,2.8291,2.8291,2.8291,2.8291,2.8291,2.8291,3.8202,3.8202,3.8202,3.8202,3.8202,3.8202,3.8202,0.0,3.8492,3.9523,3.9929,4.0423,4.1497,4.1918,0.0,0.0,0.0,0.0,4.2092,4.2761,4.3472,4.4107,4.4864,0.0,0.0,0.0,4.4296,4.3277,4.3119,4.3169,4.3382,4.3064,4.2875,4.2875,4.2795,4.2801,4.2931,4.3701,4.4268,4.4667,4.5339,4.5806,4.609,4.5948,4.5903,4.5903,4.5903,4.5903,0.0,4.5903,4.5903,4.5903,4.5903,4.5903,4.5903,4.5903,4.5903,4.5903,4.5903,4.5903,4.5903,4.5903,4.5903,4.5903,4.5903,4.5903,4.5903,4.5903,4.5903,4.5903,4.5903,4.5903,4.5903,4.5903,4.5903,4.5617,4.4536,4.4629,4.4326,4.2244,4.184,4.1452,4.0183,3.9373,3.8617,3.7801,3.74,3.7009,3.648,3.6405,3.6405,3.6405,3.6405,3.6405,3.6405,3.6003,3.5536,3.5005,3.2939,3.1524,3.0959,2.9244,2.8291,2.8291,2.8291,2.8291,2.8291,2.8291,2.8291,2.8291,2.8291,2.8291,3.8202,3.8202,3.8202,3.8202,3.8202,3.8202,0.0,0.0,3.8797,3.9871,4.0249,4.0742,4.1889,4.2092,4.2092,0.0,0.0,4.2165,4.2339,4.3136,4.3891,4.4513,0.0,4.5718,0.0,4.437,4.3504,4.266,4.293,4.309,4.3001,4.3234,4.3269,4.3016,4.3174,4.3192,4.2957,4.4053,4.4659,4.4809,4.5574,4.6079,4.6314,4.609,4.5993,4.5993,4.5925,4.5903,0.0,4.5903,4.5903,4.5903,4.5903,4.5903,4.5903,4.5903,4.5903,4.5903,4.5903,4.5903,4.5903,4.5903,4.5903,4.5903,4.5903,4.5903,4.5903,4.5903,4.5903,4.5903,4.5903,4.5903,4.5903,4.5903,4.5903,4.5617,4.4536,4.4312,4.3687,4.1604,4.1194,4.0882,3.9865,3.9258,3.8705,3.809,3.7538,3.7009,3.648,3.6405,3.6405,3.6405,3.6405,3.6405,3.6405,3.5919,3.5464,3.5163,3.2914,3.1447,3.1114,2.9296,2.8291,2.8291,2.8291,2.8291,2.8291,2.8291,2.8291,2.8291,2.8291,2.8291,3.8202,3.8202,3.8202,3.8202,3.8202,3.8202,0.0,0.0,3.9363,3.9973,4.0626,4.1294,4.1976,4.2092,4.2092,0.0,0.0,0.0,4.2905,4.3735,4.4528,0.0,0.0,4.6166,4.5098,4.3628,4.2637,4.2412,4.2581,0.0,4.2981,4.3822,4.3887,4.303,4.3649,4.4072,4.4282,4.4504,4.5079,4.5974,4.5513,4.5764,4.6594,4.6314,4.6188,4.6188,4.5993,4.5903,0.0,4.5903,4.5903,4.5903,4.5903,4.5903,4.5903,4.5903,4.5903,4.5903,4.5903,4.5903,4.5903,4.5903,4.5903,4.5903,4.5903,4.5903,4.5903,4.5903,4.5903,4.5903,4.5903,4.5903,4.5903,4.5903,4.5903,4.5617,4.4536,4.4312,4.3687,4.1604,4.1194,4.0882,3.9865,3.9258,3.8705,3.809,3.7538,3.7009,3.648,3.6405,3.6405,3.6405,3.6405,3.6405,3.6405,3.5919,3.5163,3.4091,3.2513,3.1088,2.9948,2.8883,2.8291,2.8291,2.8291,2.8291,2.8291,2.8291,2.8291,2.8291,2.8291,2.8291,3.8202,3.8202,3.8202,3.8202,3.8202,3.8202,3.8202,3.8725,3.9363,3.9973,4.0626,4.1294,4.1976,4.2092,4.2092,0.0,0.0,0.0,0.0,0.0,0.0,4.541,4.5228,4.4876,0.0,0.0,4.2729,4.2795,4.3426,4.3821,4.3902,4.4575,4.4573,4.3708,4.4332,4.4653,4.457,4.5228,4.5715,4.6002,4.6122,4.6322,4.6594,4.6314,4.6135,4.5993,4.6068,4.6038,4.5903,4.5903,4.5903,4.5903,4.5903,4.5903,4.5903,4.5903,4.5903,4.5903,4.5903,4.5903,4.5903,4.5903,4.5903,4.5903,4.5903,4.5903,4.5903,4.5903,4.5903,4.5903,4.5903,4.5903,4.5903,4.5903,4.5903,4.5617,4.4536,4.4312,4.3687,4.1604,4.1194,4.0882,3.9865,3.9258,3.8705,3.809,3.7538,3.7009,3.648,3.6405,3.6405,3.6405,3.6405,3.6405,3.6405,3.6074,3.5656,3.5138,3.3064,3.1615,3.1088,2.9296,2.8291,2.8291,2.8291,2.8291,2.8291,2.8291,2.8291,2.8291,2.8291,2.8291,0.0,3.8202,3.8202,3.8202,3.8202,0.0,0.0,3.8884,3.9654,4.0017,4.0829,4.1599,4.202,4.2092,4.2092,4.2092,0.0,0.0,0.0,0.0,0.0,4.5865,0.0,0.0,0.0,4.3551,4.3138,4.3245,4.4058,4.4609,4.467,4.5319,4.5436,4.4867,4.5275,4.5435,4.5287,4.5996,4.6387,4.6488,4.6629,4.6771,4.6858,4.658,4.6403,4.6269,4.6336,4.6269,0.0,4.606,4.6001,4.6015,4.5925,4.5948,4.6001,4.5925,4.5948,4.6001,4.5925,4.5903,4.5903,4.5903,4.5903,4.5903,4.5903,4.5903,4.5903,4.5903,4.5903,4.5903,4.5903,4.5903,4.5903,4.5903,4.5595,4.5118,4.4429,4.3687,4.2741,4.1444,4.0882,4.044,3.9813,3.9082,3.8417,3.8065,3.7386,3.6771,3.6455,3.6405,3.6405,3.6405,3.6405,3.6405,3.6405,3.6074,3.5764,3.562,3.3239,3.1779,3.16,2.9481,2.8291,2.8291,2.8291,2.8291,2.8291,2.8291,2.8291,2.8291,2.8291,2.8291,0.0,0.0,0.0,0.0,0.0,0.0,0.0,0.0,0.0,4.0162,4.1192,4.2092,4.2092,4.2092,4.2107,4.215,0.0,0.0,0.0,4.4829,0.0,0.0,4.5423,0.0,4.4372,4.4005,4.3797,4.3803,4.4611,4.5171,4.5364,4.6001,4.6375,4.6375,4.6375,4.6375,4.6375,4.6743,4.704,4.7309,4.7019,4.7019,4.7251,4.7019,4.6894,0.0,4.6705,4.6594,4.655,4.6314,4.6188,4.6188,4.5978,4.6038,4.6165,4.5993,4.6038,4.6143,4.597,4.5903,4.5903,4.5903,4.5903,4.5903,4.5903,4.5903,4.5903,4.5903,4.5903,4.5903,4.5903,4.5903,4.5903,4.5903,4.5141,4.4382,4.4312,4.2741,4.1294,4.1219,4.0389,3.9685,3.9647,3.873,3.799,3.7952,3.7072,3.6405,3.6405,3.6405,3.6405,3.6405,3.6405,3.6381,3.6358,3.5919,3.5644,3.5596,3.3114,3.1626,3.16,2.9481,2.8291,2.8291,2.8291,2.8291,2.8291,2.8291,2.8291,2.8291,2.8291,2.8291,3.8043,0.0,0.0,0.0,0.0,0.0,0.0,0.0,0.0,0.0,0.0,4.2092,4.2092,4.2092,4.2237,0.0,0.0,4.3469,4.4814,4.5573,0.0,4.5566,4.5302,4.5051,4.4862,4.4753,4.4769,4.492,4.5603,4.6019,4.6061,4.6689,4.7048,4.7048,4.7048,4.7048,4.7048,4.7154,4.7229,4.7309,4.7019,4.6931,4.6997,4.6931,4.6822,4.6683,4.6778,4.6624,4.6291,4.6232,4.6188,4.6202,4.6158,4.6158,4.6188,4.6158,4.6068,4.597,4.5903,4.5903,4.5903,4.5903,4.5903,4.5903,4.5903,4.5903,4.5903,4.5903,4.5903,4.5903,4.5903,4.5903,4.5903,4.5903,4.5708,4.5293,4.4475,4.3307,4.217,4.1369,4.0389,3.9559,3.9158,3.8479,3.7864,3.7437,3.6821,3.6405,3.6405,3.6405,3.6405,3.6405,3.6405,3.6323,3.6098,3.6157,3.6038,3.562,3.3415,3.1974,3.16,2.9481,2.8291,2.8291,2.8291,2.8291,2.8291,2.8291,2.8291,2.8291,2.8291,2.8291,3.7955,3.8202,3.8202,3.8202,0.0,0.0,0.0,0.0,0.0,0.0,0.0,4.2092,4.2092,4.2324,0.0,0.0,4.3485,0.0,0.0,0.0,4.6204,4.572,4.5435,4.5214,0.0,4.514,4.5332,4.5423,4.6254,4.6749,4.6749,4.7115,4.7309,4.7309,4.7309,4.7309,4.7309,4.7309,4.7309,4.7309,4.7142,4.7084,4.7084,4.7084,4.7033,4.6924,4.7033,4.6931,4.669,4.6565,4.6521,4.6499,4.6277,4.6291,4.6358,4.6135,4.6046,4.6023,4.5925,4.5903,4.5903,4.5903,4.5903,4.5903,4.5903,4.5903,4.5903,4.5903,4.5903,4.5903,4.5903,4.5903,4.579,4.527,4.4805,4.4186,4.3102,4.2086,4.1221,4.063,4.0083,3.9521,3.8994,3.8391,3.7814,3.7286,3.6733,3.6405,3.6405,3.6405,3.6405,3.6405,3.6405,3.6299,3.6015,3.6122,3.5763,3.4751,3.2978,3.1629,3.0845,2.9191,2.8291,2.8291,2.8291,2.8291,2.8291,2.8291,2.8291,2.8291,2.8291,2.8291,3.7854,3.8202,3.8202,3.8202,0.0,0.0,0.0,0.0,0.0,0.0,0.0,0.0,0.0,4.2731,0.0,0.0,0.0,0.0,4.6048,4.638,4.644,4.6145,4.5757,0.0,4.5135,4.5572,4.5869,4.5869,4.6749,4.7309,4.7309,4.7309,4.7309,4.7309,4.7309,4.7309,4.7309,4.7309,4.7309,4.7309,4.7309,4.7309,4.7309,4.7309,4.7309,4.7309,0.0,0.0,4.7207,4.6997,4.6873,4.6822,4.6454,4.6425,4.655,4.615,4.609,4.6165,4.597,4.5903,4.5903,4.5903,4.5903,4.5903,4.5903,4.5903,4.5903,4.5903,4.5903,4.5903,4.5903,4.5903,4.564,4.4559,4.364,4.2682,4.1468,4.0529,3.989,3.9723,3.9697,3.9484,3.8869,3.8329,3.7789,3.7173,3.6683,3.6405,3.6405,3.6405,3.6405,3.6405,3.6405,3.6275,3.5968,3.5944,3.5187,3.3413,3.2261,3.1062,2.9723,2.8926,2.8478,2.8291,2.8468,2.8468,2.8291,2.8291,2.8291,2.8291,2.8291,2.8291,3.7854,3.8202,3.8202,3.8202,0.0,0.0,0.0,0.0,0.0,0.0,0.0,0.0,0.0,4.3398,4.4008,0.0,0.0,4.5787,0.0,0.0,4.6131,4.5734,0.0,4.6495,4.6132,4.6665,4.7036,4.7036,4.7191,4.7309,4.7309,4.7309,4.7309,4.7309,4.7309,4.7309,4.7309,4.7309,4.7309,4.7309,4.7309,4.7309,4.7309,4.7309,4.7309,4.7309,0.0,4.7164,4.6975,4.6916,4.68,4.6661,4.6756,4.6712,4.6594,4.6528,4.6358,4.6165,4.597,4.5903,4.5903,4.5903,4.5903,4.5903,4.5903,4.5903,4.5903,4.5903,4.5903,4.5903,4.5903,4.5903,4.564,4.4559,4.4195,4.3545,4.1604,4.1082,4.0718,3.9865,3.9697,3.9371,3.8316,3.8065,3.7663,3.6658,3.6444,3.6405,3.6405,3.6405,3.6405,3.6405,3.6405,3.6204,3.5692,3.5668,3.458,3.2083,3.1931,3.0923,2.8654,2.926,2.9234,2.8318,2.9181,2.9217,2.8291,2.8291,2.8291,2.8291,2.8291,2.8291,3.7854,3.8463,3.8739,3.8739,0.0,0.0,0.0,0.0,0.0,0.0,0.0,0.0,0.0,0.0,4.4712,4.5351,0.0,4.6068,4.6068,4.6269,4.6344,0.0,0.0,4.6674,4.6487,4.6833,4.7084,4.7084,4.7207,4.7309,4.7309,4.7309,4.7309,4.7309,4.7309,4.7309,4.7309,4.7309,4.7309,4.7309,4.7309,4.7309,4.7309,4.7309,4.7309,4.7309,0.0,4.7229,4.7121,4.7121,4.7055,4.6968,4.6931,4.6844,4.6734,4.6469,4.6225,4.6023,4.5925,4.5903,4.5903,4.5903,4.5903,4.5903,4.5903,4.5903,4.5903,4.5903,4.5903,4.5903,4.5903,4.5903,4.564,4.4559,4.3876,4.3067,4.153,4.0769,4.0249,3.9788,3.9697,3.9333,3.8203,3.8002,3.7626,3.6545,3.6405,3.6405,3.6405,3.6405,3.6405,3.6405,3.6275,3.6027,3.5644,3.5476,3.4311,3.1753,3.0598,2.9497,2.8344,2.9339,2.967,2.9154,3.0261,3.0572,3.0089,3.0089,3.0089,3.0089,3.0089,2.9749,3.7897,3.8696,3.9233,0.0,0.0,0.0,0.0,0.0,0.0,0.0,0.0,0.0,0.0,4.4356,0.0,4.583,4.6038,4.6158,4.6188,4.6425,4.6616,4.6646,4.6727,4.6771,4.6771,4.6887,4.6997,4.6997,4.7186,4.7309,4.7309,4.7309,4.7309,4.7309,4.7309,4.7309,4.7309,4.7309,4.7309,4.7309,4.7309,4.7309,4.7309,4.7309,4.7309,4.7309,4.7474,4.7534,4.7549,4.7698,4.7736,4.767,4.7524,4.7288,4.7007,4.6469,4.6127,4.5903,4.5903,4.5903,4.5903,4.5903,4.5903,4.5903,4.5903,4.5903,4.5903,4.5903,4.5903,4.5903,4.5903,4.5708,4.527,4.4195,4.3163,4.2135,4.1082,4.0249,3.9697,3.9697,3.9697,3.9333,3.8203,3.8002,3.7626,3.6545,3.6405,3.6405,3.6405,3.6405,3.6405,3.6405,3.6169,3.5872,3.5524,3.4787,3.3573,3.1728,2.9523,2.8291,2.8291,2.9339,2.9896,2.9896,3.1011,3.1472,3.1191,3.1472,3.1447,3.1216,3.1472,3.1139,3.8028,3.8696,3.9334,3.99,0.0,0.0,0.0,0.0,0.0,0.0,0.0,0.0,0.0,4.5351,4.5845,4.5903,4.5903,4.5993,4.6165,0.0,4.6683,4.6866,4.7099,4.7244,4.7244,4.7251,4.7287,4.7287,4.7287,4.7309,4.7309,4.7309,4.7309,4.7309,4.7309,4.7309,4.7309,4.7309,4.7309,4.7309,4.7309,4.7309,4.7309,4.7309,4.7309,4.7339,4.7952,4.8244,4.8289,4.8902,4.8992,4.8796,4.9052,4.8477,4.7465,4.6815,4.6284,4.5903,4.5903,4.5903,4.5903,4.5903,4.5903,4.5903,4.5903,4.5903,4.5903,4.5903,4.5903,4.5903,4.5903,4.5164,4.4149,4.3139,4.2097,4.1032,4.0032,3.9736,3.9697,3.9697,3.9697,3.9333,3.8203,3.8002,3.7626,3.6545,3.6405,3.6405,3.6405,3.6405,3.6405,3.6405,3.6169,3.5788,3.5271,3.3151,3.1779,3.16,2.9523,2.8291,2.8291,2.9339,2.9896,2.9896,3.1011,3.1088,3.0026,3.1088,3.1062,3.0052,3.1114,3.1549,3.8551,3.9276,3.9915,4.0554,0.0,0.0,0.0,0.0,0.0,0.0,0.0,0.0,0.0,0.0,4.5903,4.5903,4.6001,4.6113,4.6188,4.6425,4.6668,4.6887,4.6997,4.7121,4.7287,4.7309,4.7309,4.7309,4.7309,4.7309,4.7309,4.7309,4.7309,4.7309,4.7309,4.7309,4.7309,4.7309,4.7309,4.7309,4.7309,4.7309,4.7309,4.7309,4.7534,4.7938,4.8199,4.8543,4.8932,4.9187,4.9232,4.9164,4.9269,4.8603,4.7583,4.731,4.6658,4.5903,4.5903,4.5903,4.5903,4.5903,4.5903,4.5903,4.5903,4.5903,4.5903,4.5903,4.5903,4.5903,4.5903,4.5095,4.4195,4.3805,4.2439,4.1107,4.0718,4.0147,3.9697,3.9697,3.9697,3.9333,3.8203,3.8002,3.7626,3.6545,3.6405,3.6405,3.6405,3.6405,3.6405,3.6405,3.6014,3.5271,3.4066,3.2513,3.1293,3.0598,2.9138,2.8291,2.8291,2.9339,2.9896,2.9896,3.1666,3.2387,3.1946,3.3039,3.3375,3.2964,3.34,3.3226,3.8971,3.9799,4.0525,0.0,0.0,0.0,0.0,0.0,0.0,0.0,0.0,0.0,0.0,0.0,0.0,0.0,4.6068,4.6232,4.6314,4.6535,4.6778,4.6997,4.7019,4.7099,4.7287,4.7309,4.7309,4.7309,4.7309,4.7309,4.7309,4.7309,4.7309,4.7309,4.7309,4.7309,4.7309,4.7309,4.7309,4.7309,4.7519,4.7623,4.7623,4.7623,4.7982,4.8633,4.8805,4.9149,4.9583,4.9816,4.9905,4.9868,4.959,4.8825,4.7878,4.7573,4.6818,4.5903,4.5903,4.5903,4.5903,4.5903,4.5903,4.5903,4.5903,4.5903,4.5903,4.5903,4.5903,4.5813,4.5489,4.4606,4.3829,4.3829,4.2244,4.0718,4.0718,4.0198,3.9697,3.9697,3.9697,3.9333,3.8203,3.8002,3.7626,3.6545,3.6405,3.6405,3.6405,3.6405,3.6346,3.6181,3.5824,3.4933,3.335,3.221,3.1114,2.9974,2.8873,2.8291,2.8291,2.9006,2.9723,3.0416,3.192,3.2864,3.3201,3.4274,3.4628,3.4299,3.4653,3.4397,3.9218,4.0133,4.1091,0.0,0.0,0.0,0.0,0.0,0.0,0.0,0.0,4.5903,4.5903,0.0,0.0,4.5903,4.6068,4.6314,4.6572,4.6778,4.6997,4.7287,4.7309,4.7309,4.7309,4.7309,4.7309,4.7309,4.7309,4.7309,4.7309,4.7309,4.7309,4.7309,4.7309,4.7309,4.7309,4.7309,4.7309,4.7339,4.7982,4.8319,4.8304,4.8319,4.8678,4.9337,4.9934,5.0196,5.0255,5.0922,5.1191,5.1107,5.0247,4.937,4.8498,4.7545,4.6651,4.5903,4.5903,4.5903,4.5903,4.5903,4.5903,4.5903,4.5903,4.5903,4.5903,4.5903,4.5903,4.5663,4.4582,4.3545,4.2792,4.2792,4.1196,3.9697,3.9697,3.9697,3.9697,3.9697,3.9697,3.9333,3.8203,3.8002,3.7626,3.6545,3.6405,3.6405,3.6405,3.6405,3.6192,3.5668,3.5596,3.4933,3.3325,3.2185,3.1088,2.9948,2.8883,2.8291,2.8291,2.8291,2.9323,3.1524,3.1575,3.2109,3.3176,3.4262,3.425,3.325,3.4299,3.4775,3.9712,3.9963,0.0,4.1528,0.0,0.0,0.0,0.0,0.0,0.0,4.575,4.5903,4.5903,0.0,0.0,4.609,4.6314,4.6558,4.6778,4.7019,4.7207,4.7287,4.7309,4.7309,4.7309,4.7309,4.7309,4.7309,4.7309,4.7309,4.7309,4.7309,4.7309,4.7309,4.7309,4.7534,4.7997,4.7997,4.8244,4.8708,4.8902,4.8768,4.8319,4.8783,4.9329,4.9934,5.0129,5.0473,5.0922,5.1116,5.1191,5.1152,5.0709,4.9741,4.8542,4.8081,4.7053,4.5903,4.5903,4.5903,4.5903,4.5903,4.5903,4.5903,4.5903,4.5903,4.5903,4.5903,4.5903,4.5663,4.4582,4.3545,4.2622,4.1864,4.0655,3.9697,3.9697,3.9697,3.9697,3.9697,3.9697,3.9333,3.8203,3.8002,3.7626,3.6545,3.6405,3.6405,3.6405,3.6405,3.6192,3.5668,3.4933,3.3821,3.221,3.1062,2.9932,2.883,2.8468,2.8291,2.8291,2.8291,2.8601,2.927,3.0815,3.1753,3.2083,3.3918,3.4653,3.4311,3.3882,3.4066,4.0222,4.0281,0.0,4.156,4.221,4.2953,4.4421,0.0,0.0,0.0,0.0,4.5903,4.5903,4.597,0.0,4.6165,4.6491,4.6756,4.6873,4.7142,4.7309,4.7309,4.7309,4.7309,4.7309,4.7309,4.7309,4.7309,4.7309,4.7309,4.7309,4.7309,4.7309,4.7309,4.7563,4.7878,4.8304,4.8558,4.8902,4.9292,4.9546,4.9449,4.9075,4.9464,5.0002,5.0607,5.0607,5.0832,5.1191,5.1191,5.1191,5.1167,5.0813,4.9825,4.8548,4.8193,4.7122,4.5903,4.5903,4.5903,4.5903,4.5903,4.5903,4.5903,4.5903,4.5903,4.5903,4.5903,4.5903,4.5557,4.4078,4.3235,4.2512,4.1468,4.044,3.9697,3.9697,3.9697,3.9697,3.9697,3.9697,3.9333,3.8203,3.8002,3.7626,3.6545,3.6405,3.6405,3.6405,3.6405,3.6026,3.5078,3.4397,3.3178,3.1114,3.0276,2.9434,2.8371,2.8291,2.8291,2.8291,2.8291,2.8495,2.8926,3.0245,3.1165,3.16,3.2901,3.3758,3.414,3.3076,3.3375,4.0593,4.0756,4.0706,4.1353,4.281,0.0,4.5627,4.5903,4.5903,4.5903,0.0,4.5903,4.5903,4.6046,4.6188,4.6232,4.6587,4.6887,4.6931,4.7142,4.7309,4.7309,4.7309,4.7309,4.7309,4.7309,4.7309,4.7309,4.7309,4.7309,4.7309,4.7309,4.7339,4.7399,4.7982,4.8364,4.8461,4.9082,4.9411,4.9471,5.0024,5.0285,5.0285,5.0285,5.0622,5.1191,5.1191,5.1191,5.1191,5.1191,5.1191,5.1144,5.0677,4.9713,4.8548,4.7992,4.6992,4.5903,4.5903,4.5903,4.5903,4.5903,4.5903,4.5903,4.5903,4.5903,4.5903,4.5903,4.5903,4.5421,4.3344,4.2792,4.2501,4.1344,4.0364,3.9697,3.9697,3.9697,3.9697,3.9697,3.9697,3.9346,3.8266,3.804,3.7626,3.6545,3.6405,3.6405,3.6405,3.6405,3.5786,3.4165,3.3907,3.2767,3.013,2.9817,2.9339,2.8371,2.8291,2.8291,2.8291,2.8291,2.8751,2.9749,2.9843,3.0416,3.1447,3.1549,3.2109,3.3026,3.1957,3.2538,4.0099,4.0076,0.0,4.1341,4.3168,4.493,4.5729,4.5903,4.5903,4.5903,4.5903,4.5903,4.5903,4.5948,4.6083,4.6447,4.6594,4.6793,4.7164,4.7251,4.7309,4.7309,4.7309,4.7309,4.7309,4.7309,4.7309,4.7309,4.7309,4.7309,4.7309,4.7309,4.7534,4.8079,4.8207,4.8775,4.9785,4.9934,5.0263,5.0795,5.0922,5.0981,5.0981,5.0981,5.1056,5.1191,5.1191,5.1191,5.1191,5.1191,5.1191,5.1144,5.0677,4.9713,4.8548,4.7992,4.6992,4.5903,4.5903,4.5903,4.5903,4.5903,4.5903,4.5903,4.5903,4.5903,4.5903,4.5903,4.5903,4.5421,4.3344,4.2792,4.233,4.0465,3.9865,3.9697,3.9697,3.9697,3.9697,3.9697,3.9697,3.9484,3.8831,3.8304,3.7626,3.6545,3.6405,3.6405,3.6405,3.6405,3.5786,3.4165,3.3191,3.1912,3.0052,2.9138,2.8548,2.8318,2.8291,2.8291,2.8291,2.8291,2.8398,2.8654,2.946,3.0026,3.0261,3.1165,3.1728,3.1906,3.0805,3.1,4.0775,4.0417,0.0,4.2052,0.0,4.4854,4.5703,4.5903,4.5903,4.5903,4.5903,4.5925,4.6038,4.615,4.6351,4.669,4.6858,4.7012,4.7266,4.7309,4.7309,4.7309,4.7309,4.7309,4.7309,4.7309,4.7309,4.7309,4.7309,4.7309,4.7309,4.7593,4.7938,4.8304,4.8895,4.9531,5.0181,5.0533,5.0847,5.1191,5.1191,5.1191,5.1191,5.1191,5.1191,5.1191,5.1191,5.1191,5.1191,5.1191,5.1191,5.1144,5.0677,4.9713,4.8548,4.7992,4.6992,4.5903,4.5903,4.5903,4.5903,4.5903,4.5903,4.5903,4.5903,4.5903,4.5903,4.5903,4.5535,4.4759,4.3201,4.2428,4.1642,4.0083,3.9697,3.9697,3.9697,3.9697,3.9697,3.9697,3.9697,3.9521,3.8994,3.8203,3.7436,3.6859,3.6557,3.6405,3.6405,3.6405,3.5583,3.3415,3.2644,3.1454,2.9313,2.8628,2.8291,2.8291,2.8291,2.8291,2.8291,2.8291,2.8291,2.8291,2.8857,2.9138,2.9138,2.9733,3.0287,3.0753,2.9644,3.001,4.1525,4.1144,4.0905,4.2819,4.3933,0.0,4.5685,4.5903,4.5903,4.5903,4.5925,4.6001,4.6165,4.6425,4.6683,4.6887,4.7084,4.7251,4.7287,4.7309,4.7309,4.7309,4.7309,4.7309,4.7309,4.7309,4.7309,4.7309,4.7309,4.7309,4.7309,4.7938,4.8364,4.8483,4.9591,5.0263,5.036,5.0922,5.1191,5.1191,5.1191,5.1191,5.1191,5.1191,5.1191,5.1191,5.1191,5.1191,5.1191,5.1191,5.1167,5.1097,5.0677,4.969,4.8479,4.7992,4.6992,4.5903,4.5903,4.5903,4.5903,4.5903,4.5903,4.5903,4.5903,4.5903,4.5903,4.5903,4.5118,4.4078,4.3057,4.1999,4.0957,3.9929,3.9697,3.9697,3.9697,3.9697,3.9697,3.9697,3.9697,3.9521,3.8994,3.8115,3.7436,3.7235,3.6821,3.6494,3.6417,3.6405,3.5343,3.2582,3.2306,3.1199,2.8521,2.8291,2.8291,2.8291,2.8291,2.8291,2.8291,2.8291,2.8291,2.8291,2.8291,2.8291,2.8291,2.8291,2.8751,2.9592,2.8698,2.927,4.0965,4.146,4.2279,0.0,4.4294,4.5708,0.0,0.0,4.5903,4.5903,4.6038,4.6165,4.6202,4.6425,4.6683,4.6887,4.6931,4.7019,4.7287,4.7309,4.7309,4.7309,4.7309,4.7309,4.7309,4.7309,4.7309,4.7309,4.7309,4.7309,4.7309,4.7938,4.8573,4.9142,4.983,5.0488,5.1056,5.1146,5.1191,5.1191,5.1191,5.1191,5.1191,5.1191,5.1191,5.1191,5.1191,5.1191,5.1191,5.1191,5.1058,5.0831,5.0581,4.9587,4.8216,4.7899,4.6992,4.5903,4.5903,4.5903,4.5903,4.5903,4.5903,4.5903,4.5903,4.5903,4.5903,4.5903,4.5118,4.4078,4.3057,4.1999,4.0957,3.9929,3.9697,3.9697,3.9697,3.9697,3.9697,3.9697,3.9697,3.9521,3.8994,3.8768,3.8341,3.7349,3.7148,3.6934,3.6468,3.6405,3.5343,3.2582,3.2306,3.1199,2.8521,2.8291,2.8291,2.8291,2.8291,2.8291,2.8291,2.8291,2.8291,2.8291,2.8291,2.8291,2.8291,2.8291,2.8371,2.8495,2.8371,2.8468,4.1692,4.2453,4.3391,4.3584,4.4782,4.5903,4.5903,4.5903,4.5903,4.5903,4.6172,4.6425,4.6425,4.6528,4.6727,4.7077,4.7121,4.7164,4.7287,4.7309,4.7309,4.7309,4.7309,4.7309,4.7309,4.7309,4.7309,4.7309,4.7309,4.7459,4.7833,4.8498,4.9157,4.9793,5.0428,5.0907,5.1191,5.1191,5.1191,5.1191,5.1191,5.1191,5.1191,5.1191,5.1191,5.1191,5.1191,5.1191,5.1191,5.1191,5.1035,5.0784,5.0581,4.9563,4.817,4.7899,4.6992,4.5903,4.5903,4.5903,4.5903,4.5903,4.5903,4.5903,4.5903,4.5903,4.5768,4.5164,4.4242,4.3211,4.217,4.1145,4.0249,3.9813,3.9697,3.9697,3.9697,3.9697,3.9697,3.9697,3.9697,3.9622,3.9396,3.9107,3.873,3.8228,3.7852,3.745,3.6921,3.6316,3.5014,3.2566,3.1749,3.0566,2.8468,2.8291,2.8291,2.8291,2.8291,2.8291,2.8291,2.8291,2.8291,2.8291,2.8291,2.8291,2.8291,2.8291,2.8291,2.8291,2.8291,2.8291,4.234,4.3194,4.4066,4.4248,4.5118,4.5903,4.5903,4.5903,4.5903,4.597,4.6247,4.6513,4.6646,4.6727,4.688,4.7244,4.7309,4.7309,4.7309,4.7309,4.7309,4.7309,4.7309,4.7309,4.7309,4.7309,4.7309,4.7309,4.7309,4.7593,4.8274,4.8932,4.9568,5.0166,5.0847,5.1191,5.1191,5.1191,5.1191,5.1191,5.1191,5.1191,5.1191,5.1191,5.1191,5.1191,5.1191,5.1191,5.1191,5.112,5.0988,5.0769,5.0318,4.9354,4.8155,4.7701,4.6861,4.5903,4.5903,4.5903,4.5903,4.5903,4.5903,4.5903,4.5903,4.5903,4.5685,4.4606,4.3569,4.2536,4.1493,4.0453,3.9697,3.9697,3.9697,3.9697,3.9697,3.9697,3.9697,3.9697,3.9697,3.9697,3.9697,3.9384,3.9057,3.8919,3.8529,3.8027,3.7462,3.6358,3.4817,3.2743,3.1417,3.0057,2.8441,2.8291,2.8291,2.8291,2.8291,2.8291,2.8291,2.8291,2.8291,2.8291,2.8291,2.8291,2.8291,2.8291,2.8291,2.8291,2.8291,2.8291,4.234,4.3194,4.4066,4.4248,4.5118,4.5903,4.5903,4.5903,4.5948,4.6158,4.6188,4.6366,4.6807,4.7084,4.7287,4.7309,4.7309,4.7309,4.7309,4.7309,4.7309,4.7309,4.7309,4.7309,4.7309,4.7309,4.7309,4.7309,4.7309,4.7593,4.8274,4.8932,4.9568,5.0166,5.0847,5.1191,5.1191,5.1191,5.1191,5.1191,5.1191,5.1191,5.1191,5.1191,5.1191,5.1191,5.1191,5.1191,5.1167,5.0941,5.0807,5.0701,4.9607,4.8764,4.8074,4.7183,4.6461,4.5903,4.5903,4.5903,4.5903,4.5903,4.5903,4.5903,4.5903,4.5903,4.5685,4.4606,4.3569,4.2536,4.1493,4.0453,3.9697,3.9697,3.9697,3.9697,3.9697,3.9697,3.9697,3.9697,3.9697,3.9697,3.9697,3.9672,3.9497,3.8982,3.8869,3.8642,3.804,3.6566,3.4959,3.3316,3.1675,3.0057,2.8441,2.8291,2.8291,2.8291,2.8291,2.8291,2.8291,2.8291,2.8291,2.8291,2.8291,2.8291,2.8291,2.8291,2.8291,2.8291,2.8291,2.8291,4.3185,4.3704,4.4197,4.5105,4.5617,4.5903,4.5903,4.5903,4.597,4.6158,4.6336,4.6558,4.6844,4.6975,4.7099,4.7287,4.7309,4.7309,4.7309,4.7309,4.7309,4.7309,4.7309,4.7309,4.7309,4.7309,4.7309,4.7309,4.7309,4.7773,4.8873,4.9157,4.9771,5.0802,5.1071,5.1191,5.1191,5.1191,5.1191,5.1191,5.1191,5.1191,5.1191,5.1191,5.1191,5.1191,5.1191,5.1191,5.1191,5.1097,5.0885,5.0517,4.9687,4.8782,4.785,4.7094,4.6409,4.5903,4.5903,4.5903,4.5903,4.5903,4.5903,4.5903,4.5903,4.5421,4.4652,4.363,4.2585,4.1543,4.0503,3.9981,3.9697,3.9697,3.9697,3.9697,3.9697,3.9697,3.9697,3.9697,3.9697,3.9697,3.9697,3.9697,3.9622,3.9433,3.9421,3.922,3.8655,3.6802,3.4999,3.3597,3.1626,2.9893,2.8667,2.8568,2.8488,2.8318,2.8291,2.8291,2.8291,2.8291,2.8291,2.8291,2.8291,2.8291,2.8291,2.8291,2.8291,2.8291,2.8291,2.8291,4.3645,0.0,0.0,4.5695,4.606,4.6105,4.6015,4.606,4.6172,4.6314,4.6535,4.6756,4.6997,4.7019,4.7084,4.7287,4.7309,4.7309,4.7309,4.7309,4.7309,4.7309,4.7309,4.7309,4.7309,4.7309,4.7309,4.7309,4.7309,4.7788,4.8902,4.9172,4.989,5.1146,5.1191,5.1191,5.1191,5.1191,5.1191,5.1191,5.1191,5.1191,5.1191,5.1191,5.1191,5.1191,5.1191,5.1191,5.1191,5.1097,5.0885,5.0502,4.9466,4.8606,4.782,4.6847,4.6243,4.5903,4.5903,4.5903,4.5903,4.5903,4.5903,4.5835,4.5467,4.4874,4.4031,4.2657,4.1752,4.0957,3.9955,3.9697,3.9697,3.9697,3.9697,3.9697,3.9697,3.9697,3.9697,3.9697,3.9697,3.9697,3.9697,3.9697,3.9697,3.9697,3.9697,3.9559,3.922,3.7006,3.5137,3.4201,3.1689,2.9756,2.8992,2.87,2.8488,2.8318,2.8291,2.8291,2.8291,2.8291,2.8291,2.8291,2.8291,2.8291,2.8291,2.8291,2.8291,2.8291,2.8291,2.8291,0.0,0.0,0.0,4.5903,4.6403,4.6528,4.6269,4.6403,4.6594,4.6616,4.6756,4.6975,4.7251,4.7309,4.7309,4.7309,4.7309,4.7309,4.7309,4.7309,4.7309,4.7309,4.7309,4.7309,4.7309,4.7309,4.7309,4.7309,4.7309,4.7593,4.8274,4.8947,4.9905,5.1146,5.1191,5.1191,5.1191,5.1191,5.1191,5.1191,5.1191,5.1191,5.1191,5.1191,5.1191,5.1191,5.1191,5.1191,5.1167,5.0917,5.0793,5.0573,4.8863,4.8193,4.7971,4.6473,4.5903,4.5903,4.5903,4.5903,4.5903,4.5903,4.5903,4.5685,4.4629,4.4289,4.3829,4.1777,4.1169,4.0932,3.9955,3.9697,3.9697,3.9697,3.9697,3.9697,3.9697,3.9697,3.9697,3.9697,3.9697,3.9697,3.9697,3.9697,3.9697,3.9697,3.9697,3.9697,3.9697,3.7233,3.5413,3.5135,3.1949,2.9735,2.9433,2.875,2.8318,2.8291,2.8291,2.8291,2.8291,2.8291,2.8291,2.8291,2.8291,2.8291,2.8291,2.8291,2.8291,2.8291,2.8291,2.8291,4.3761,0.0,0.0,0.0,0.0,0.0,4.6506,4.655,4.6639,4.68,4.6851,4.6975,4.7251,4.7309,4.7309,4.7309,4.7309,4.7309,4.7309,4.7309,4.7309,4.7309,4.7309,4.7309,4.7309,4.7309,4.7309,4.7309,4.7309,4.7593,4.8274,4.9359,5.0323,5.1161,5.1191,5.1191,5.1191,5.1191,5.1191,5.1191,5.1191,5.1191,5.1191,5.1191,5.1191,5.1191,5.1191,5.1191,5.1191,5.112,5.0587,4.9778,4.885,4.7947,4.7067,4.6208,4.5903,4.5903,4.5903,4.5903,4.5903,4.5903,4.5903,4.5685,4.4629,4.3782,4.2923,4.1593,4.0668,4.0057,3.9762,3.9697,3.9697,3.9697,3.9697,3.9697,3.9697,3.9697,3.9697,3.9697,3.9697,3.9697,3.9697,3.9697,3.9697,3.9697,3.9697,3.9697,3.9697,3.7541,3.5856,3.5436,3.2496,3.0356,2.9745,2.9002,2.8514,2.8318,2.8291,2.8291,2.8291,2.8291,2.8291,2.8291,2.8291,2.8291,2.8291,2.8291,2.8291,2.8291,2.8291,2.8291,0.0,0.0,0.0,0.0,0.0,0.0,4.6749,4.6815,4.6902,4.6909,4.6997,4.7121,4.7287,4.7309,4.7309,4.7309,4.7309,4.7309,4.7309,4.7309,4.7309,4.7309,4.7309,4.7309,4.7309,4.7309,4.7309,4.7309,4.7309,4.7593,4.8274,4.9269,5.0114,5.0772,5.1041,5.1191,5.1191,5.1191,5.1191,5.1191,5.1191,5.1191,5.1191,5.1191,5.1191,5.1191,5.1191,5.0994,5.0647,5.074,5.0353,4.9573,4.8573,4.7687,4.688,4.6158,4.5903,4.5903,4.5903,4.5903,4.5903,4.5903,4.5903,4.5617,4.4125,4.3259,4.2501,4.0982,4.0147,3.9697,3.9697,3.9697,3.9697,3.9697,3.9697,3.9697,3.9697,3.9697,3.9697,3.9697,3.9697,3.9697,3.9697,3.9697,3.953,3.9011,3.8959,3.879,3.8293,3.663,3.5279,3.4693,3.2281,3.0443,2.97,2.8975,2.8461,2.8318,2.8291,2.8291,2.8291,2.8291,2.8291,2.8291,2.8291,2.8291,2.8291,2.8291,2.8291,2.8291,2.8291,2.8291,0.0,0.0,0.0,0.0,0.0,0.0,4.6997,4.7142,4.7229,4.6997,4.7142,4.7309,4.7309,4.7309,4.7309,4.7309,4.7309,4.7309,4.7309,4.7309,4.7309,4.7309,4.7309,4.7309,4.7309,4.7309,4.7309,4.7309,4.7309,4.7593,4.8274,4.8858,4.9471,5.0084,5.0742,5.1086,5.1086,5.1161,5.1191,5.1191,5.1191,5.1191,5.1191,5.1191,5.1191,5.1191,5.1116,5.0641,4.9895,4.9931,4.9811,4.9467,4.8123,4.7388,4.6953,4.6189,4.5903,4.5903,4.5903,4.5903,4.5903,4.5903,4.5813,4.5353,4.3392,4.2719,4.2208,4.0249,3.9697,3.9697,3.9697,3.9697,3.9697,3.9697,3.9697,3.9697,3.9697,3.9697,3.9697,3.9697,3.9697,3.9697,3.9697,3.9697,3.9284,3.8082,3.7897,3.7474,3.636,3.5195,3.4211,3.3485,3.1654,3.0206,2.9473,2.8724,2.8291,2.8291,2.8291,2.8291,2.8291,2.8291,2.8291,2.8291,2.8291,2.8291,2.8291,2.8291,2.8291,2.8291,2.8291,2.8291,0.0,0.0,0.0,0.0,0.0,0.0,4.7229,4.7251,4.7287,4.7229,4.7251,4.7309,4.7309,4.7309,4.7309,4.7309,4.7309,4.7309,4.7309,4.7309,4.7309,4.7309,4.7309,4.7309,4.7309,4.7309,4.7309,4.7309,4.7309,4.7593,4.8274,4.8423,4.8798,4.9456,5.0069,5.0413,5.0413,5.0922,5.1191,5.1191,5.1191,5.1191,5.1191,5.1191,5.1191,5.1161,5.0637,5.02,4.9821,4.8774,4.8102,4.7709,4.7633,4.7018,4.6122,4.5946,4.5903,4.5903,4.5903,4.5903,4.5903,4.5903,4.5316,4.4396,4.3177,4.2208,4.1257,4.0032,3.9697,3.9697,3.9697,3.9697,3.9697,3.9697,3.9697,3.9697,3.9697,3.9697,3.9697,3.9697,3.9697,3.9697,3.9697,3.9697,3.9284,3.8082,3.7897,3.7474,3.636,3.5195,3.4211,3.3485,3.1654,3.0206,2.9473,2.8724,2.8291,2.8291,2.8291,2.8291,2.8291,2.8291,2.8291,2.8291,2.8291,2.8291,2.8291,2.8291,2.8291,2.8291,2.8291,2.8291,0.0,0.0,0.0,4.704,0.0,0.0,0.0,4.7309,4.7309,4.7309,4.7309,4.7309,4.7309,4.7309,4.7309,4.7309,4.7309,4.7309,4.7309,4.7309,4.7309,4.7309,4.7309,4.7309,4.7309,4.7309,4.7309,4.7309,4.7309,4.7459,4.7773,4.8124,4.8453,4.8783,4.9404,4.9748,4.9748,5.0383,5.0712,5.0712,5.1041,5.1191,5.1191,5.1191,5.1011,5.0682,5.0345,4.9639,4.8725,4.8134,4.7369,4.6572,4.6797,4.6547,4.6038,4.5948,4.5903,4.5903,4.5903,4.5903,4.5903,4.5903,4.5164,4.4125,4.3105,4.1692,4.0338,3.9839,3.9697,3.9697,3.9697,3.9697,3.9697,3.9697,3.9697,3.9697,3.9697,3.9697,3.9697,3.9697,3.9697,3.9697,3.9697,3.9206,3.8398,3.7233,3.6561,3.5745,3.4419,3.3769,3.3047,3.2138,3.0982,2.9958,2.9201,2.8643,2.8291,2.8291,2.8291,2.8291,2.8291,2.8291,2.8291,2.8291,2.8291,2.8291,2.8291,2.8291,2.8291,2.8291,2.8291,2.8408,0.0,0.0,0.0,0.0,0.0,4.7309,0.0,0.0,0.0,4.7309,4.7309,4.7309,4.7309,4.7309,4.7264,4.713,4.7219,4.7249,4.713,4.7219,4.7309,4.7309,4.7309,4.7309,4.7309,4.7309,4.7309,4.7309,4.7309,4.7309,4.7309,4.7803,4.8102,4.8102,4.8768,4.9097,4.9097,4.9718,5.0024,5.0024,5.0578,5.084,5.084,5.084,5.0533,5.0024,4.989,4.8983,4.7598,4.7629,4.6962,4.5925,4.6135,4.6165,4.6135,4.597,4.5903,4.5903,4.5903,4.5903,4.5858,4.5663,4.4736,4.3521,4.2525,4.102,3.9697,3.9697,3.9697,3.9697,3.9697,3.9697,3.9697,3.9697,3.9697,3.9697,3.9697,3.9697,3.9697,3.9697,3.9697,3.9697,3.9697,3.8712,3.7501,3.6375,3.5223,3.3976,3.2563,3.2334,3.1913,3.09,3.0322,2.9709,2.8955,2.8535,2.8291,2.8291,2.8291,2.8291,2.8291,2.8291,2.8291,2.8291,2.8291,2.8291,2.8291,2.8291,2.8291,2.8291,2.8325,2.8522,0.0,0.0,0.0,0.0,4.7309,0.0,0.0,0.0,4.7309,4.7309,0.0,4.7309,4.7309,0.0,0.0,4.651,4.6899,4.71,4.6495,4.6935,4.7309,4.7309,4.7309,4.7309,4.7309,4.7309,4.7309,4.7309,4.7309,4.7309,4.7309,4.7369,4.7414,4.7414,4.8057,4.8423,4.8423,4.9067,4.9396,4.9396,4.9471,4.9516,4.9516,4.9516,4.9471,4.9366,4.8783,4.8172,4.7568,4.6978,4.6409,4.5925,4.6135,4.609,4.5925,4.5903,4.5903,4.5903,4.5903,4.5903,4.573,4.4805,4.315,4.1369,4.0364,3.989,3.9697,3.9697,3.9697,3.9697,3.9697,3.9697,3.9697,3.9697,3.9697,3.9697,3.9697,3.9697,3.9697,3.9697,3.9697,3.9697,3.9697,3.8712,3.7501,3.6375,3.5223,3.4043,3.2812,3.2459,3.1989,3.1135,3.0424,2.9709,2.8955,2.8535,2.8291,2.8291,2.8291,2.8291,2.8291,2.8291,2.8291,2.8291,2.8291,2.8291,2.8291,2.8291,2.8291,2.8301,2.842,2.8496,0.0,0.0,0.0,0.0,0.0,0.0,4.7309,0.0,4.7309,0.0,0.0,0.0,0.0,0.0,0.0,0.0,4.713,4.7204,4.6914,4.713,4.7309,4.7309,4.7309,4.7309,4.7309,4.7309,4.7309,4.7309,4.7309,4.7309,4.7309,4.7309,4.7309,4.7309,4.7578,4.7713,4.7713,4.8394,4.8723,4.8723,4.9097,4.9292,4.9292,4.9292,4.9082,4.8708,4.8423,4.7814,4.7,4.6734,4.6328,4.5903,4.5993,4.597,4.5903,4.5903,4.5903,4.5903,4.5903,4.5489,4.4712,4.303,4.1925,4.1007,4.0006,3.9697,3.9697,3.9697,3.9697,3.9697,3.9697,3.9697,3.9697,3.9697,3.9697,3.9697,3.9697,3.9697,3.9697,3.9697,3.9697,3.9478,3.8764,3.7699,3.6765,3.6267,3.4625,3.3161,3.2287,3.2086,3.1756,3.1058,3.0461,3.0004,2.9678,2.9043,2.8662,2.8662,2.8428,2.8291,2.8291,2.8291,2.8291,2.8291,2.8291,2.8291,2.8291,2.8535,2.8581,2.841,2.8484,2.8776,4.6528,0.0,0.0,0.0,0.0,0.0,0.0,0.0,0.0,0.0,0.0,0.0,0.0,0.0,0.0,0.0,0.0,4.7249,4.7055,4.7189,4.7309,4.7309,4.7309,4.7309,4.7309,4.7309,4.7309,4.7309,4.7309,4.7309,4.7309,4.7309,4.7309,4.7309,4.7309,4.7309,4.7309,4.7773,4.8012,4.8027,4.8528,4.8753,4.8753,4.8753,4.8498,4.8012,4.8012,4.748,4.6594,4.6594,4.6328,4.5903,4.5903,4.5903,4.5903,4.5903,4.5903,4.5903,4.5903,4.5026,4.364,4.2121,4.1244,4.0642,3.9904,3.9697,3.9697,3.9697,3.9697,3.9697,3.9697,3.9697,3.9697,3.9697,3.9697,3.9697,3.9697,3.9697,3.9697,3.9697,3.9697,3.931,3.8108,3.6954,3.6049,3.5667,3.3948,3.2469,3.1884,3.1787,3.1595,3.1054,3.0526,3.0195,3.0195,2.9521,2.9053,2.8898,2.8525,2.8291,2.8291,2.8291,2.8291,2.8291,2.8291,2.8291,2.8291,2.8711,2.883,2.8662,2.8694,2.9011,0.0,0.0,0.0,4.7229,0.0,0.0,0.0,0.0,4.7309,0.0,0.0,0.0,0.0,0.0,0.0,0.0,0.0,0.0,0.0,4.6884,4.7309,4.7309,4.7309,4.7309,4.7309,4.7309,4.7309,4.7309,4.7309,4.7309,4.7309,4.7309,4.7309,4.7309,4.7309,4.7309,4.7309,4.7324,4.7339,4.7339,4.7354,4.7369,4.7369,4.7369,4.7354,4.7339,4.7339,4.7063,4.6594,4.6594,4.6328,4.5903,4.5903,4.5903,4.5903,4.5903,4.5903,4.5903,4.5903,4.455,4.284,4.2768,4.1395,3.9736,3.9723,3.9697,3.9697,3.9697,3.9697,3.9697,3.9697,3.9697,3.9697,3.9697,3.9697,3.9697,3.9697,3.9697,3.9697,3.9697,3.9697,3.931,3.8108,3.6954,3.5722,3.4291,3.3293,3.2469,3.1884,3.1787,3.1672,3.1325,3.0631,3.0195,3.0195,2.9823,2.9365,2.8918,2.8525,2.8291,2.8291,2.8291,2.8291,2.8291,2.8291,2.8291,2.8291,2.8711,2.8975,2.9094,2.9203,2.9105,0.0,0.0,4.6771,4.6975,0.0,0.0,0.0,0.0,0.0,0.0,0.0,0.0,0.0,0.0,0.0,0.0,0.0,0.0,0.0,4.7174,4.7309,4.7309,4.7309,4.7309,4.7309,4.7309,4.7309,4.7309,4.7309,4.7309,4.7309,4.7309,4.7309,4.7309,4.7309,4.7309,4.7309,4.7309,4.7309,4.7309,4.7309,4.7309,4.7309,4.7309,4.7309,4.7309,4.7309,4.7033,4.6594,4.6594,4.6328,4.5903,4.5903,4.5903,4.5903,4.5903,4.5903,4.5685,4.434,4.3392,4.2574,4.1196,4.0275,3.9697,3.9697,3.9697,3.9697,3.9697,3.9697,3.9697,3.9697,3.9697,3.9697,3.9697,3.9697,3.9697,3.9697,3.9697,3.9697,3.9697,3.9063,3.8135,3.698,3.5827,3.4819,3.4095,3.3112,3.2201,3.1556,3.1469,3.1363,3.1054,3.081,3.0654,3.0654,3.0244,2.9678,2.8937,2.8762,2.8584,2.8301,2.8291,2.8291,2.8291,2.8291,2.8428,2.8711,2.892,2.9104,2.9231,2.9379,2.9353,4.6291,4.6469,0.0,4.6953,4.704,0.0,4.7251,0.0,0.0,0.0,0.0,0.0,0.0,0.0,0.0,0.0,0.0,0.0,0.0,4.7309,4.7309,4.7309,4.7309,4.7309,4.7309,4.7309,4.7309,4.7309,4.7309,4.7309,4.7309,4.7309,4.7309,4.7309,4.7309,4.7309,4.7309,4.7309,4.7309,4.7309,4.7309,4.7309,4.7309,4.7309,4.7309,4.7309,4.7309,4.7033,4.6594,4.6594,4.6328,4.5903,4.5903,4.5903,4.5903,4.5903,4.5663,4.5155,4.3796,4.2851,4.2012,4.0655,3.9981,3.9697,3.9697,3.9697,3.9735,3.9936,3.9848,3.9735,3.9936,3.9835,3.9697,3.9697,3.9697,3.9697,3.9697,3.9697,3.9581,3.9141,3.8437,3.7394,3.587,3.4902,3.4078,3.3318,3.2685,3.2018,3.1247,3.1247,3.1189,3.0918,3.0889,3.0889,3.0889,3.0459,2.9893,2.9199,2.8976,2.873,2.831,2.8291,2.8291,2.8291,2.8291,2.8452,2.8771,2.8976,2.9126,2.9143,2.9371,2.9165]},{"header":{"parameterUnit":"m.s-1","parameterCategory":1,"la1":30.6,"la2":29.2853,"lo1":-89.7004,"lo2":-87.6739,"dy":0.0162,"dx":0.0183,"nx":112,"ny":82,"refTime":"2023-11-07T06:00:00:Z","depth":0,"parameterNumber":3,"parameterNumberName":"V-component_of_WINDS"},"data":[0.0,0.0,0.0,0.0,0.0,0.0,0.0,0.0,0.0,0.0,0.0,0.0,0.0,0.0,0.0,0.0,0.0,0.0,0.0,0.0,0.0,0.0,0.0,0.0,0.0,0.0,0.0,0.0,0.0,0.0,0.0,0.0,0.0,0.0,0.0,0.0,0.0,0.0,0.0,0.0,0.0,0.0,0.0,0.0,0.0,0.0,0.0,0.0,0.0,0.0,0.0,0.0,0.0,0.0,0.0,0.0,0.0,0.0,0.0,0.0,0.0,0.0,0.0,0.0,0.0,0.0,0.0,0.0,0.0,0.0,0.0,0.0,0.0,0.0,0.0,0.0,0.0,0.0,0.0,0.0,0.0,0.0,0.0,0.0,0.0,0.0,0.0,0.0,0.0,0.0,2.938,2.9438,2.965,2.9792,2.9792,2.9792,2.9792,2.9792,0.0,0.0,0.0,0.0,0.0,0.0,0.0,0.0,0.0,0.0,0.0,0.0,0.0,0.0,0.0,0.0,0.0,0.0,0.0,0.0,0.0,0.0,0.0,0.0,0.0,0.0,0.0,0.0,0.0,0.0,0.0,0.0,0.0,0.0,0.0,0.0,0.0,0.0,0.0,0.0,0.0,0.0,0.0,0.0,0.0,0.0,0.0,0.0,0.0,0.0,0.0,0.0,0.0,0.0,0.0,0.0,0.0,0.0,0.0,0.0,0.0,0.0,0.0,0.0,0.0,0.0,0.0,0.0,0.0,0.0,0.0,0.0,0.0,0.0,0.0,0.0,0.0,0.0,0.0,0.0,0.0,0.0,0.0,0.0,0.0,0.0,0.0,0.0,0.0,0.0,0.0,0.0,0.0,0.0,0.0,0.0,0.0,0.0,0.0,0.0,0.0,0.0,0.0,0.0,2.93,2.9702,2.9792,2.9792,2.9792,2.9792,2.9792,2.9792,0.0,0.0,0.0,0.0,0.0,0.0,0.0,0.0,0.0,0.0,0.0,0.0,0.0,0.0,0.0,0.0,0.0,0.0,0.0,0.0,0.0,0.0,0.0,0.0,0.0,0.0,0.0,0.0,0.0,0.0,0.0,0.0,0.0,0.0,0.0,0.0,0.0,0.0,0.0,0.0,0.0,0.0,0.0,0.0,0.0,0.0,0.0,0.0,0.0,0.0,0.0,0.0,0.0,0.0,0.0,0.0,0.0,0.0,0.0,0.0,0.0,0.0,0.0,0.0,0.0,0.0,0.0,0.0,0.0,0.0,0.0,0.0,0.0,0.0,0.0,0.0,0.0,0.0,0.0,0.0,0.0,0.0,0.0,0.0,0.0,0.0,0.0,0.0,0.0,0.0,0.0,0.0,0.0,0.0,0.0,0.0,0.0,0.0,0.0,0.0,0.0,0.0,0.0,2.9417,2.9566,2.9772,2.9792,2.9792,2.9792,2.9792,2.9792,2.9792,2.9792,0.0,0.0,0.0,0.0,0.0,0.0,0.0,0.0,0.0,0.0,0.0,0.0,0.0,0.0,0.0,0.0,0.0,0.0,0.0,0.0,0.0,0.0,0.0,0.0,0.0,0.0,0.0,0.0,0.0,0.0,0.0,0.0,0.0,0.0,0.0,0.0,0.0,0.0,0.0,0.0,0.0,0.0,0.0,0.0,0.0,0.0,0.0,0.0,0.0,0.0,0.0,0.0,0.0,0.0,0.0,0.0,0.0,0.0,0.0,0.0,0.0,0.0,0.0,0.0,0.0,0.0,0.0,0.0,0.0,0.0,0.0,0.0,0.0,0.0,0.0,0.0,0.0,0.0,0.0,0.0,0.0,0.0,0.0,0.0,0.0,0.0,0.0,0.0,0.0,0.0,0.0,0.0,0.0,0.0,0.0,0.0,0.0,0.0,0.0,0.0,0.0,0.0,2.9772,2.9792,2.9792,2.9792,2.9792,2.9792,2.9792,2.9792,2.9792,2.9792,0.0,0.0,0.0,0.0,0.0,0.0,0.0,0.0,0.0,0.0,0.0,0.0,0.0,0.0,0.0,0.0,0.0,0.0,0.0,0.0,0.0,0.0,0.0,0.0,0.0,0.0,0.0,0.0,0.0,0.0,0.0,0.0,0.0,0.0,0.0,0.0,0.0,0.0,0.0,0.0,0.0,0.0,0.0,0.0,0.0,0.0,0.0,0.0,0.0,0.0,0.0,0.0,0.0,0.0,0.0,0.0,0.0,0.0,0.0,0.0,0.0,0.0,0.0,0.0,0.0,0.0,0.0,0.0,0.0,0.0,0.0,0.0,0.0,0.0,0.0,0.0,0.0,0.0,0.0,0.0,0.0,0.0,0.0,0.0,0.0,0.0,0.0,0.0,0.0,0.0,0.0,0.0,0.0,0.0,0.0,0.0,0.0,0.0,0.0,0.0,0.0,0.0,2.965,2.9792,2.9792,2.9792,2.9792,2.9792,2.9792,2.9792,2.9792,2.9792,0.0,0.0,0.0,0.0,0.0,0.0,0.0,0.0,0.0,0.0,0.0,0.0,0.0,0.0,0.0,0.0,0.0,0.0,0.0,0.0,0.0,0.0,0.0,0.0,0.0,0.0,0.0,0.0,0.0,0.0,0.0,0.0,0.0,0.0,0.0,0.0,0.0,0.0,0.0,0.0,0.0,0.0,0.0,0.0,0.0,0.0,0.0,0.0,0.0,0.0,0.0,0.0,0.0,0.0,0.0,0.0,0.0,0.0,0.0,0.0,0.0,0.0,0.0,0.0,0.0,0.0,0.0,0.0,0.0,0.0,0.0,0.0,0.0,0.0,0.0,0.0,0.0,0.0,0.0,0.0,0.0,0.0,0.0,0.0,0.0,0.0,0.0,0.0,0.0,0.0,0.0,0.0,0.0,0.0,0.0,0.0,0.0,0.0,0.0,0.0,0.0,0.0,2.974,2.9792,0.0,2.9792,2.9792,2.9792,2.9792,2.9792,2.9792,0.0,0.0,0.0,0.0,0.0,0.0,0.0,0.0,0.0,0.0,0.0,0.0,0.0,0.0,0.0,0.0,0.0,0.0,0.0,0.0,0.0,0.0,0.0,0.0,0.0,0.0,0.0,0.0,0.0,0.0,0.0,0.0,0.0,0.0,0.0,0.0,0.0,0.0,0.0,0.0,0.0,0.0,0.0,0.0,0.0,0.0,0.0,0.0,0.0,0.0,0.0,0.0,0.0,0.0,0.0,0.0,0.0,0.0,0.0,0.0,0.0,0.0,0.0,0.0,0.0,0.0,0.0,0.0,0.0,0.0,0.0,0.0,0.0,0.0,0.0,0.0,0.0,0.0,0.0,0.0,0.0,0.0,0.0,0.0,0.0,0.0,0.0,0.0,0.0,0.0,0.0,0.0,0.0,0.0,0.0,0.0,0.0,0.0,0.0,0.0,0.0,0.0,2.9792,2.9792,2.9792,0.0,2.9792,2.9792,2.9792,2.9792,2.9792,2.9792,0.0,0.0,0.0,0.0,0.0,0.0,0.0,0.0,0.0,0.0,0.0,0.0,0.0,0.0,0.0,0.0,0.0,0.0,0.0,0.0,0.0,0.0,0.0,0.0,0.0,0.0,0.0,0.0,0.0,0.0,0.0,0.0,0.0,0.0,0.0,0.0,0.0,0.0,0.0,0.0,0.0,0.0,0.0,0.0,0.0,0.0,0.0,0.0,0.0,0.0,0.0,0.0,0.0,0.0,0.0,0.0,0.0,0.0,0.0,0.0,0.0,0.0,0.0,0.0,0.0,0.0,0.0,0.0,0.0,0.0,0.0,0.0,0.0,0.0,0.0,0.0,0.0,0.0,0.0,0.0,0.0,0.0,0.0,0.0,0.0,0.0,0.0,0.0,0.0,0.0,0.0,0.0,0.0,0.0,0.0,0.0,0.0,0.0,0.0,0.0,0.0,0.0,2.9792,2.9804,2.9804,2.9792,2.9804,2.9804,2.9792,2.9792,2.9792,0.0,0.0,0.0,0.0,0.0,0.0,0.0,0.0,0.0,0.0,0.0,0.0,0.0,0.0,0.0,0.0,0.0,0.0,0.0,0.0,0.0,0.0,0.0,0.0,0.0,0.0,0.0,0.0,0.0,0.0,0.0,0.0,0.0,0.0,0.0,0.0,0.0,0.0,0.0,0.0,0.0,0.0,0.0,0.0,0.0,0.0,0.0,0.0,0.0,0.0,0.0,0.0,0.0,0.0,0.0,0.0,0.0,0.0,0.0,0.0,0.0,0.0,0.0,0.0,0.0,0.0,0.0,0.0,0.0,0.0,0.0,0.0,0.0,0.0,0.0,0.0,0.0,0.0,0.0,0.0,0.0,0.0,0.0,0.0,0.0,0.0,0.0,0.0,0.0,0.0,0.0,0.0,0.0,0.0,0.0,0.0,0.0,0.0,0.0,0.0,0.0,0.0,0.0,2.9792,3.0131,3.0218,2.9829,3.0143,3.0218,2.9829,2.9934,2.9953,2.9811,0.0,0.0,0.0,0.0,0.0,0.0,0.0,0.0,0.0,0.0,0.0,0.0,0.0,0.0,0.0,0.0,0.0,0.0,0.0,0.0,0.0,0.0,0.0,0.0,0.0,0.0,0.0,0.0,0.0,0.0,0.0,0.0,0.0,0.0,0.0,0.0,0.0,0.0,0.0,0.0,0.0,0.0,0.0,0.0,0.0,0.0,0.0,0.0,0.0,0.0,0.0,0.0,0.0,0.0,0.0,0.0,0.0,0.0,0.0,0.0,0.0,0.0,0.0,0.0,0.0,0.0,0.0,0.0,0.0,0.0,0.0,0.0,0.0,0.0,0.0,0.0,0.0,0.0,0.0,0.0,0.0,0.0,0.0,0.0,0.0,0.0,0.0,0.0,0.0,0.0,0.0,0.0,0.0,0.0,0.0,0.0,0.0,0.0,0.0,0.0,0.0,0.0,3.0093,3.0387,3.057,3.0444,3.0733,3.0796,3.0477,3.0427,3.0379,3.0255,0.0,0.0,0.0,0.0,0.0,0.0,0.0,0.0,0.0,0.0,0.0,0.0,0.0,0.0,0.0,0.0,0.0,0.0,0.0,0.0,0.0,0.0,0.0,0.0,0.0,0.0,0.0,0.0,0.0,0.0,0.0,0.0,0.0,0.0,0.0,0.0,0.0,0.0,0.0,0.0,0.0,0.0,0.0,0.0,0.0,0.0,0.0,0.0,0.0,0.0,0.0,0.0,0.0,0.0,0.0,0.0,0.0,0.0,0.0,0.0,0.0,0.0,0.0,0.0,0.0,0.0,0.0,0.0,0.0,0.0,0.0,0.0,0.0,0.0,0.0,0.0,0.0,0.0,0.0,0.0,0.0,0.0,0.0,0.0,0.0,0.0,0.0,0.0,0.0,0.0,0.0,0.0,0.0,0.0,0.0,0.0,0.0,0.0,0.0,0.0,0.0,0.0,3.0538,3.0688,3.0922,3.1348,3.1436,3.1469,3.1439,3.1167,3.1008,3.1008,0.0,0.0,0.0,0.0,0.0,0.0,0.0,0.0,0.0,0.0,0.0,0.0,0.0,0.0,0.0,0.0,0.0,0.0,0.0,0.0,0.0,0.0,0.0,0.0,0.0,0.0,0.0,0.0,0.0,0.0,0.0,0.0,0.0,0.0,0.0,0.0,0.0,0.0,0.0,0.0,0.0,0.0,0.0,0.0,0.0,0.0,0.0,0.0,0.0,0.0,0.0,0.0,0.0,0.0,0.0,0.0,0.0,0.0,0.0,0.0,2.4652,0.0,0.0,0.0,0.0,0.0,0.0,0.0,0.0,0.0,0.0,0.0,0.0,0.0,0.0,0.0,0.0,0.0,0.0,0.0,0.0,0.0,0.0,0.0,0.0,0.0,0.0,0.0,0.0,0.0,0.0,0.0,0.0,0.0,0.0,0.0,0.0,0.0,0.0,0.0,0.0,0.0,3.0588,3.1348,3.175,3.1424,3.1775,3.1946,3.1721,3.1796,3.1833,3.1847,3.1656,0.0,0.0,0.0,0.0,0.0,0.0,0.0,0.0,0.0,0.0,0.0,0.0,0.0,0.0,0.0,0.0,0.0,0.0,0.0,0.0,0.0,0.0,0.0,0.0,0.0,0.0,0.0,0.0,0.0,0.0,0.0,0.0,0.0,0.0,0.0,0.0,0.0,0.0,0.0,0.0,0.0,0.0,0.0,0.0,0.0,0.0,0.0,0.0,0.0,0.0,0.0,0.0,0.0,0.0,0.0,0.0,0.0,0.0,0.0,0.0,2.4743,0.0,0.0,0.0,0.0,0.0,0.0,0.0,0.0,0.0,0.0,0.0,0.0,0.0,0.0,0.0,0.0,0.0,0.0,0.0,0.0,0.0,0.0,0.0,0.0,0.0,0.0,0.0,0.0,0.0,0.0,0.0,0.0,0.0,0.0,0.0,0.0,0.0,0.0,0.0,0.0,3.129,3.1876,3.2202,3.2223,3.2474,3.2621,3.2582,3.2513,3.2523,3.262,3.239,0.0,0.0,0.0,0.0,0.0,0.0,0.0,0.0,0.0,0.0,0.0,0.0,0.0,0.0,0.0,0.0,0.0,0.0,0.0,0.0,0.0,0.0,0.0,0.0,0.0,0.0,0.0,0.0,0.0,0.0,0.0,0.0,0.0,0.0,0.0,0.0,0.0,0.0,0.0,0.0,0.0,0.0,0.0,0.0,0.0,0.0,0.0,0.0,0.0,0.0,0.0,0.0,0.0,2.5897,2.5939,2.6022,2.5939,2.6029,2.6219,2.536,2.5295,2.5764,2.5037,0.0,0.0,0.0,0.0,0.0,0.0,0.0,0.0,0.0,0.0,0.0,0.0,0.0,0.0,0.0,0.0,0.0,0.0,0.0,0.0,0.0,0.0,0.0,0.0,3.595,3.5537,3.42,0.0,0.0,0.0,0.0,0.0,0.0,0.0,0.0,0.0,0.0,0.0,3.2164,3.2344,3.2583,3.3052,3.3133,3.324,3.3441,3.3245,3.3183,3.341,3.3196,3.3356,0.0,0.0,0.0,0.0,0.0,0.0,0.0,0.0,0.0,0.0,0.0,0.0,0.0,0.0,0.0,0.0,0.0,0.0,0.0,0.0,0.0,0.0,0.0,0.0,0.0,0.0,0.0,0.0,0.0,0.0,0.0,0.0,2.8613,2.9358,0.0,0.0,0.0,0.0,0.0,0.0,0.0,0.0,0.0,0.0,0.0,0.0,0.0,2.7926,2.7118,2.7183,2.6761,2.5897,2.5897,2.6115,2.6488,2.6084,2.6581,2.7692,2.716,0.0,2.5868,2.5766,0.0,0.0,0.0,0.0,0.0,0.0,0.0,0.0,0.0,0.0,0.0,0.0,0.0,0.0,0.0,0.0,0.0,0.0,0.0,0.0,0.0,0.0,3.6829,3.8267,3.8206,3.7562,0.0,3.5115,3.3674,3.2805,3.2265,0.0,0.0,0.0,0.0,0.0,0.0,0.0,3.2528,3.2938,3.3216,3.3111,3.3261,3.3441,3.3641,3.383,3.4035,3.423,3.4426,3.4567,3.4685,3.491,0.0,0.0,0.0,0.0,0.0,0.0,0.0,0.0,0.0,0.0,0.0,0.0,0.0,0.0,0.0,0.0,0.0,0.0,0.0,0.0,0.0,0.0,0.0,0.0,0.0,0.0,0.0,0.0,0.0,2.8961,2.9378,2.9753,2.9111,2.8435,0.0,0.0,0.0,0.0,0.0,0.0,0.0,0.0,0.0,2.7951,2.8197,2.7899,2.6965,2.7744,2.7645,2.6685,2.6685,2.6788,2.6998,2.6768,2.7011,2.7622,2.795,2.7954,2.7706,2.7712,2.7993,2.8372,0.0,0.0,0.0,0.0,2.991,3.0738,3.1316,3.1454,3.1331,3.1087,0.0,0.0,0.0,0.0,0.0,0.0,0.0,0.0,0.0,0.0,3.7773,3.8976,3.9083,3.8649,3.782,3.6625,3.5199,0.0,3.281,3.2398,3.1889,0.0,0.0,0.0,0.0,3.2537,3.2992,3.3246,3.3377,3.3283,3.3462,3.3662,3.3894,3.4034,3.4202,3.4397,3.452,3.4996,3.5939,3.5726,3.6112,0.0,0.0,0.0,0.0,0.0,0.0,0.0,0.0,0.0,0.0,0.0,0.0,0.0,0.0,0.0,0.0,0.0,0.0,0.0,0.0,0.0,0.0,0.0,0.0,0.0,0.0,0.0,0.0,2.9792,2.9792,2.9792,2.9729,2.9419,0.0,0.0,0.0,0.0,0.0,0.0,2.9619,2.8567,2.8065,2.8376,2.8522,2.811,2.7153,2.8297,2.834,2.7309,2.74,2.7389,2.7309,2.7309,2.7418,2.7702,2.8409,2.913,2.9818,2.9562,2.9863,3.0438,2.9879,3.0203,3.098,3.0894,3.1442,3.2207,3.24,3.238,3.221,3.1902,3.1805,3.1889,3.2318,0.0,0.0,0.0,0.0,3.6104,3.7057,3.7759,3.8401,3.921,3.9406,3.9119,3.8079,3.7314,3.6247,0.0,3.3573,3.3093,3.2498,0.0,0.0,0.0,0.0,3.2895,3.3505,3.3526,3.3462,3.342,3.3577,3.3789,3.3992,3.4118,3.4243,3.4397,3.4613,3.5372,3.6841,3.6631,3.7195,3.8667,0.0,0.0,0.0,0.0,0.0,0.0,0.0,0.0,0.0,0.0,0.0,0.0,0.0,0.0,0.0,0.0,0.0,0.0,0.0,0.0,0.0,0.0,0.0,0.0,0.0,0.0,0.0,0.0,0.0,2.9792,2.9513,0.0,0.0,0.0,0.0,2.9927,2.9239,2.9707,3.1917,3.0349,3.0016,3.1352,3.0552,2.9613,2.8598,2.9101,2.8672,2.7286,2.7686,2.7665,2.7309,2.7309,2.7786,2.8631,2.8678,2.9897,3.1779,3.083,3.0582,3.0735,3.0329,3.0704,3.1434,3.1183,3.1645,3.24,3.2619,3.2679,3.2666,3.2659,3.302,3.3663,3.4711,3.4928,0.0,0.0,3.6582,3.7346,3.7984,3.8727,3.9319,3.9388,3.9406,3.8943,3.7319,3.6783,3.6411,0.0,3.491,3.4241,3.4019,0.0,3.3977,3.4024,3.4016,3.4029,3.4055,3.3831,3.362,3.342,3.3577,3.3725,3.3725,3.4126,3.4397,3.4397,3.5175,3.6022,3.6861,3.7658,3.8275,3.8684,3.8672,0.0,0.0,0.0,0.0,0.0,0.0,0.0,0.0,0.0,0.0,0.0,0.0,0.0,0.0,0.0,0.0,0.0,0.0,0.0,0.0,0.0,0.0,0.0,0.0,0.0,0.0,0.0,0.0,3.0319,3.051,0.0,3.0658,3.054,3.0747,3.1397,3.1157,3.1508,3.2721,3.1554,3.1233,3.2094,3.1802,3.1319,3.0688,3.0833,3.031,2.915,2.8621,2.8286,2.8156,2.8846,2.9428,2.9991,3.1298,3.2485,3.3561,3.3804,3.3511,3.2925,3.2916,3.3085,3.3346,3.3266,3.3421,3.3694,3.3776,3.3783,3.3833,3.4,3.4267,3.4817,3.6157,3.6834,3.7305,3.8015,3.8439,3.8699,3.8917,3.9192,3.9406,3.9406,3.9406,3.9247,3.8638,3.762,3.6724,3.6503,3.5251,3.4181,3.4118,3.4097,3.4097,3.4097,3.3937,3.3894,3.4076,3.4013,3.3915,3.3865,3.4021,3.4134,3.4134,3.4314,3.4397,3.4397,3.5216,3.6062,3.6875,3.7829,3.8704,3.9524,3.9666,3.9701,0.0,0.0,0.0,0.0,0.0,0.0,0.0,0.0,0.0,0.0,0.0,0.0,0.0,0.0,0.0,0.0,0.0,0.0,0.0,0.0,0.0,0.0,0.0,0.0,0.0,0.0,3.0663,3.0859,3.1348,3.1675,3.1675,3.1838,3.2114,3.2478,3.2503,3.2754,3.3341,3.2411,3.214,3.2703,3.2361,3.1903,3.1281,3.1355,3.0822,2.9655,2.9103,2.8928,2.9158,2.9889,3.0548,3.1222,3.2547,3.3602,3.4447,3.5067,3.5006,3.4521,3.4635,3.458,3.4397,3.4397,3.4397,3.4397,3.4397,3.4397,3.4477,3.4962,3.5386,3.5939,3.722,3.8133,3.8841,3.9272,3.9406,3.9451,3.9675,3.9735,3.978,4.0004,4.0083,3.9902,3.9333,3.8184,3.7066,3.6464,3.5193,3.4202,3.4202,3.4202,3.4202,3.4202,3.4042,3.4,3.4181,3.4139,3.4097,3.4097,3.4222,3.4293,3.4293,3.4356,3.4543,3.4819,3.5386,3.6195,3.7295,3.7979,3.8756,3.9659,3.989,4.0309,4.0836,0.0,0.0,0.0,0.0,0.0,0.0,0.0,0.0,0.0,0.0,0.0,0.0,0.0,0.0,0.0,0.0,0.0,0.0,0.0,0.0,0.0,0.0,0.0,3.0613,3.0638,3.0839,3.1348,3.1901,3.224,3.224,3.2776,3.3102,3.3128,3.3128,3.3366,3.3897,3.2993,3.2738,3.3339,3.243,3.1434,3.0398,3.0784,3.0224,2.8759,2.914,2.9619,3.019,3.0239,3.0979,3.2265,3.2312,3.3166,3.4497,3.4497,3.4844,3.5351,3.5312,3.4933,3.4397,3.4397,3.4397,3.4397,3.4397,3.4397,3.453,3.5426,3.6241,3.7069,3.7929,3.8789,3.9436,3.9436,3.9451,3.9616,4.0262,4.0408,4.0573,4.1254,4.1365,4.0863,3.9203,3.8339,3.7375,3.5677,3.485,3.441,3.4397,3.4397,3.4397,3.4397,3.4384,0.0,3.4397,3.423,3.4084,3.4118,3.4118,3.4118,3.4118,3.4293,3.4778,3.5649,3.5716,3.6472,3.8127,3.824,3.8517,3.9037,3.9401,4.0202,4.1509,0.0,0.0,0.0,0.0,0.0,0.0,0.0,0.0,0.0,0.0,0.0,0.0,0.0,0.0,0.0,0.0,0.0,0.0,0.0,0.0,0.0,0.0,3.1173,3.1173,3.1524,3.1805,3.1955,3.2491,3.2842,3.2842,3.3002,3.3266,3.3646,3.3671,3.3909,3.4439,3.4227,3.4318,3.4887,3.4621,3.4559,3.4689,3.3272,3.2343,3.192,3.0489,2.9891,3.008,3.1243,3.2383,3.3499,3.4664,3.5845,3.6935,3.6935,3.678,3.6449,3.5626,3.4933,3.4397,3.4397,3.4397,3.4397,3.4397,3.4397,3.453,3.5426,3.6241,3.7069,3.7929,3.9099,4.0127,4.0127,4.0472,4.0894,4.1089,4.0615,4.0323,4.1192,4.0364,3.941,3.963,3.8555,3.7261,3.6348,3.5574,3.4907,3.4476,3.4397,3.4397,3.4397,3.4071,0.0,3.4345,3.4016,3.3884,3.4275,3.4314,3.4314,3.4314,3.4377,3.4778,3.5649,3.6241,3.7063,3.815,3.905,3.9695,4.0073,4.0674,4.1137,0.0,0.0,0.0,0.0,0.0,0.0,0.0,0.0,0.0,0.0,0.0,0.0,0.0,0.0,0.0,0.0,0.0,0.0,0.0,0.0,0.0,0.0,3.1738,3.1901,3.2378,3.2516,3.2654,3.2893,3.342,3.3771,3.3771,3.3771,3.3897,3.4223,3.4248,3.4465,3.5017,3.5042,3.5293,3.5845,3.5893,3.582,3.5739,3.4483,3.3413,3.2513,3.1264,3.0795,3.1028,3.1953,3.3327,3.4957,3.5892,3.6909,3.79,3.79,3.7547,0.0,0.0,0.0,0.0,0.0,3.4397,3.4397,3.4397,3.4397,3.4541,3.5297,3.6339,3.7462,3.8214,3.9554,4.0816,4.0816,4.1104,4.1463,4.1747,4.1126,4.0638,4.1445,4.0515,3.948,3.9632,3.8691,3.7609,3.6839,3.6128,0.0,3.4881,3.4567,3.4397,3.4397,3.4123,3.4045,3.4358,3.4123,3.3966,3.4058,3.4267,3.4306,3.4071,3.4605,0.0,0.0,0.0,3.7862,3.8797,3.9301,0.0,0.0,0.0,4.1355,4.1933,0.0,0.0,0.0,4.3453,4.3828,0.0,0.0,0.0,0.0,0.0,0.0,0.0,0.0,0.0,0.0,0.0,0.0,0.0,0.0,0.0,0.0,3.2382,3.278,3.3847,3.3621,3.3508,3.3935,3.4402,3.4703,3.4703,3.4703,3.4728,3.4791,3.4791,3.5029,3.5558,0.0,0.0,0.0,0.0,3.5942,3.4981,3.4848,3.3834,3.1957,3.183,3.2044,3.2535,3.2611,3.3945,3.626,3.632,3.6932,3.79,3.79,3.7547,3.6946,3.6345,3.5809,3.5325,3.4789,3.458,3.458,3.458,0.0,0.0,3.5221,3.6486,3.794,3.8486,3.9921,4.1341,4.1341,4.1477,4.1743,4.2234,4.1665,4.1096,4.1701,4.1064,4.0073,3.9351,3.8751,3.8093,3.7168,3.6567,3.6031,3.5482,3.4894,3.4476,3.441,3.4345,3.4332,3.4384,3.4345,3.4149,3.3731,0.0,0.0,3.3731,3.4935,3.6042,3.6841,3.7801,3.876,3.9696,3.9332,3.9493,4.0314,4.0597,4.131,4.2505,4.334,4.4075,4.4705,4.4046,4.4457,0.0,0.0,0.0,0.0,0.0,0.0,0.0,0.0,0.0,0.0,0.0,0.0,0.0,0.0,0.0,3.3429,3.3571,3.3809,3.4439,3.4828,3.4916,3.4577,3.464,3.4703,3.4703,3.4703,3.4879,3.5307,3.5345,3.5606,3.6193,3.623,3.6281,3.6405,3.6405,3.631,3.6085,3.5223,3.4581,3.4178,0.0,0.0,3.3378,3.3834,3.4727,3.601,3.6438,3.7108,3.79,3.79,3.7547,3.6946,3.6345,3.6044,3.5926,3.5809,3.577,3.577,3.577,3.577,3.5796,3.5913,3.6639,3.7514,3.7644,3.9272,0.0,4.1093,4.1972,4.2793,4.2236,4.1395,4.0704,4.0852,3.9612,3.8575,3.9091,3.8581,3.78,3.7125,3.692,3.6645,3.6057,3.5482,3.4959,3.4463,3.4031,3.3901,3.4345,3.4018,3.3875,3.4201,3.4332,3.4358,3.4254,3.5149,3.6042,3.6841,3.8341,3.9391,3.9925,3.9857,4.0017,4.0455,4.1546,4.2234,4.2505,4.4367,4.5351,4.5483,4.5337,4.5436,0.0,0.0,0.0,0.0,0.0,0.0,0.0,0.0,0.0,0.0,0.0,3.2583,0.0,0.0,3.3696,3.3994,3.4313,3.4647,3.5029,3.532,3.5395,3.5119,3.5378,3.5542,3.5542,3.5542,3.5655,3.5931,3.5956,3.6069,3.6392,3.6405,3.6256,3.5968,3.5956,3.5818,3.5542,3.5006,3.4466,3.3958,3.3718,3.3593,3.357,3.4133,3.5102,3.6318,3.6579,3.7168,3.79,3.79,3.773,3.7429,3.7116,3.6632,3.6109,3.6109,3.6109,3.6109,3.6109,3.6109,3.6162,3.6449,3.7156,3.7954,3.8217,3.9796,4.1491,4.1491,4.2064,4.2638,4.2638,4.1281,4.0029,4.0482,3.922,3.8024,3.8449,3.8217,3.7808,3.7521,3.7456,3.726,3.6658,3.6332,3.5953,3.5338,3.5012,3.4946,3.5221,3.5012,3.4842,3.4842,3.509,3.5202,3.5065,3.6215,3.729,3.8088,3.8943,3.9586,3.9978,4.0011,4.0331,4.099,4.1997,4.2855,4.3588,4.5016,4.5918,4.636,4.6733,4.6903,0.0,0.0,0.0,0.0,0.0,0.0,0.0,0.0,3.2737,3.3055,3.3158,3.3338,3.379,3.4298,3.4639,3.4603,3.5013,3.5453,3.5768,3.5774,3.5728,3.5728,3.6141,3.6405,3.6405,3.6405,3.6405,3.6405,3.6281,3.623,3.623,3.613,3.5843,3.5357,3.5345,3.5132,3.4703,3.4703,3.428,3.3488,3.3984,3.412,3.3967,3.4558,3.553,3.6743,3.6894,3.7307,3.79,3.79,3.79,3.79,3.79,3.7312,3.6449,3.6449,3.6449,3.6449,3.6449,3.6449,3.6541,3.7024,3.7692,3.8378,3.8822,4.013,4.1463,4.1463,4.1603,4.1852,4.2365,4.0852,3.9365,3.9948,3.8953,3.79,3.79,3.79,3.79,3.79,3.79,3.7756,3.726,3.7168,3.6933,3.6214,3.6109,3.6109,3.6109,3.6109,3.5926,3.5495,3.5848,3.6135,3.6293,3.7698,3.8846,3.9546,3.9586,3.9721,3.9993,4.0137,4.0612,4.1476,4.2284,4.3361,4.4703,4.5515,4.6353,4.7182,4.7986,4.8303,3.1005,3.1352,3.1706,3.1667,3.2117,3.2698,0.0,0.0,3.3571,3.3889,3.4118,3.43,3.4478,3.4697,3.5136,3.5939,3.6112,3.6355,3.6849,3.6726,3.6573,3.6573,3.6485,3.6405,3.6405,3.6405,3.6405,3.6405,3.5906,3.5596,3.5596,3.5155,3.4853,3.4791,3.4791,3.4766,3.4703,3.4703,3.4771,3.4883,3.4946,3.5174,3.5558,3.6119,3.658,3.6994,3.7528,3.7831,3.79,3.79,3.79,3.79,3.79,3.7821,3.7704,3.7704,3.7704,3.7704,3.7704,3.7704,3.7717,3.7782,3.7864,3.7968,3.8034,3.8729,3.9505,3.9505,4.0116,4.0603,3.9855,3.9439,3.9024,3.8362,3.8047,3.79,3.79,3.79,3.79,3.79,3.79,3.7887,3.7808,3.7808,3.7416,3.6279,3.6109,3.6109,3.6109,3.6109,3.6083,3.6018,3.607,3.6732,3.8321,3.9335,4.0011,4.0267,4.0292,4.0202,4.0008,4.0562,4.1092,4.1492,4.2738,4.3818,4.4703,4.6034,4.7071,4.7815,4.886,4.8995,3.1373,3.1628,3.1876,0.0,3.2777,3.3287,3.3535,3.3835,3.4102,3.4254,3.4622,3.4935,3.499,3.5617,3.6215,0.0,3.6773,3.7014,3.7106,3.7015,3.6862,3.6722,3.6628,3.6534,3.6405,3.6069,3.5893,3.5893,3.5355,3.5019,3.5019,3.4828,3.4552,3.4226,3.4226,3.4085,3.3771,3.4218,3.4528,3.4651,3.542,3.5974,3.635,3.6884,3.728,3.7547,3.7795,3.79,3.79,3.79,3.79,3.79,3.79,3.79,3.79,3.79,3.79,3.79,3.79,3.79,3.79,3.79,3.79,3.79,3.79,3.8517,3.921,3.921,3.9483,3.9812,3.9964,3.9224,3.8472,3.8616,3.8272,3.79,3.79,3.79,3.79,3.79,3.79,3.79,3.79,3.79,3.773,3.722,3.7155,3.7155,3.7155,3.7155,3.7353,3.7842,3.8044,3.8657,3.9967,4.0568,4.0878,4.098,4.0606,4.0443,4.057,4.0478,4.116,4.2751,4.3326,4.4601,4.6566,4.7142,4.7847,4.8666,4.9124,4.9255,3.1693,3.2045,3.2404,3.2842,3.3378,3.3809,3.3809,3.4123,3.4397,3.4397,3.4881,3.5338,3.5495,3.6332,3.6983,3.6959,3.7325,3.7528,3.7353,3.7178,3.7038,3.6839,3.6535,3.637,3.6392,3.5845,3.5433,3.5282,3.4778,3.454,3.469,3.4552,3.4364,3.4135,3.4251,3.4205,3.389,3.4622,3.5057,3.5203,3.6177,3.6757,3.7059,3.7595,3.8015,3.837,3.837,3.8279,3.8122,3.8122,3.8031,3.79,3.79,3.79,3.79,3.79,3.79,3.79,3.79,3.79,3.79,3.79,3.79,3.79,3.79,3.8327,3.8863,3.9024,3.8957,3.9033,3.9856,3.8984,3.807,3.8693,3.8349,3.79,3.79,3.79,3.79,3.79,3.79,3.79,3.79,3.79,3.79,3.79,3.79,3.79,3.79,3.8103,3.8607,3.9497,3.9984,4.0542,4.1227,4.1676,4.1848,4.1688,4.1261,4.1118,4.1268,4.1036,4.1871,4.3929,4.4154,4.5457,4.7904,4.7904,4.8337,4.9138,4.9184,4.9335,3.1797,3.2653,3.3548,3.3561,3.3966,3.4371,3.4371,3.4384,3.4397,3.4397,3.4881,3.5456,3.5979,3.6593,3.7194,3.7782,3.7877,3.7877,3.7877,3.7436,3.7108,3.7085,3.6172,3.5757,0.0,3.5845,3.527,3.4766,3.4236,3.4161,3.4678,3.4211,3.4161,3.4653,3.5169,3.5607,3.5915,3.6451,3.6938,3.7399,3.7438,3.7592,3.7877,3.8412,3.8974,3.956,3.956,3.922,3.8684,3.8684,3.8383,3.79,3.79,3.79,3.79,3.79,3.79,3.79,3.79,3.79,3.79,3.79,3.79,3.79,3.79,3.7923,3.805,3.8574,3.8351,3.8064,3.861,3.8338,3.79,3.7923,3.7923,3.79,3.79,3.79,3.79,3.79,3.79,3.79,3.79,3.79,3.79,3.79,3.79,3.79,3.79,3.8639,3.9519,4.0461,4.1386,4.1941,4.1961,4.2735,4.298,4.241,4.252,4.2444,4.1999,4.2753,4.3668,4.4642,4.532,4.6392,4.7904,4.7904,4.8276,4.9001,4.9138,4.9214,3.277,3.3287,3.3679,3.4031,3.4267,3.4397,3.4397,3.4397,3.4397,3.4397,3.5155,3.5887,3.607,3.692,3.7665,3.7874,3.79,3.79,3.79,3.7726,3.7505,3.7132,3.6779,0.0,0.0,0.0,0.0,3.5207,3.4728,3.4502,3.469,3.4879,3.5031,3.5219,3.5793,3.6235,3.6527,3.7228,3.7769,3.8096,3.8639,3.894,3.9037,3.922,3.9416,3.9612,3.9612,3.9494,3.9311,3.9311,3.9194,3.9037,3.9037,3.9037,3.9037,3.9037,3.9037,3.8932,3.8161,3.8135,3.8436,3.8436,3.871,3.9037,3.9037,3.9037,3.9076,3.9259,3.9181,3.8985,3.8762,3.8579,3.8344,3.7991,3.79,3.79,3.79,3.79,3.79,3.79,3.8372,3.8571,3.8015,3.8372,3.8747,3.8747,3.8747,3.8747,3.8747,3.9563,4.0482,4.1421,4.1811,4.2217,4.28,4.313,4.322,4.2995,4.2689,4.2537,4.2667,4.2991,4.3886,4.5403,4.6124,4.7188,4.8631,4.8631,4.8749,4.9001,4.9048,4.9107,3.3326,3.3731,3.3966,3.4306,3.4397,3.4397,3.4397,3.4397,3.4397,3.4397,3.5312,3.6109,3.6109,3.709,3.79,3.79,3.79,3.79,3.79,3.7831,3.7634,3.7284,3.6906,3.6482,0.0,0.0,0.0,3.5194,3.5056,3.5079,3.5303,3.583,3.6243,3.6515,3.7117,3.7599,3.7983,3.8691,3.9168,3.9434,3.9957,4.0226,4.0226,4.0226,4.0226,4.0226,4.0226,4.0095,3.9899,3.9899,3.9782,3.9612,3.9612,3.9612,3.9612,3.9612,3.9612,3.9507,3.8762,3.8736,3.9013,3.9013,3.9274,3.9612,3.9612,3.9612,3.9651,3.9823,3.9756,3.9536,3.9364,3.9181,3.8893,3.8331,3.8187,3.8135,3.7952,3.79,3.79,3.79,3.8349,3.8549,3.8015,3.8616,3.9307,3.9659,3.9986,4.0202,4.0202,4.0731,4.1442,4.2374,4.2456,4.2679,4.325,4.329,4.329,4.329,4.3078,4.3085,4.335,4.3795,4.47,4.6131,4.6881,4.7838,4.9001,4.9001,4.9001,4.9001,4.9001,4.9048,3.349,3.4005,3.4397,3.4397,3.4397,3.4397,3.4397,3.4397,3.4397,3.4397,3.5286,3.607,0.0,0.0,3.7861,3.79,3.79,3.79,3.79,3.768,3.7505,0.0,0.0,0.0,0.0,0.0,0.0,3.4904,0.0,3.5845,3.6444,3.6997,3.7634,3.8398,3.903,3.9597,4.0105,4.0636,4.1047,4.1286,4.1286,4.1286,4.1286,4.1286,4.1286,4.1286,4.1286,4.0972,4.0437,4.0437,4.0161,3.9703,3.9703,3.9703,3.9703,3.9703,3.9703,3.9703,3.9703,3.9677,3.9627,3.9627,3.9677,3.9703,3.9703,3.9703,3.9784,4.0293,4.0071,3.9808,4.0292,4.0006,3.9494,3.8893,3.8762,3.8606,3.807,3.7952,3.7939,3.7913,3.7946,3.7992,3.8024,3.876,3.9659,4.0525,4.1463,4.2052,4.2011,4.2032,4.2395,4.321,4.329,4.329,4.329,4.329,4.329,4.329,4.3719,4.4007,4.405,4.5144,4.6076,4.6846,4.7589,4.8306,4.9001,4.9001,4.9001,4.9001,4.9001,4.9001,3.4045,3.4293,3.4397,3.4397,3.4397,3.4397,3.4397,3.4397,3.4397,3.4397,3.4986,3.5626,0.0,0.0,0.0,3.7835,3.79,0.0,3.79,3.7854,0.0,3.7528,0.0,3.718,3.7353,3.7194,0.0,0.0,3.6923,3.701,3.7563,3.8153,3.8554,3.8781,3.9487,4.0058,4.0387,4.0932,4.1236,4.1286,4.1286,4.1286,4.1286,4.1286,4.1286,4.1286,4.1286,4.1194,4.1064,4.1064,4.0972,4.0855,4.0855,4.0855,4.0855,4.0855,4.0855,4.0855,4.0855,4.0567,4.0213,4.0213,4.0489,4.0855,4.0855,4.0855,4.0894,4.1025,4.0959,4.079,4.0476,4.0293,4.0069,3.9507,3.9353,3.922,3.8632,3.8501,3.8383,3.7978,3.8427,3.9104,3.9796,4.0681,4.138,4.1624,4.24,4.2719,4.2073,4.2557,4.3036,4.327,4.329,4.329,4.329,4.329,4.329,4.329,4.3616,4.4089,4.479,4.5771,4.6709,4.7605,4.8338,4.8814,4.9001,4.9001,4.9001,4.9001,4.9001,4.9001,3.4254,3.4397,3.4397,3.4397,3.4397,3.4397,3.4397,3.4397,3.4397,3.4397,3.4881,0.0,3.6005,3.6593,3.7207,0.0,0.0,0.0,3.79,3.79,3.7899,0.0,3.7764,0.0,3.7925,3.7952,3.8058,0.0,3.8127,3.809,3.8366,3.8944,3.936,3.9576,3.9918,4.0287,4.0669,4.0972,4.1186,4.1286,4.1286,4.1286,4.1286,4.1286,4.1286,4.1286,0.0,4.1286,4.1286,4.1286,4.1286,4.1286,4.1286,4.1286,4.1286,4.1286,4.1286,4.1286,4.1286,4.1064,4.079,4.079,4.1012,4.1286,4.1286,4.1286,4.1286,4.1286,4.1286,4.1207,4.0868,4.079,4.0646,4.0084,3.9965,3.9784,3.9233,3.9079,3.8932,3.837,3.8754,3.9505,4.0439,4.138,4.2135,4.2517,4.2975,4.3115,4.2618,4.2996,4.329,4.329,4.329,4.329,4.329,4.329,4.329,4.329,4.3621,4.4208,4.5073,4.6078,4.7035,4.7885,4.8625,4.9001,4.9001,4.9001,4.9001,4.9001,4.9001,4.9001,3.4267,3.4397,3.4397,3.4397,3.4397,3.4397,3.4397,3.4397,3.4397,3.4397,0.0,3.5456,3.6005,3.6593,3.7207,3.7808,0.0,3.79,3.79,3.79,3.8017,3.8318,3.8144,3.8149,3.8509,3.8547,3.8664,3.8881,3.8919,3.8919,3.8894,3.9346,3.9803,4.0248,4.0083,4.0274,4.0817,4.0817,4.0994,4.1286,4.1286,4.1286,4.1286,4.1286,4.1286,4.1286,4.1286,4.1286,4.1286,4.1286,4.1286,4.1286,4.1286,4.1286,4.1286,4.1286,4.1286,4.1286,4.1286,4.1286,4.1286,4.1286,4.1286,4.1286,4.1286,4.1286,4.1286,4.1286,4.1286,4.1286,4.1286,4.1286,4.1155,4.0633,4.0515,4.0383,3.981,3.964,3.9455,3.8909,3.9268,3.9879,4.0579,4.1592,4.2523,4.3205,4.329,4.329,4.329,4.329,4.329,4.329,4.329,4.329,4.329,4.329,4.3309,4.3364,4.384,4.4499,4.5243,4.6343,4.7288,4.8032,4.8672,4.9001,4.9001,4.9001,4.9001,4.9001,4.9001,4.9001,3.4371,3.4397,3.4397,3.4397,3.4397,3.4397,3.4397,3.4397,0.0,0.0,3.4881,3.5456,3.6005,3.6593,3.7207,3.7808,3.79,3.79,3.79,3.79,3.8086,0.0,3.8593,3.8782,3.9327,3.938,0.0,0.0,3.9058,3.9083,3.8919,3.8982,3.907,3.9094,3.9266,3.973,4.0492,4.0492,4.0765,4.1286,4.1286,4.1286,4.1286,4.1286,4.1286,4.1286,4.1286,0.0,4.1286,4.1286,4.1286,4.1286,4.1286,4.1286,4.1286,4.1286,4.1286,4.1286,4.1286,4.1286,4.1286,4.1286,4.1286,4.1286,4.1286,4.1286,4.1286,4.1286,4.1286,4.1286,4.1286,4.1286,4.126,4.1155,4.1129,4.0972,4.0385,3.9901,3.9586,3.9444,4.0798,4.1817,4.1409,4.2774,4.3761,4.3359,4.329,4.329,4.329,4.329,4.329,4.329,4.329,4.329,4.329,4.329,4.3384,4.3616,4.4427,4.5316,4.622,4.7187,4.8064,4.8798,4.8923,4.9001,4.9001,4.9001,4.9001,4.9001,4.9001,4.9001,3.4397,3.4397,3.4397,3.4397,3.4397,3.4397,3.4397,0.0,0.0,0.0,3.5103,3.5561,3.641,3.6802,0.0,3.7808,3.79,3.79,3.79,3.79,3.8167,3.8873,3.8834,3.9094,0.0,3.9774,3.9458,3.9133,3.9029,3.8889,3.8653,3.8765,3.8712,3.8396,3.8629,3.9025,3.9552,3.9887,4.0295,4.0853,4.1142,4.1286,4.1286,4.1286,4.1286,4.1286,4.1286,4.1286,4.1286,4.1286,4.1286,4.1286,4.1286,4.1286,4.1286,4.1286,4.1286,4.1286,4.1286,4.1286,4.1286,4.1286,4.1286,4.1286,4.1286,4.1286,4.1286,4.1286,4.1286,4.1286,4.1286,4.1286,4.1286,4.1286,4.1286,4.1207,4.092,4.0837,4.0797,4.0797,4.2103,4.3133,4.2796,4.3615,4.4192,4.3878,4.3514,4.329,4.329,4.329,4.329,4.329,4.329,4.329,4.329,4.3423,4.3557,4.369,4.4692,4.5627,4.6466,4.7406,4.8258,4.8986,4.9001,4.9001,4.9001,4.9001,4.9001,4.9001,4.9001,4.9001,3.4397,3.4397,3.4397,3.4397,3.4397,3.4397,3.4397,3.4397,0.0,0.0,3.5391,3.5783,3.6815,3.7116,3.7351,0.0,3.79,3.79,3.79,3.8004,3.8356,0.0,3.9196,0.0,4.0235,3.9927,0.0,3.8966,3.8628,3.8395,3.8231,3.836,3.8235,3.7822,3.8054,3.8336,3.8644,3.9167,3.9735,4.0349,4.0868,4.1168,4.1286,4.1286,4.1286,4.1286,4.1286,4.1286,4.1286,4.1286,4.1286,4.1286,4.1286,4.1286,4.1286,4.1286,4.1286,4.1286,4.1286,4.1286,4.1286,4.1286,4.1286,4.1286,4.1286,4.1286,4.1286,4.1286,4.1286,4.1286,4.1286,4.1286,4.1286,4.1286,4.1286,4.1361,4.1572,4.1692,4.1885,4.2337,4.3274,4.4015,4.4066,4.4453,4.4625,4.4341,4.3848,4.3454,4.3324,4.329,4.329,4.329,4.329,4.329,4.329,4.3557,4.3788,4.3992,4.5033,4.5989,4.6778,4.7671,4.8418,4.8986,4.9001,4.9001,4.9001,4.9001,4.9001,4.9001,4.9001,4.9001,3.4397,3.4397,3.4397,3.4397,3.4397,3.4397,3.4397,0.0,3.4567,3.5168,3.5691,3.6227,3.6881,3.7456,0.0,0.0,0.0,3.79,3.79,3.8331,3.8856,3.9486,0.0,0.0,3.9797,3.9883,3.9345,3.7873,3.7453,3.7375,3.7659,3.7415,3.7239,3.7168,3.7438,3.7755,3.8056,3.837,3.9068,4.014,4.0376,4.0763,4.1286,4.1286,4.1286,4.1286,4.1286,4.1286,0.0,4.1286,4.1286,4.1286,4.1286,4.1286,4.1286,4.1286,4.1286,4.1286,4.1286,4.1286,4.1286,4.1286,4.1286,4.1286,4.1286,4.1286,4.1286,4.1286,4.1286,4.1286,4.1286,4.1286,4.1286,4.1286,4.1286,4.1547,4.2466,4.1963,4.1887,4.3736,4.4172,4.4362,4.4659,4.5509,4.5702,4.4476,4.4252,4.3982,4.3384,4.329,4.329,4.329,4.329,4.329,4.329,4.3557,4.4054,4.4906,4.5863,4.6812,4.7721,4.8497,4.894,4.9001,4.9001,4.9001,4.9001,4.9001,4.9001,4.9001,4.9001,4.9001,3.4397,3.4397,3.4397,3.4397,3.4397,3.4397,3.4397,0.0,3.4659,3.5587,3.5953,3.6397,3.7364,3.7743,0.0,0.0,0.0,0.0,3.79,3.8207,3.8672,3.928,3.9692,0.0,0.0,0.0,3.8889,3.7413,3.6908,3.6789,3.7051,3.6943,3.6862,3.6862,3.6956,3.7247,3.7691,3.8324,3.8951,3.9561,4.0334,4.0838,4.1047,4.1236,4.1286,4.1286,4.1286,4.1286,0.0,4.1286,4.1286,4.1286,4.1286,4.1286,4.1286,4.1286,4.1286,4.1286,4.1286,4.1286,4.1286,4.1286,4.1286,4.1286,4.1286,4.1286,4.1286,4.1286,4.1286,4.1286,4.1286,4.1286,4.1286,4.1286,4.1286,4.1572,4.2587,4.249,4.2806,4.4808,4.5212,4.5436,4.6174,4.6304,4.5971,4.505,4.4571,4.4057,4.3379,4.329,4.329,4.329,4.329,4.329,4.329,4.3675,4.4031,4.4404,4.5861,4.6846,4.7221,4.837,4.9001,4.9001,4.9001,4.9001,4.9001,4.9001,4.9001,4.9001,4.9001,4.9001,3.4397,3.4397,3.4397,3.4397,3.4397,3.4397,0.0,0.0,3.4933,3.59,3.624,3.6684,3.7717,3.79,3.79,0.0,0.0,3.7965,3.8122,3.8374,3.8788,3.9382,0.0,3.9786,0.0,3.8954,3.8194,3.7289,3.6828,3.664,3.6686,3.6803,3.6792,3.6698,3.6874,3.7093,3.7424,3.8337,3.895,3.9253,4.0187,4.0678,4.0795,4.1047,4.1186,4.1186,4.1261,4.1286,0.0,4.1286,4.1286,4.1286,4.1286,4.1286,4.1286,4.1286,4.1286,4.1286,4.1286,4.1286,4.1286,4.1286,4.1286,4.1286,4.1286,4.1286,4.1286,4.1286,4.1286,4.1286,4.1286,4.1286,4.1286,4.1286,4.1286,4.1572,4.2587,4.2792,4.3402,4.5403,4.5801,4.6107,4.7142,4.6734,4.6076,4.5394,4.4736,4.4057,4.3379,4.329,4.329,4.329,4.329,4.329,4.329,4.3719,4.4089,4.4305,4.5879,4.6897,4.7119,4.8338,4.9001,4.9001,4.9001,4.9001,4.9001,4.9001,4.9001,4.9001,4.9001,4.9001,3.4397,3.4397,3.4397,3.4397,3.4397,3.4397,0.0,0.0,3.5443,3.5992,3.658,3.7181,3.7795,3.79,3.79,0.0,0.0,0.0,3.8632,3.8993,3.9395,0.0,0.0,3.9955,3.856,3.7634,3.7227,3.7482,3.7261,0.0,3.6709,3.7016,3.703,3.6711,3.728,3.7475,3.7198,3.8263,3.8972,3.9309,3.9782,4.0178,4.0504,4.0795,4.0908,4.0908,4.1186,4.1286,0.0,4.1286,4.1286,4.1286,4.1286,4.1286,4.1286,4.1286,4.1286,4.1286,4.1286,4.1286,4.1286,4.1286,4.1286,4.1286,4.1286,4.1286,4.1286,4.1286,4.1286,4.1286,4.1286,4.1286,4.1286,4.1286,4.1286,4.1572,4.2587,4.2792,4.3402,4.5403,4.5801,4.6107,4.7142,4.6734,4.6076,4.5394,4.4736,4.4057,4.3379,4.329,4.329,4.329,4.329,4.329,4.329,4.3719,4.4305,4.5036,4.6165,4.7136,4.7868,4.8609,4.9001,4.9001,4.9001,4.9001,4.9001,4.9001,4.9001,4.9001,4.9001,4.9001,3.4397,3.4397,3.4397,3.4397,3.4397,3.4397,3.4397,3.4868,3.5443,3.5992,3.658,3.7181,3.7795,3.79,3.79,0.0,0.0,0.0,0.0,0.0,0.0,3.9692,3.9664,3.9442,0.0,0.0,3.7062,3.6956,3.7089,3.7138,3.7042,3.7486,3.7609,3.733,3.7863,3.8179,3.8277,3.8799,3.9131,3.9246,4.0005,4.04,4.0504,4.0795,4.0997,4.1186,4.1072,4.1135,4.1286,4.1286,4.1286,4.1286,4.1286,4.1286,4.1286,4.1286,4.1286,4.1286,4.1286,4.1286,4.1286,4.1286,4.1286,4.1286,4.1286,4.1286,4.1286,4.1286,4.1286,4.1286,4.1286,4.1286,4.1286,4.1286,4.1286,4.1572,4.2587,4.2792,4.3402,4.5403,4.5801,4.6107,4.7142,4.6734,4.6076,4.5394,4.4736,4.4057,4.3379,4.329,4.329,4.329,4.329,4.329,4.329,4.3616,4.3934,4.4324,4.5771,4.6761,4.7136,4.8338,4.9001,4.9001,4.9001,4.9001,4.9001,4.9001,4.9001,4.9001,4.9001,4.9001,0.0,3.4397,3.4397,3.4397,3.4397,0.0,0.0,3.5012,3.5704,3.6031,3.6763,3.7456,3.7835,3.79,3.79,3.79,0.0,0.0,0.0,0.0,0.0,3.9914,0.0,0.0,0.0,3.8109,3.7335,3.718,3.7463,3.7597,3.7524,3.8027,3.8252,3.8109,3.8413,3.8677,3.885,3.9284,3.9487,3.9398,4.0045,4.03,4.0198,4.0491,4.0694,4.0846,4.077,4.0846,0.0,4.111,4.1147,4.1161,4.1261,4.1236,4.1147,4.1261,4.1236,4.1147,4.1261,4.1286,4.1286,4.1286,4.1286,4.1286,4.1286,4.1286,4.1286,4.1286,4.1286,4.1286,4.1286,4.1286,4.1286,4.1286,4.1597,4.2027,4.2671,4.3402,4.4308,4.5576,4.6107,4.6572,4.7186,4.6525,4.5783,4.5364,4.4506,4.3773,4.3349,4.329,4.329,4.329,4.329,4.329,4.329,4.3616,4.3871,4.3988,4.5645,4.6673,4.6794,4.8226,4.9001,4.9001,4.9001,4.9001,4.9001,4.9001,4.9001,4.9001,4.9001,4.9001,0.0,0.0,0.0,0.0,0.0,0.0,0.0,0.0,0.0,3.6162,3.709,3.79,3.79,3.79,3.7913,3.7952,0.0,0.0,0.0,3.988,0.0,0.0,3.9529,0.0,3.9128,3.8422,3.7946,3.791,3.8228,3.8324,3.8065,3.8642,3.8957,3.8957,3.8957,3.8957,3.8957,3.9702,3.9955,3.9697,3.9981,3.9981,3.9736,3.9981,4.0096,0.0,4.0377,4.0504,4.0555,4.0795,4.0908,4.0908,4.1173,4.1135,4.0933,4.1186,4.1135,4.0959,4.1211,4.1286,4.1286,4.1286,4.1286,4.1286,4.1286,4.1286,4.1286,4.1286,4.1286,4.1286,4.1286,4.1286,4.1286,4.1286,4.2003,4.2719,4.2792,4.4308,4.5711,4.5779,4.6616,4.7294,4.7249,4.6157,4.5274,4.5229,4.4132,4.329,4.329,4.329,4.329,4.329,4.329,4.3309,4.3329,4.3719,4.3968,4.4007,4.5735,4.6777,4.6794,4.8226,4.9001,4.9001,4.9001,4.9001,4.9001,4.9001,4.9001,4.9001,4.9001,4.9001,3.4254,0.0,0.0,0.0,0.0,0.0,0.0,0.0,0.0,0.0,0.0,3.79,3.79,3.79,3.8031,0.0,0.0,3.8968,3.9779,4.0364,0.0,4.0225,3.9904,3.9421,3.8656,3.8392,3.8194,3.7986,3.8478,3.8743,3.8693,3.922,3.9522,3.9522,3.9522,3.9522,3.9522,3.9699,3.9762,3.9697,3.9981,4.0083,4.0006,4.0083,4.0211,4.0402,4.0262,4.044,4.082,4.0858,4.0908,4.0921,4.0972,4.0972,4.0908,4.0972,4.1072,4.1211,4.1286,4.1286,4.1286,4.1286,4.1286,4.1286,4.1286,4.1286,4.1286,4.1286,4.1286,4.1286,4.1286,4.1286,4.1286,4.1286,4.1473,4.1868,4.2622,4.3782,4.4877,4.5644,4.6616,4.7145,4.6614,4.5858,4.5125,4.4616,4.3833,4.329,4.329,4.329,4.329,4.329,4.329,4.3384,4.3596,4.3522,4.3621,4.3988,4.5468,4.6468,4.6794,4.8226,4.9001,4.9001,4.9001,4.9001,4.9001,4.9001,4.9001,4.9001,4.9001,4.9001,3.4175,3.4397,3.4397,3.4397,0.0,0.0,0.0,0.0,0.0,0.0,0.0,3.79,3.79,3.8109,0.0,0.0,3.9155,0.0,0.0,0.0,4.0654,4.0494,4.0197,3.9827,0.0,3.911,3.8888,3.8752,3.907,3.9271,3.9271,3.9534,3.9697,3.9697,3.9697,3.9697,3.9697,3.9697,3.9697,3.9697,3.9865,3.9904,3.9904,3.9904,3.9993,4.0121,3.9993,4.0083,4.0364,4.0478,4.0529,4.0554,4.0807,4.082,4.0744,4.0997,4.1097,4.1122,4.1261,4.1286,4.1286,4.1286,4.1286,4.1286,4.1286,4.1286,4.1286,4.1286,4.1286,4.1286,4.1286,4.1286,4.1411,4.1893,4.2333,4.295,4.3956,4.4984,4.583,4.6381,4.6931,4.71,4.642,4.5753,4.5065,4.4386,4.3728,4.329,4.329,4.329,4.329,4.329,4.329,4.3404,4.369,4.3577,4.3821,4.4579,4.5809,4.6727,4.7272,4.8402,4.9001,4.9001,4.9001,4.9001,4.9001,4.9001,4.9001,4.9001,4.9001,4.9001,3.4084,3.4397,3.4397,3.4397,0.0,0.0,0.0,0.0,0.0,0.0,0.0,0.0,0.0,3.8475,0.0,0.0,0.0,0.0,4.0919,4.0719,4.0592,4.0691,4.0304,0.0,4.0152,3.9834,3.9611,3.9611,3.9664,3.9697,3.9697,3.9697,3.9697,3.9697,3.9697,3.9697,3.9697,3.9697,3.9697,3.9697,3.9697,3.9697,3.9697,3.9697,3.9697,3.9697,0.0,0.0,3.9788,4.0006,4.0121,4.0211,4.0605,4.0669,4.0555,4.101,4.1047,4.0933,4.1211,4.1286,4.1286,4.1286,4.1286,4.1286,4.1286,4.1286,4.1286,4.1286,4.1286,4.1286,4.1286,4.1286,4.1547,4.2563,4.345,4.4392,4.5553,4.6469,4.7121,4.7287,4.7309,4.7055,4.6271,4.5678,4.5035,4.4252,4.3668,4.329,4.329,4.329,4.329,4.329,4.329,4.3423,4.3729,4.3749,4.4285,4.5517,4.6341,4.7153,4.8032,4.8561,4.8893,4.9001,4.8876,4.8876,4.9001,4.9001,4.9001,4.9001,4.9001,4.9001,3.4084,3.4397,3.4397,3.4397,0.0,0.0,0.0,0.0,0.0,0.0,0.0,0.0,0.0,3.9076,3.9625,0.0,0.0,4.1181,0.0,0.0,4.0589,3.9975,0.0,3.9842,3.9184,3.9461,3.9687,3.9687,3.9686,3.9697,3.9697,3.9697,3.9697,3.9697,3.9697,3.9697,3.9697,3.9697,3.9697,3.9697,3.9697,3.9697,3.9697,3.9697,3.9697,3.9697,0.0,3.9839,4.0032,4.007,4.0236,4.0428,4.0287,4.0338,4.0504,4.058,4.0744,4.0933,4.1211,4.1286,4.1286,4.1286,4.1286,4.1286,4.1286,4.1286,4.1286,4.1286,4.1286,4.1286,4.1286,4.1286,4.1547,4.2563,4.2913,4.3545,4.5403,4.5928,4.6277,4.7142,4.7309,4.692,4.5663,4.5364,4.4885,4.3638,4.3384,4.329,4.329,4.329,4.329,4.329,4.329,4.3483,4.3929,4.3949,4.4711,4.6464,4.6569,4.7221,4.8767,4.8338,4.8354,4.8986,4.8386,4.8386,4.9001,4.9001,4.9001,4.9001,4.9001,4.9001,3.4084,3.4633,3.4881,3.4881,0.0,0.0,0.0,0.0,0.0,0.0,0.0,0.0,0.0,0.0,4.0215,4.079,0.0,4.1072,4.1072,4.0846,4.0553,0.0,0.0,4.0173,3.9791,3.9867,3.9904,3.9904,3.9788,3.9697,3.9697,3.9697,3.9697,3.9697,3.9697,3.9697,3.9697,3.9697,3.9697,3.9697,3.9697,3.9697,3.9697,3.9697,3.9697,3.9697,0.0,3.9762,3.989,3.989,3.9968,4.007,4.0083,4.0185,4.0313,4.0618,4.0896,4.1122,4.1261,4.1286,4.1286,4.1286,4.1286,4.1286,4.1286,4.1286,4.1286,4.1286,4.1286,4.1286,4.1286,4.1286,4.1547,4.2563,4.3211,4.4017,4.5471,4.6233,4.6763,4.7207,4.7309,4.6875,4.5529,4.5289,4.484,4.3504,4.329,4.329,4.329,4.329,4.329,4.329,4.3423,4.3655,4.3968,4.4104,4.4918,4.669,4.7456,4.8193,4.897,4.829,4.8064,4.8401,4.7671,4.7472,4.7803,4.7803,4.7803,4.7803,4.7803,4.8015,3.4123,3.4842,3.5325,0.0,0.0,0.0,0.0,0.0,0.0,0.0,0.0,0.0,0.0,3.9939,0.0,4.1221,4.1135,4.0972,4.0908,4.0669,4.0478,4.0415,4.0351,4.03,4.03,4.0134,4.0006,4.0006,3.9813,3.9697,3.9697,3.9697,3.9697,3.9697,3.9697,3.9697,3.9697,3.9697,3.9697,3.9697,3.9697,3.9697,3.9697,3.9697,3.9697,3.9697,3.9835,3.9885,3.9898,4.0023,4.01,4.0178,4.0321,4.0387,4.0415,4.0707,4.1035,4.1286,4.1286,4.1286,4.1286,4.1286,4.1286,4.1286,4.1286,4.1286,4.1286,4.1286,4.1286,4.1286,4.1286,4.1473,4.1893,4.2913,4.3923,4.4938,4.5928,4.6763,4.7309,4.7309,4.7309,4.6875,4.5529,4.5289,4.484,4.3504,4.329,4.329,4.329,4.329,4.329,4.329,4.3537,4.3808,4.4065,4.4575,4.5424,4.6708,4.8177,4.9001,4.9001,4.829,4.7901,4.7901,4.7187,4.688,4.7068,4.688,4.6897,4.7051,4.688,4.7102,3.4241,3.4842,3.5417,3.5926,0.0,0.0,0.0,0.0,0.0,0.0,0.0,0.0,0.0,4.079,4.1234,4.1286,4.1286,4.1186,4.0933,0.0,4.0402,4.016,3.9916,3.9774,3.9774,3.9736,3.9723,3.9723,3.9723,3.9697,3.9697,3.9697,3.9697,3.9697,3.9697,3.9697,3.9697,3.9697,3.9697,3.9697,3.9697,3.9697,3.9697,3.9697,3.9697,3.9722,4.0237,4.0437,4.0474,4.0989,4.1337,4.1538,4.1296,4.122,4.117,4.0696,4.0858,4.1286,4.1286,4.1286,4.1286,4.1286,4.1286,4.1286,4.1286,4.1286,4.1286,4.1286,4.1286,4.1286,4.1286,4.1978,4.2961,4.3947,4.4946,4.5973,4.6975,4.7251,4.7309,4.7309,4.7309,4.6875,4.5529,4.5289,4.484,4.3504,4.329,4.329,4.329,4.329,4.329,4.329,4.3537,4.3851,4.4243,4.5733,4.6673,4.6794,4.8177,4.9001,4.9001,4.829,4.7901,4.7901,4.7187,4.7136,4.7819,4.7136,4.7153,4.7803,4.7119,4.6829,3.4711,3.5365,3.594,3.6515,0.0,0.0,0.0,0.0,0.0,0.0,0.0,0.0,0.0,0.0,4.1286,4.1286,4.1147,4.1022,4.0908,4.0669,4.0389,4.0134,4.0006,3.989,3.9723,3.9697,3.9697,3.9697,3.9697,3.9697,3.9697,3.9697,3.9697,3.9697,3.9697,3.9697,3.9697,3.9697,3.9697,3.9697,3.9697,3.9697,3.9697,3.9697,3.9885,4.0224,4.0399,4.0688,4.1014,4.1227,4.1356,4.1436,4.1342,4.1283,4.1272,4.108,4.1143,4.1286,4.1286,4.1286,4.1286,4.1286,4.1286,4.1286,4.1286,4.1286,4.1286,4.1286,4.1286,4.1286,4.1286,4.2052,4.2913,4.3283,4.4624,4.5906,4.6277,4.6851,4.7309,4.7309,4.7309,4.6875,4.5529,4.5289,4.484,4.3504,4.329,4.329,4.329,4.329,4.329,4.329,4.364,4.4243,4.5104,4.6165,4.7,4.7456,4.8434,4.9001,4.9001,4.829,4.7901,4.7901,4.6726,4.6253,4.6535,4.5789,4.557,4.5843,4.5551,4.5679,3.509,3.5835,3.6488,0.0,0.0,0.0,0.0,0.0,0.0,0.0,0.0,0.0,0.0,0.0,0.0,0.0,4.1072,4.0858,4.0795,4.0542,4.0262,4.0006,3.9981,3.9916,3.9723,3.9697,3.9697,3.9697,3.9697,3.9697,3.9697,3.9697,3.9697,3.9697,3.9697,3.9697,3.9697,3.9697,3.9697,3.9697,3.9873,3.9961,3.9961,3.9961,4.0262,4.0763,4.0953,4.1241,4.1605,4.1754,4.1829,4.1844,4.1749,4.1655,4.1528,4.1492,4.1375,4.1286,4.1286,4.1286,4.1286,4.1286,4.1286,4.1286,4.1286,4.1286,4.1286,4.1286,4.1286,4.1386,4.1683,4.2514,4.3259,4.3259,4.4808,4.6277,4.6277,4.6807,4.7309,4.7309,4.7309,4.6875,4.5529,4.5289,4.484,4.3504,4.329,4.329,4.329,4.329,4.3364,4.3503,4.3797,4.4461,4.5588,4.6376,4.7119,4.7852,4.8592,4.9001,4.9001,4.8513,4.8032,4.7572,4.6553,4.5915,4.5697,4.4971,4.4723,4.4952,4.4704,4.4877,3.5312,3.6136,3.6998,0.0,0.0,0.0,0.0,0.0,0.0,0.0,0.0,4.1286,4.1286,0.0,0.0,4.1286,4.1072,4.0795,4.0529,4.0262,4.0006,3.9723,3.9697,3.9697,3.9697,3.9697,3.9697,3.9697,3.9697,3.9697,3.9697,3.9697,3.9697,3.9697,3.9697,3.9697,3.9697,3.9697,3.9697,3.9722,4.0262,4.0499,4.0487,4.0499,4.08,4.1352,4.1946,4.2213,4.2263,4.2776,4.3002,4.2979,4.2726,4.24,4.2065,4.1879,4.1592,4.1286,4.1286,4.1286,4.1286,4.1286,4.1286,4.1286,4.1286,4.1286,4.1286,4.1286,4.1286,4.1522,4.2539,4.3545,4.4312,4.4312,4.5853,4.7309,4.7309,4.7309,4.7309,4.7309,4.7309,4.6875,4.5529,4.5289,4.484,4.3504,4.329,4.329,4.329,4.329,4.3468,4.3949,4.4007,4.4461,4.5606,4.6394,4.7136,4.7868,4.8609,4.9001,4.9001,4.9001,4.8322,4.6846,4.6811,4.6447,4.5715,4.4955,4.499,4.566,4.4952,4.461,3.5757,3.6901,0.0,3.768,0.0,0.0,0.0,0.0,0.0,0.0,4.1193,4.1286,4.1286,0.0,0.0,4.1047,4.0795,4.0516,4.0262,3.9981,3.9788,3.9723,3.9697,3.9697,3.9697,3.9697,3.9697,3.9697,3.9697,3.9697,3.9697,3.9697,3.9697,3.9697,3.9697,3.9885,4.0275,4.0275,4.0437,4.0826,4.0989,4.0876,4.0499,4.0888,4.1392,4.1946,4.211,4.2399,4.2776,4.2939,4.3002,4.3017,4.3118,4.2718,4.2104,4.2305,4.1904,4.1286,4.1286,4.1286,4.1286,4.1286,4.1286,4.1286,4.1286,4.1286,4.1286,4.1286,4.1286,4.1522,4.2539,4.3545,4.4475,4.519,4.6358,4.7309,4.7309,4.7309,4.7309,4.7309,4.7309,4.6875,4.5529,4.5289,4.484,4.3504,4.329,4.329,4.329,4.329,4.3468,4.3949,4.4461,4.524,4.6376,4.7153,4.7901,4.8641,4.8876,4.9001,4.9001,4.9001,4.8798,4.8354,4.7338,4.669,4.6464,4.5216,4.4704,4.4918,4.5218,4.5104,3.6415,3.7563,0.0,3.8798,3.9361,3.9967,4.0217,0.0,0.0,0.0,0.0,4.1286,4.1286,4.1211,0.0,4.0933,4.0593,4.0287,4.0121,3.9865,3.9697,3.9697,3.9697,3.9697,3.9697,3.9697,3.9697,3.9697,3.9697,3.9697,3.9697,3.9697,3.9697,3.9697,3.991,4.0174,4.0487,4.07,4.0989,4.1315,4.1528,4.1492,4.1178,4.1505,4.1957,4.2512,4.2512,4.27,4.3002,4.3002,4.3002,4.303,4.3447,4.2979,4.2156,4.2591,4.215,4.1286,4.1286,4.1286,4.1286,4.1286,4.1286,4.1286,4.1286,4.1286,4.1286,4.1286,4.1286,4.1609,4.3033,4.3853,4.4554,4.5553,4.6572,4.7309,4.7309,4.7309,4.7309,4.7309,4.7309,4.6875,4.5529,4.5289,4.484,4.3504,4.329,4.329,4.329,4.329,4.3606,4.4347,4.4827,4.5665,4.7119,4.7638,4.8209,4.8955,4.9001,4.9001,4.9001,4.9001,4.8861,4.8561,4.7704,4.7085,4.6794,4.5913,4.5311,4.5049,4.5787,4.557,3.7197,3.8256,3.9525,4.0065,3.9921,0.0,4.1038,4.1286,4.1286,4.1286,0.0,4.1286,4.1286,4.1097,4.0908,4.0858,4.0453,4.0134,4.0083,3.9865,3.9697,3.9697,3.9697,3.9697,3.9697,3.9697,3.9697,3.9697,3.9697,3.9697,3.9697,3.9697,3.9722,3.9772,4.0262,4.0537,4.0664,4.1139,4.1415,4.1465,4.2022,4.2288,4.2288,4.2288,4.2524,4.3002,4.3002,4.3002,4.3002,4.3002,4.3002,4.3058,4.3666,4.3168,4.2156,4.2788,4.2265,4.1286,4.1286,4.1286,4.1286,4.1286,4.1286,4.1286,4.1286,4.1286,4.1286,4.1286,4.1286,4.1758,4.3772,4.4312,4.4591,4.5666,4.6638,4.7309,4.7309,4.7309,4.7309,4.7309,4.7309,4.689,4.5603,4.5334,4.484,4.3504,4.329,4.329,4.329,4.329,4.3752,4.498,4.515,4.5937,4.7754,4.795,4.829,4.8955,4.9001,4.9001,4.9001,4.9001,4.8688,4.8015,4.7934,4.7572,4.6897,4.6829,4.6447,4.5823,4.6551,4.6147,3.7928,3.9555,0.0,4.0273,4.0167,4.0411,4.1129,4.1286,4.1286,4.1286,4.1286,4.1286,4.1286,4.1236,4.1085,4.0643,4.0504,4.0275,3.9839,3.9736,3.9697,3.9697,3.9697,3.9697,3.9697,3.9697,3.9697,3.9697,3.9697,3.9697,3.9697,3.9697,3.9885,4.0299,4.045,4.0927,4.1821,4.1946,4.2223,4.2622,4.2776,4.2826,4.2826,4.2826,4.2889,4.3002,4.3002,4.3002,4.3002,4.3002,4.3002,4.3058,4.3666,4.3168,4.2156,4.2788,4.2265,4.1286,4.1286,4.1286,4.1286,4.1286,4.1286,4.1286,4.1286,4.1286,4.1286,4.1286,4.1286,4.1758,4.3772,4.4312,4.4753,4.655,4.7142,4.7309,4.7309,4.7309,4.7309,4.7309,4.7309,4.7055,4.6226,4.5648,4.484,4.3504,4.329,4.329,4.329,4.329,4.3752,4.498,4.5631,4.6487,4.7803,4.8434,4.8829,4.8986,4.9001,4.9001,4.9001,4.9001,4.894,4.8767,4.8193,4.7819,4.7671,4.7085,4.6708,4.6586,4.7322,4.7171,3.8065,3.9848,0.0,4.1055,0.0,4.1508,4.1332,4.1286,4.1286,4.1286,4.1286,4.1261,4.1135,4.101,4.0783,4.0364,4.0198,4.0019,3.9749,3.9697,3.9697,3.9697,3.9697,3.9697,3.9697,3.9697,3.9697,3.9697,3.9697,3.9697,3.9697,3.9936,4.0224,4.0487,4.1028,4.1607,4.22,4.2449,4.2713,4.3002,4.3002,4.3002,4.3002,4.3002,4.3002,4.3002,4.3002,4.3002,4.3002,4.3002,4.3002,4.3058,4.3666,4.3168,4.2156,4.2788,4.2265,4.1286,4.1286,4.1286,4.1286,4.1286,4.1286,4.1286,4.1286,4.1286,4.1286,4.1286,4.1634,4.2382,4.3914,4.4661,4.5395,4.6931,4.7309,4.7309,4.7309,4.7309,4.7309,4.7309,4.7309,4.71,4.642,4.5478,4.4566,4.3878,4.3519,4.329,4.329,4.329,4.3892,4.5468,4.5977,4.6798,4.8306,4.8783,4.9001,4.9001,4.9001,4.9001,4.9001,4.9001,4.9001,4.9001,4.8625,4.8434,4.8434,4.8048,4.7655,4.7355,4.808,4.7852,3.8175,3.9775,4.1625,4.217,4.2426,0.0,4.1498,4.1286,4.1286,4.1286,4.1261,4.1147,4.0933,4.0669,4.0402,4.0134,3.9904,3.9736,3.9723,3.9697,3.9697,3.9697,3.9697,3.9697,3.9697,3.9697,3.9697,3.9697,3.9697,3.9697,3.9697,4.0224,4.0537,4.0637,4.1658,4.2223,4.2351,4.2776,4.3002,4.3002,4.3002,4.3002,4.3002,4.3002,4.3002,4.3002,4.3002,4.3002,4.3002,4.3002,4.303,4.3113,4.3666,4.3195,4.2235,4.2788,4.2265,4.1286,4.1286,4.1286,4.1286,4.1286,4.1286,4.1286,4.1286,4.1286,4.1286,4.1286,4.2027,4.3033,4.4055,4.5038,4.604,4.7062,4.7309,4.7309,4.7309,4.7309,4.7309,4.7309,4.7309,4.71,4.642,4.5373,4.4566,4.4326,4.3833,4.3444,4.3305,4.329,4.4036,4.5996,4.6191,4.6969,4.8845,4.9001,4.9001,4.9001,4.9001,4.9001,4.9001,4.9001,4.9001,4.9001,4.9001,4.9001,4.9001,4.9001,4.8688,4.8112,4.8719,4.8354,3.8832,4.0038,4.1548,0.0,4.2727,4.1473,0.0,0.0,4.1286,4.1286,4.1135,4.0933,4.0921,4.0669,4.0402,4.0134,4.0083,3.9981,3.9723,3.9697,3.9697,3.9697,3.9697,3.9697,3.9697,3.9697,3.9697,3.9697,3.9697,3.9697,3.9697,4.0224,4.0713,4.1189,4.1858,4.2411,4.2889,4.2964,4.3002,4.3002,4.3002,4.3002,4.3002,4.3002,4.3002,4.3002,4.3002,4.3002,4.3002,4.3002,4.3129,4.3366,4.3776,4.3343,4.2565,4.2892,4.2265,4.1286,4.1286,4.1286,4.1286,4.1286,4.1286,4.1286,4.1286,4.1286,4.1286,4.1286,4.2027,4.3033,4.4055,4.5038,4.604,4.7062,4.7309,4.7309,4.7309,4.7309,4.7309,4.7309,4.7309,4.71,4.642,4.6151,4.5642,4.4461,4.4222,4.3967,4.3364,4.329,4.4036,4.5996,4.6191,4.6969,4.8845,4.9001,4.9001,4.9001,4.9001,4.9001,4.9001,4.9001,4.9001,4.9001,4.9001,4.9001,4.9001,4.9001,4.8955,4.8861,4.8955,4.8876,3.9825,4.0243,4.0729,4.2923,4.2357,4.1286,4.1286,4.1286,4.1286,4.1286,4.0985,4.0669,4.0669,4.058,4.0351,3.9942,3.989,3.9839,3.9723,3.9697,3.9697,3.9697,3.9697,3.9697,3.9697,3.9697,3.9697,3.9697,3.9697,3.9823,4.0136,4.065,4.1202,4.1781,4.2361,4.2763,4.3002,4.3002,4.3002,4.3002,4.3002,4.3002,4.3002,4.3002,4.3002,4.3002,4.3002,4.3002,4.3002,4.3002,4.3156,4.3421,4.3776,4.337,4.2617,4.2892,4.2265,4.1286,4.1286,4.1286,4.1286,4.1286,4.1286,4.1286,4.1286,4.1286,4.1436,4.1978,4.2864,4.3876,4.4877,4.5898,4.6763,4.7186,4.7309,4.7309,4.7309,4.7309,4.7309,4.7309,4.7309,4.7219,4.6899,4.6555,4.6106,4.5508,4.511,4.4631,4.3953,4.4252,4.4968,4.608,4.6575,4.7406,4.8876,4.9001,4.9001,4.9001,4.9001,4.9001,4.9001,4.9001,4.9001,4.9001,4.9001,4.9001,4.9001,4.9001,4.9001,4.9001,4.9001,4.9001,4.0532,4.0368,4.0114,4.2266,4.2027,4.1286,4.1286,4.1286,4.1286,4.1211,4.0871,4.0567,4.0415,4.0351,4.0172,3.9774,3.9697,3.9697,3.9697,3.9697,3.9697,3.9697,3.9697,3.9697,3.9697,3.9697,3.9697,3.9697,3.9697,3.9936,4.0462,4.1014,4.1593,4.2187,4.2713,4.3002,4.3002,4.3002,4.3002,4.3002,4.3002,4.3002,4.3002,4.3002,4.3002,4.3002,4.3002,4.3002,4.3002,4.3085,4.3212,4.3409,4.3693,4.3282,4.2604,4.2762,4.2148,4.1286,4.1286,4.1286,4.1286,4.1286,4.1286,4.1286,4.1286,4.1286,4.1498,4.2514,4.3521,4.4531,4.5531,4.6535,4.7309,4.7309,4.7309,4.7309,4.7309,4.7309,4.7309,4.7309,4.7309,4.7309,4.7309,4.6884,4.6495,4.633,4.5867,4.5319,4.4646,4.5099,4.5735,4.6384,4.6964,4.7754,4.8892,4.9001,4.9001,4.9001,4.9001,4.9001,4.9001,4.9001,4.9001,4.9001,4.9001,4.9001,4.9001,4.9001,4.9001,4.9001,4.9001,4.9001,4.0532,4.0368,4.0114,4.2266,4.2027,4.1286,4.1286,4.1286,4.1236,4.0972,4.0908,4.0706,4.0198,3.9904,3.9723,3.9697,3.9697,3.9697,3.9697,3.9697,3.9697,3.9697,3.9697,3.9697,3.9697,3.9697,3.9697,3.9697,3.9697,3.9936,4.0462,4.1014,4.1593,4.2187,4.2713,4.3002,4.3002,4.3002,4.3002,4.3002,4.3002,4.3002,4.3002,4.3002,4.3002,4.3002,4.3002,4.3002,4.303,4.3268,4.3394,4.3398,4.3409,4.3095,4.2579,4.2345,4.1834,4.1286,4.1286,4.1286,4.1286,4.1286,4.1286,4.1286,4.1286,4.1286,4.1498,4.2514,4.3521,4.4531,4.5531,4.6535,4.7309,4.7309,4.7309,4.7309,4.7309,4.7309,4.7309,4.7309,4.7309,4.7309,4.7309,4.7279,4.7018,4.6405,4.6271,4.6001,4.5334,4.5408,4.5922,4.7032,4.7238,4.7754,4.8892,4.9001,4.9001,4.9001,4.9001,4.9001,4.9001,4.9001,4.9001,4.9001,4.9001,4.9001,4.9001,4.9001,4.9001,4.9001,4.9001,4.9001,3.9746,3.9873,3.997,4.1467,4.1572,4.1286,4.1286,4.1286,4.1211,4.0972,4.077,4.0516,4.0185,4.0032,3.9916,3.9723,3.9697,3.9697,3.9697,3.9697,3.9697,3.9697,3.9697,3.9697,3.9697,3.9697,3.9697,3.9697,3.9697,4.0086,4.0964,4.1202,4.1716,4.2675,4.2901,4.3002,4.3002,4.3002,4.3002,4.3002,4.3002,4.3002,4.3002,4.3002,4.3002,4.3002,4.3002,4.3002,4.3002,4.3113,4.3364,4.3672,4.3287,4.3016,4.2801,4.2357,4.1833,4.1286,4.1286,4.1286,4.1286,4.1286,4.1286,4.1286,4.1286,4.1758,4.2466,4.3487,4.4485,4.5485,4.6491,4.7019,4.7309,4.7309,4.7309,4.7309,4.7309,4.7309,4.7309,4.7309,4.7309,4.7309,4.7309,4.7309,4.7219,4.6995,4.6929,4.6689,4.6016,4.6893,4.7406,4.7048,4.7951,4.8661,4.885,4.8863,4.891,4.8986,4.9001,4.9001,4.9001,4.9001,4.9001,4.9001,4.9001,4.9001,4.9001,4.9001,4.9001,4.9001,4.9001,4.9001,3.9298,0.0,0.0,4.0874,4.111,4.106,4.1161,4.111,4.0985,4.0795,4.0542,4.0287,4.0006,3.9981,3.9904,3.9723,3.9697,3.9697,3.9697,3.9697,3.9697,3.9697,3.9697,3.9697,3.9697,3.9697,3.9697,3.9697,3.9697,4.0099,4.0989,4.1214,4.1817,4.2964,4.3002,4.3002,4.3002,4.3002,4.3002,4.3002,4.3002,4.3002,4.3002,4.3002,4.3002,4.3002,4.3002,4.3002,4.3002,4.3113,4.3364,4.3659,4.3095,4.2861,4.2775,4.2135,4.1638,4.1286,4.1286,4.1286,4.1286,4.1286,4.1286,4.1361,4.1708,4.2259,4.3081,4.4415,4.5267,4.604,4.704,4.7309,4.7309,4.7309,4.7309,4.7309,4.7309,4.7309,4.7309,4.7309,4.7309,4.7309,4.7309,4.7309,4.7309,4.7309,4.7309,4.7145,4.6689,4.7848,4.8418,4.7672,4.868,4.9339,4.9158,4.8967,4.891,4.8986,4.9001,4.9001,4.9001,4.9001,4.9001,4.9001,4.9001,4.9001,4.9001,4.9001,4.9001,4.9001,4.9001,4.9001,0.0,0.0,0.0,4.0611,4.0694,4.058,4.0846,4.0694,4.0504,4.0478,4.0287,4.0032,3.9736,3.9697,3.9697,3.9697,3.9697,3.9697,3.9697,3.9697,3.9697,3.9697,3.9697,3.9697,3.9697,3.9697,3.9697,3.9697,3.9697,3.9936,4.0462,4.1026,4.1829,4.2964,4.3002,4.3002,4.3002,4.3002,4.3002,4.3002,4.3002,4.3002,4.3002,4.3002,4.3002,4.3002,4.3002,4.3002,4.303,4.3295,4.3381,4.3337,4.2805,4.2591,4.2488,4.1616,4.1286,4.1286,4.1286,4.1286,4.1286,4.1286,4.1286,4.1498,4.249,4.2816,4.3259,4.5244,4.5824,4.6062,4.704,4.7309,4.7309,4.7309,4.7309,4.7309,4.7309,4.7309,4.7309,4.7309,4.7309,4.7309,4.7309,4.7309,4.7309,4.7309,4.7309,4.7309,4.7309,4.8141,4.8797,4.8974,4.9373,4.9671,4.9782,4.9299,4.8986,4.9001,4.9001,4.9001,4.9001,4.9001,4.9001,4.9001,4.9001,4.9001,4.9001,4.9001,4.9001,4.9001,4.9001,4.9001,3.9403,0.0,0.0,0.0,0.0,0.0,4.0605,4.0555,4.0453,4.0236,4.0147,4.0032,3.9736,3.9697,3.9697,3.9697,3.9697,3.9697,3.9697,3.9697,3.9697,3.9697,3.9697,3.9697,3.9697,3.9697,3.9697,3.9697,3.9697,3.9936,4.0462,4.1417,4.2273,4.2977,4.3002,4.3002,4.3002,4.3002,4.3002,4.3002,4.3002,4.3002,4.3002,4.3002,4.3002,4.3002,4.3002,4.3002,4.3002,4.3085,4.311,4.3034,4.2464,4.228,4.224,4.156,4.1286,4.1286,4.1286,4.1286,4.1286,4.1286,4.1286,4.1498,4.249,4.3307,4.4158,4.544,4.6322,4.6953,4.7229,4.7309,4.7309,4.7309,4.7309,4.7309,4.7309,4.7309,4.7309,4.7309,4.7309,4.7309,4.7309,4.7309,4.7309,4.7309,4.7309,4.7309,4.7309,4.8594,4.9296,4.8829,4.9623,5.0026,4.9687,4.9174,4.8894,4.8986,4.9001,4.9001,4.9001,4.9001,4.9001,4.9001,4.9001,4.9001,4.9001,4.9001,4.9001,4.9001,4.9001,4.9001,0.0,0.0,0.0,0.0,0.0,0.0,4.0326,4.0249,4.0147,4.0109,4.0006,3.989,3.9723,3.9697,3.9697,3.9697,3.9697,3.9697,3.9697,3.9697,3.9697,3.9697,3.9697,3.9697,3.9697,3.9697,3.9697,3.9697,3.9697,3.9936,4.0462,4.1342,4.2097,4.265,4.2876,4.3002,4.3002,4.3002,4.3002,4.3002,4.3002,4.3002,4.3002,4.3002,4.3002,4.3002,4.3002,4.2932,4.2828,4.2718,4.2722,4.2762,4.2038,4.1866,4.198,4.147,4.1286,4.1286,4.1286,4.1286,4.1286,4.1286,4.1286,4.1572,4.2985,4.3829,4.4591,4.6018,4.6851,4.7309,4.7309,4.7309,4.7309,4.7309,4.7309,4.7309,4.7309,4.7309,4.7309,4.7309,4.7309,4.7309,4.7309,4.7309,4.7424,4.7801,4.7843,4.7955,4.8303,4.9503,5.0093,4.9431,5.0066,5.0293,4.9736,4.919,4.8925,4.8986,4.9001,4.9001,4.9001,4.9001,4.9001,4.9001,4.9001,4.9001,4.9001,4.9001,4.9001,4.9001,4.9001,4.9001,0.0,0.0,0.0,0.0,0.0,0.0,4.0006,3.9865,3.9762,4.0006,3.9865,3.9697,3.9697,3.9697,3.9697,3.9697,3.9697,3.9697,3.9697,3.9697,3.9697,3.9697,3.9697,3.9697,3.9697,3.9697,3.9697,3.9697,3.9697,3.9936,4.0462,4.0951,4.1465,4.2072,4.2625,4.2914,4.2914,4.2977,4.3002,4.3002,4.3002,4.3002,4.3002,4.3002,4.3002,4.3002,4.2939,4.2776,4.2567,4.2223,4.2214,4.2436,4.1603,4.1466,4.1723,4.1406,4.1286,4.1286,4.1286,4.1286,4.1286,4.1286,4.1386,4.1832,4.3725,4.4382,4.4869,4.6763,4.7309,4.7309,4.7309,4.7309,4.7309,4.7309,4.7309,4.7309,4.7309,4.7309,4.7309,4.7309,4.7309,4.7309,4.7309,4.7309,4.7602,4.847,4.8615,4.8892,4.9702,5.0557,5.0899,5.0351,5.0534,5.0458,4.9849,4.9315,4.9001,4.9001,4.9001,4.9001,4.9001,4.9001,4.9001,4.9001,4.9001,4.9001,4.9001,4.9001,4.9001,4.9001,4.9001,4.9001,0.0,0.0,0.0,0.0,0.0,0.0,3.9762,3.9736,3.9723,3.9762,3.9736,3.9697,3.9697,3.9697,3.9697,3.9697,3.9697,3.9697,3.9697,3.9697,3.9697,3.9697,3.9697,3.9697,3.9697,3.9697,3.9697,3.9697,3.9697,3.9936,4.0462,4.0587,4.0901,4.1453,4.206,4.2348,4.2348,4.2776,4.3002,4.3002,4.3002,4.3002,4.3002,4.3002,4.3002,4.2977,4.2537,4.245,4.2504,4.1565,4.1448,4.184,4.1452,4.1325,4.1392,4.1325,4.1286,4.1286,4.1286,4.1286,4.1286,4.1286,4.1843,4.2733,4.3937,4.4869,4.5771,4.6975,4.7309,4.7309,4.7309,4.7309,4.7309,4.7309,4.7309,4.7309,4.7309,4.7309,4.7309,4.7309,4.7309,4.7309,4.7309,4.7309,4.7602,4.847,4.8615,4.8892,4.9702,5.0557,5.0899,5.0351,5.0534,5.0458,4.9849,4.9315,4.9001,4.9001,4.9001,4.9001,4.9001,4.9001,4.9001,4.9001,4.9001,4.9001,4.9001,4.9001,4.9001,4.9001,4.9001,4.9001,0.0,0.0,0.0,3.9955,0.0,0.0,0.0,3.9697,3.9697,3.9697,3.9697,3.9697,3.9697,3.9697,3.9697,3.9697,3.9697,3.9697,3.9697,3.9697,3.9697,3.9697,3.9697,3.9697,3.9697,3.9697,3.9697,3.9697,3.9697,3.9823,4.0086,4.0336,4.0612,4.0888,4.1455,4.1743,4.1743,4.2323,4.26,4.26,4.2876,4.3002,4.3002,4.3002,4.2851,4.2575,4.2338,4.2115,4.1892,4.1201,4.1132,4.1476,4.1221,4.1091,4.1135,4.1236,4.1286,4.1286,4.1286,4.1286,4.1286,4.1286,4.1978,4.2985,4.4008,4.5349,4.666,4.7164,4.7309,4.7309,4.7309,4.7309,4.7309,4.7309,4.7309,4.7309,4.7309,4.7309,4.7309,4.7309,4.7309,4.7309,4.7309,4.7666,4.8219,4.9075,4.9579,5.017,5.1089,5.1568,5.1686,5.1244,5.0994,5.0606,5.0009,4.9362,4.9001,4.9001,4.9001,4.9001,4.9001,4.9001,4.9001,4.9001,4.9001,4.9001,4.9001,4.9001,4.9001,4.9001,4.9001,4.9204,0.0,0.0,0.0,0.0,0.0,3.9697,0.0,0.0,0.0,3.9697,3.9697,3.9697,3.9697,3.9697,3.9659,3.9546,3.9622,3.9647,3.9546,3.9622,3.9697,3.9697,3.9697,3.9697,3.9697,3.9697,3.9697,3.9697,3.9697,3.9697,3.9697,4.0111,4.0362,4.0362,4.0876,4.1152,4.1152,4.1718,4.2022,4.2022,4.2487,4.266,4.266,4.266,4.2449,4.2022,4.1909,4.1651,4.1285,4.0949,4.1004,4.1261,4.0997,4.0933,4.0997,4.1211,4.1286,4.1286,4.1286,4.1286,4.1336,4.1522,4.2406,4.3569,4.4568,4.601,4.7309,4.7309,4.7309,4.7309,4.7309,4.7309,4.7309,4.7309,4.7309,4.7309,4.7309,4.7309,4.7309,4.7309,4.7309,4.7309,4.7309,4.8019,4.8872,4.9666,5.0538,5.1455,5.2429,5.2571,5.2462,5.2068,5.1412,5.0752,5.0152,4.9424,4.9001,4.9001,4.9001,4.9001,4.9001,4.9001,4.9001,4.9001,4.9001,4.9001,4.9001,4.9001,4.9001,4.9001,4.9185,4.9589,0.0,0.0,0.0,0.0,3.9697,0.0,0.0,0.0,3.9697,3.9697,0.0,3.9697,3.9697,0.0,0.0,3.907,3.9396,3.9521,3.9057,3.9383,3.9697,3.9697,3.9697,3.9697,3.9697,3.9697,3.9697,3.9697,3.9697,3.9697,3.9697,3.9747,3.9785,3.9785,4.0325,4.0587,4.0587,4.1127,4.1403,4.1403,4.1465,4.1503,4.1503,4.1503,4.1465,4.1378,4.0888,4.0916,4.1259,4.0747,4.0834,4.1261,4.0997,4.1047,4.1261,4.1286,4.1286,4.1286,4.1286,4.1286,4.1448,4.2333,4.3909,4.5644,4.6638,4.7121,4.7309,4.7309,4.7309,4.7309,4.7309,4.7309,4.7309,4.7309,4.7309,4.7309,4.7309,4.7309,4.7309,4.7309,4.7309,4.7309,4.7309,4.8019,4.8872,4.9666,5.0538,5.1434,5.232,5.2517,5.2393,5.1882,5.1329,5.0752,5.0152,4.9424,4.9001,4.9001,4.9001,4.9001,4.9001,4.9001,4.9001,4.9001,4.9001,4.9001,4.9001,4.9001,4.9001,4.9018,4.9851,5.0302,0.0,0.0,0.0,0.0,0.0,0.0,3.9697,0.0,3.9697,0.0,0.0,0.0,0.0,0.0,0.0,0.0,3.9546,3.9609,3.9409,3.9546,3.9697,3.9697,3.9697,3.9697,3.9697,3.9697,3.9697,3.9697,3.9697,3.9697,3.9697,3.9697,3.9697,3.9697,3.9923,4.0036,4.0036,4.0562,4.0838,4.0838,4.1152,4.1315,4.1315,4.1315,4.1139,4.0826,4.0587,4.0612,4.0811,4.0581,4.0808,4.1286,4.1186,4.1211,4.1286,4.1286,4.1286,4.1286,4.1286,4.1683,4.2431,4.4027,4.5107,4.5995,4.6997,4.7309,4.7309,4.7309,4.7309,4.7309,4.7309,4.7309,4.7309,4.7309,4.7309,4.7309,4.7309,4.7309,4.7309,4.7309,4.7309,4.7467,4.7976,4.8744,4.9403,4.9746,5.0973,5.2053,5.2623,5.2746,5.2785,5.2792,5.2168,5.1643,5.1403,5.0304,4.9644,4.9644,4.9238,4.9001,4.9001,4.9001,4.9001,4.9001,4.9001,4.9001,4.9001,4.9424,4.9691,4.9834,5.0218,5.0861,4.058,0.0,0.0,0.0,0.0,0.0,0.0,0.0,0.0,0.0,0.0,0.0,0.0,0.0,0.0,0.0,0.0,3.9647,3.9484,3.9597,3.9697,3.9697,3.9697,3.9697,3.9697,3.9697,3.9697,3.9697,3.9697,3.9697,3.9697,3.9697,3.9697,3.9697,3.9697,3.9697,3.9697,4.0086,4.0287,4.03,4.0675,4.0863,4.0863,4.0863,4.065,4.0287,4.0287,4.0373,4.0504,4.0504,4.0808,4.1286,4.1286,4.1286,4.1286,4.1286,4.1286,4.1286,4.1286,4.2126,4.345,4.4923,4.5756,4.6344,4.7084,4.7309,4.7309,4.7309,4.7309,4.7309,4.7309,4.7309,4.7309,4.7309,4.7309,4.7309,4.7309,4.7309,4.7309,4.7309,4.7309,4.7581,4.8449,4.9262,4.9903,5.0177,5.1473,5.2533,5.2868,5.2903,5.3041,5.3382,5.274,5.23,5.23,5.1133,5.0321,5.0117,4.9407,4.9001,4.9001,4.9001,4.9001,4.9001,4.9001,4.9001,4.9001,4.9729,5.0314,5.0724,5.0975,5.167,0.0,0.0,0.0,3.9762,0.0,0.0,0.0,0.0,3.9697,0.0,0.0,0.0,0.0,0.0,0.0,0.0,0.0,0.0,0.0,3.9384,3.9697,3.9697,3.9697,3.9697,3.9697,3.9697,3.9697,3.9697,3.9697,3.9697,3.9697,3.9697,3.9697,3.9697,3.9697,3.9697,3.9697,3.971,3.9722,3.9722,3.9735,3.9747,3.9747,3.9747,3.9735,3.9722,3.9722,4.0019,4.0504,4.0504,4.0808,4.1286,4.1286,4.1286,4.1286,4.1286,4.1286,4.1286,4.1286,4.2601,4.4266,4.4336,4.5673,4.7251,4.7287,4.7309,4.7309,4.7309,4.7309,4.7309,4.7309,4.7309,4.7309,4.7309,4.7309,4.7309,4.7309,4.7309,4.7309,4.7309,4.7309,4.7581,4.8449,4.9262,5.0138,5.1199,5.1946,5.2533,5.2868,5.2903,5.2972,5.3179,5.2656,5.23,5.23,5.159,5.0862,5.015,4.9407,4.9001,4.9001,4.9001,4.9001,4.9001,4.9001,4.9001,4.9001,4.9729,5.0568,5.1489,5.2413,5.2914,0.0,0.0,4.03,4.0032,0.0,0.0,0.0,0.0,0.0,0.0,0.0,0.0,0.0,0.0,0.0,0.0,0.0,0.0,0.0,3.9584,3.9697,3.9697,3.9697,3.9697,3.9697,3.9697,3.9697,3.9697,3.9697,3.9697,3.9697,3.9697,3.9697,3.9697,3.9697,3.9697,3.9697,3.9697,3.9697,3.9697,3.9697,3.9697,3.9697,3.9697,3.9697,3.9697,3.9697,3.9993,4.0504,4.0504,4.0808,4.1286,4.1286,4.1286,4.1286,4.1286,4.1286,4.1498,4.2819,4.3725,4.4522,4.5853,4.6741,4.7309,4.7309,4.7309,4.7309,4.7309,4.7309,4.7309,4.7309,4.7309,4.7309,4.7309,4.7309,4.7309,4.7309,4.7309,4.7309,4.7309,4.7758,4.8428,4.9242,5.0112,5.084,5.1329,5.2038,5.2676,5.3041,5.3093,5.3178,5.3382,5.323,5.3095,5.3095,5.2384,5.1403,5.0184,4.988,4.9509,4.9018,4.9001,4.9001,4.9001,4.9001,4.9238,4.9729,5.06,5.1506,5.2465,5.3343,5.3781,4.082,4.0618,0.0,4.0057,3.9955,0.0,3.9736,0.0,0.0,0.0,0.0,0.0,0.0,0.0,0.0,0.0,0.0,0.0,0.0,3.9697,3.9697,3.9697,3.9697,3.9697,3.9697,3.9697,3.9697,3.9697,3.9697,3.9697,3.9697,3.9697,3.9697,3.9697,3.9697,3.9697,3.9697,3.9697,3.9697,3.9697,3.9697,3.9697,3.9697,3.9697,3.9697,3.9697,3.9697,3.9993,4.0504,4.0504,4.0808,4.1286,4.1286,4.1286,4.1286,4.1286,4.1522,4.2016,4.3321,4.4228,4.5052,4.6358,4.7019,4.7309,4.7309,4.7309,4.7354,4.7593,4.7489,4.7354,4.7593,4.7474,4.7309,4.7309,4.7309,4.7309,4.7309,4.7309,4.7381,4.7694,4.8214,4.8953,5.0057,5.0783,5.1364,5.186,5.2307,5.2764,5.3247,5.3247,5.3281,5.3484,5.3501,5.3501,5.3501,5.2756,5.1775,5.0574,5.0252,4.9763,4.9035,4.9001,4.9001,4.9001,4.9001,4.9405,5.0212,5.1085,5.2009,5.2983,5.3815,5.4349]}]]